<?xml version="1.0" encoding="UTF-8" standalone="no" ?>
<gpx xmlns="http://www.topografix.com/GPX/1/1" xmlns:xsi="http://www.w3.org/2001/XMLSchema-instance" xsi:schemaLocation="http://www.topografix.com/GPX/1/1 http://www.topografix.com/GPX/1/1/gpx.xsd" version="1.1" creator="VisuGPX - https://www.visugpx.com">
  <metadata>
    <name>Boucle Chanteloube Col Lebrault</name>
    <desc><![CDATA[Jeudi 28 janvier 2015. 
Groupe B, 13 marcheurs, boucle au Départ Pont des Moulettes, en direction du col Lebrault, retour par le bord du lac et Les Yvans. belle journée, temps parfait.]]></desc>
  </metadata>
  <trk>
    <name><![CDATA[2016 01 28 : Boucle Chanteloube Lebrault]]></name>
    <trkseg>
      <trkpt lat="44.51129" lon="6.30921">
        <ele>796.59</ele>
        <time>2016-01-28T08:33:31Z</time>
      </trkpt>
      <trkpt lat="44.51125" lon="6.30915">
        <ele>796.59</ele>
        <time>2016-01-28T08:33:47Z</time>
      </trkpt>
      <trkpt lat="44.51121" lon="6.30911">
        <ele>796.11</ele>
        <time>2016-01-28T08:33:56Z</time>
      </trkpt>
      <trkpt lat="44.51119" lon="6.30914">
        <ele>795.63</ele>
        <time>2016-01-28T08:34:09Z</time>
      </trkpt>
      <trkpt lat="44.5112" lon="6.30914">
        <ele>796.59</ele>
        <time>2016-01-28T08:34:28Z</time>
      </trkpt>
      <trkpt lat="44.51118" lon="6.30918">
        <ele>796.59</ele>
        <time>2016-01-28T08:34:43Z</time>
      </trkpt>
      <trkpt lat="44.5112" lon="6.30918">
        <ele>797.07</ele>
        <time>2016-01-28T08:35:03Z</time>
      </trkpt>
      <trkpt lat="44.51121" lon="6.30915">
        <ele>796.59</ele>
        <time>2016-01-28T08:35:05Z</time>
      </trkpt>
      <trkpt lat="44.51122" lon="6.30911">
        <ele>796.59</ele>
        <time>2016-01-28T08:35:07Z</time>
      </trkpt>
      <trkpt lat="44.51122" lon="6.30908">
        <ele>796.59</ele>
        <time>2016-01-28T08:35:09Z</time>
      </trkpt>
      <trkpt lat="44.51127" lon="6.30895">
        <ele>796.59</ele>
        <time>2016-01-28T08:35:19Z</time>
      </trkpt>
      <trkpt lat="44.51136" lon="6.30875">
        <ele>797.07</ele>
        <time>2016-01-28T08:35:33Z</time>
      </trkpt>
      <trkpt lat="44.51138" lon="6.30873">
        <ele>797.07</ele>
        <time>2016-01-28T08:35:35Z</time>
      </trkpt>
      <trkpt lat="44.51143" lon="6.30865">
        <ele>796.59</ele>
        <time>2016-01-28T08:35:42Z</time>
      </trkpt>
      <trkpt lat="44.51154" lon="6.30847">
        <ele>796.59</ele>
        <time>2016-01-28T08:35:58Z</time>
      </trkpt>
      <trkpt lat="44.51155" lon="6.30846">
        <ele>796.59</ele>
        <time>2016-01-28T08:35:59Z</time>
      </trkpt>
      <trkpt lat="44.5116" lon="6.30837">
        <ele>796.59</ele>
        <time>2016-01-28T08:36:07Z</time>
      </trkpt>
      <trkpt lat="44.5116" lon="6.30828">
        <ele>796.11</ele>
        <time>2016-01-28T08:36:14Z</time>
      </trkpt>
      <trkpt lat="44.51158" lon="6.30827">
        <ele>795.63</ele>
        <time>2016-01-28T08:36:16Z</time>
      </trkpt>
      <trkpt lat="44.51155" lon="6.30833">
        <ele>795.63</ele>
        <time>2016-01-28T08:36:21Z</time>
      </trkpt>
      <trkpt lat="44.51152" lon="6.30835">
        <ele>795.63</ele>
        <time>2016-01-28T08:36:23Z</time>
      </trkpt>
      <trkpt lat="44.51151" lon="6.30837">
        <ele>795.63</ele>
        <time>2016-01-28T08:36:25Z</time>
      </trkpt>
      <trkpt lat="44.51147" lon="6.30839">
        <ele>795.15</ele>
        <time>2016-01-28T08:36:29Z</time>
      </trkpt>
      <trkpt lat="44.51147" lon="6.30828">
        <ele>794.67</ele>
        <time>2016-01-28T08:36:34Z</time>
      </trkpt>
      <trkpt lat="44.51159" lon="6.308">
        <ele>794.67</ele>
        <time>2016-01-28T08:36:52Z</time>
      </trkpt>
      <trkpt lat="44.51164" lon="6.3078">
        <ele>794.67</ele>
        <time>2016-01-28T08:37:06Z</time>
      </trkpt>
      <trkpt lat="44.51163" lon="6.30765">
        <ele>793.71</ele>
        <time>2016-01-28T08:37:18Z</time>
      </trkpt>
      <trkpt lat="44.51164" lon="6.30759">
        <ele>793.71</ele>
        <time>2016-01-28T08:37:22Z</time>
      </trkpt>
      <trkpt lat="44.51172" lon="6.30747">
        <ele>793.71</ele>
        <time>2016-01-28T08:37:33Z</time>
      </trkpt>
      <trkpt lat="44.51173" lon="6.30738">
        <ele>795.63</ele>
        <time>2016-01-28T08:37:46Z</time>
      </trkpt>
      <trkpt lat="44.51165" lon="6.30737">
        <ele>795.63</ele>
        <time>2016-01-28T08:37:56Z</time>
      </trkpt>
      <trkpt lat="44.5115" lon="6.30738">
        <ele>795.15</ele>
        <time>2016-01-28T08:38:13Z</time>
      </trkpt>
      <trkpt lat="44.51144" lon="6.30741">
        <ele>794.67</ele>
        <time>2016-01-28T08:38:19Z</time>
      </trkpt>
      <trkpt lat="44.5114" lon="6.30739">
        <ele>794.67</ele>
        <time>2016-01-28T08:38:26Z</time>
      </trkpt>
      <trkpt lat="44.51121" lon="6.30741">
        <ele>793.71</ele>
        <time>2016-01-28T08:38:44Z</time>
      </trkpt>
      <trkpt lat="44.51108" lon="6.30741">
        <ele>793.71</ele>
        <time>2016-01-28T08:38:55Z</time>
      </trkpt>
      <trkpt lat="44.51104" lon="6.3074">
        <ele>793.71</ele>
        <time>2016-01-28T08:38:58Z</time>
      </trkpt>
      <trkpt lat="44.51086" lon="6.30737">
        <ele>793.22</ele>
        <time>2016-01-28T08:39:15Z</time>
      </trkpt>
      <trkpt lat="44.51067" lon="6.30731">
        <ele>792.74</ele>
        <time>2016-01-28T08:39:32Z</time>
      </trkpt>
      <trkpt lat="44.51049" lon="6.30723">
        <ele>792.26</ele>
        <time>2016-01-28T08:39:50Z</time>
      </trkpt>
      <trkpt lat="44.5103" lon="6.30713">
        <ele>791.78</ele>
        <time>2016-01-28T08:40:08Z</time>
      </trkpt>
      <trkpt lat="44.51013" lon="6.30701">
        <ele>791.3</ele>
        <time>2016-01-28T08:40:25Z</time>
      </trkpt>
      <trkpt lat="44.50996" lon="6.30689">
        <ele>791.3</ele>
        <time>2016-01-28T08:40:41Z</time>
      </trkpt>
      <trkpt lat="44.50976" lon="6.30674">
        <ele>790.34</ele>
        <time>2016-01-28T08:41:00Z</time>
      </trkpt>
      <trkpt lat="44.50957" lon="6.30661">
        <ele>789.86</ele>
        <time>2016-01-28T08:41:17Z</time>
      </trkpt>
      <trkpt lat="44.5094" lon="6.3065">
        <ele>789.38</ele>
        <time>2016-01-28T08:41:34Z</time>
      </trkpt>
      <trkpt lat="44.50922" lon="6.30636">
        <ele>788.9</ele>
        <time>2016-01-28T08:41:51Z</time>
      </trkpt>
      <trkpt lat="44.50903" lon="6.30623">
        <ele>788.42</ele>
        <time>2016-01-28T08:42:10Z</time>
      </trkpt>
      <trkpt lat="44.50885" lon="6.30615">
        <ele>787.94</ele>
        <time>2016-01-28T08:42:27Z</time>
      </trkpt>
      <trkpt lat="44.50865" lon="6.30607">
        <ele>787.46</ele>
        <time>2016-01-28T08:42:45Z</time>
      </trkpt>
      <trkpt lat="44.50849" lon="6.30603">
        <ele>786.98</ele>
        <time>2016-01-28T08:43:00Z</time>
      </trkpt>
      <trkpt lat="44.50845" lon="6.30602">
        <ele>786.5</ele>
        <time>2016-01-28T08:43:04Z</time>
      </trkpt>
      <trkpt lat="44.50827" lon="6.306">
        <ele>786.5</ele>
        <time>2016-01-28T08:43:21Z</time>
      </trkpt>
      <trkpt lat="44.50814" lon="6.30594">
        <ele>785.53</ele>
        <time>2016-01-28T08:43:37Z</time>
      </trkpt>
      <trkpt lat="44.50813" lon="6.30595">
        <ele>786.02</ele>
        <time>2016-01-28T08:43:40Z</time>
      </trkpt>
      <trkpt lat="44.50801" lon="6.30597">
        <ele>785.05</ele>
        <time>2016-01-28T08:43:50Z</time>
      </trkpt>
      <trkpt lat="44.5079" lon="6.30575">
        <ele>785.53</ele>
        <time>2016-01-28T08:44:07Z</time>
      </trkpt>
      <trkpt lat="44.5079" lon="6.30573">
        <ele>785.53</ele>
        <time>2016-01-28T08:44:08Z</time>
      </trkpt>
      <trkpt lat="44.50786" lon="6.3056">
        <ele>786.5</ele>
        <time>2016-01-28T08:44:22Z</time>
      </trkpt>
      <trkpt lat="44.50784" lon="6.30552">
        <ele>787.94</ele>
        <time>2016-01-28T08:44:33Z</time>
      </trkpt>
      <trkpt lat="44.50783" lon="6.30545">
        <ele>788.9</ele>
        <time>2016-01-28T08:44:42Z</time>
      </trkpt>
      <trkpt lat="44.50782" lon="6.30533">
        <ele>790.34</ele>
        <time>2016-01-28T08:44:56Z</time>
      </trkpt>
      <trkpt lat="44.50784" lon="6.30527">
        <ele>791.3</ele>
        <time>2016-01-28T08:45:09Z</time>
      </trkpt>
      <trkpt lat="44.50786" lon="6.30519">
        <ele>792.26</ele>
        <time>2016-01-28T08:45:21Z</time>
      </trkpt>
      <trkpt lat="44.50797" lon="6.3051">
        <ele>792.74</ele>
        <time>2016-01-28T08:45:38Z</time>
      </trkpt>
      <trkpt lat="44.50809" lon="6.30501">
        <ele>793.22</ele>
        <time>2016-01-28T08:45:53Z</time>
      </trkpt>
      <trkpt lat="44.50814" lon="6.30493">
        <ele>794.19</ele>
        <time>2016-01-28T08:46:08Z</time>
      </trkpt>
      <trkpt lat="44.50817" lon="6.30477">
        <ele>795.63</ele>
        <time>2016-01-28T08:46:23Z</time>
      </trkpt>
      <trkpt lat="44.50822" lon="6.30461">
        <ele>798.03</ele>
        <time>2016-01-28T08:46:40Z</time>
      </trkpt>
      <trkpt lat="44.50823" lon="6.30451">
        <ele>799.95</ele>
        <time>2016-01-28T08:46:58Z</time>
      </trkpt>
      <trkpt lat="44.50826" lon="6.30439">
        <ele>801.88</ele>
        <time>2016-01-28T08:47:16Z</time>
      </trkpt>
      <trkpt lat="44.5083" lon="6.30426">
        <ele>804.28</ele>
        <time>2016-01-28T08:47:30Z</time>
      </trkpt>
      <trkpt lat="44.5083" lon="6.30419">
        <ele>806.2</ele>
        <time>2016-01-28T08:47:46Z</time>
      </trkpt>
      <trkpt lat="44.50818" lon="6.3043">
        <ele>808.61</ele>
        <time>2016-01-28T08:48:04Z</time>
      </trkpt>
      <trkpt lat="44.50812" lon="6.30437">
        <ele>810.05</ele>
        <time>2016-01-28T08:48:19Z</time>
      </trkpt>
      <trkpt lat="44.50809" lon="6.30426">
        <ele>811.97</ele>
        <time>2016-01-28T08:48:34Z</time>
      </trkpt>
      <trkpt lat="44.5081" lon="6.30416">
        <ele>813.41</ele>
        <time>2016-01-28T08:48:48Z</time>
      </trkpt>
      <trkpt lat="44.50812" lon="6.30402">
        <ele>815.34</ele>
        <time>2016-01-28T08:49:01Z</time>
      </trkpt>
      <trkpt lat="44.50808" lon="6.30386">
        <ele>817.26</ele>
        <time>2016-01-28T08:49:18Z</time>
      </trkpt>
      <trkpt lat="44.50803" lon="6.30384">
        <ele>818.22</ele>
        <time>2016-01-28T08:49:33Z</time>
      </trkpt>
      <trkpt lat="44.50797" lon="6.30374">
        <ele>819.66</ele>
        <time>2016-01-28T08:49:49Z</time>
      </trkpt>
      <trkpt lat="44.50801" lon="6.30358">
        <ele>821.1</ele>
        <time>2016-01-28T08:50:06Z</time>
      </trkpt>
      <trkpt lat="44.50803" lon="6.30345">
        <ele>823.03</ele>
        <time>2016-01-28T08:50:20Z</time>
      </trkpt>
      <trkpt lat="44.5081" lon="6.30337">
        <ele>824.95</ele>
        <time>2016-01-28T08:50:33Z</time>
      </trkpt>
      <trkpt lat="44.50813" lon="6.30329">
        <ele>825.91</ele>
        <time>2016-01-28T08:50:47Z</time>
      </trkpt>
      <trkpt lat="44.50816" lon="6.30321">
        <ele>827.35</ele>
        <time>2016-01-28T08:51:00Z</time>
      </trkpt>
      <trkpt lat="44.50818" lon="6.30313">
        <ele>828.79</ele>
        <time>2016-01-28T08:51:14Z</time>
      </trkpt>
      <trkpt lat="44.50819" lon="6.30306">
        <ele>829.76</ele>
        <time>2016-01-28T08:51:30Z</time>
      </trkpt>
      <trkpt lat="44.50817" lon="6.303">
        <ele>831.68</ele>
        <time>2016-01-28T08:51:47Z</time>
      </trkpt>
      <trkpt lat="44.50813" lon="6.30296">
        <ele>833.6</ele>
        <time>2016-01-28T08:52:01Z</time>
      </trkpt>
      <trkpt lat="44.5081" lon="6.3029">
        <ele>835.52</ele>
        <time>2016-01-28T08:52:16Z</time>
      </trkpt>
      <trkpt lat="44.50811" lon="6.30277">
        <ele>837.45</ele>
        <time>2016-01-28T08:52:31Z</time>
      </trkpt>
      <trkpt lat="44.50811" lon="6.30266">
        <ele>840.33</ele>
        <time>2016-01-28T08:52:45Z</time>
      </trkpt>
      <trkpt lat="44.50814" lon="6.30253">
        <ele>841.29</ele>
        <time>2016-01-28T08:53:03Z</time>
      </trkpt>
      <trkpt lat="44.50814" lon="6.30239">
        <ele>840.81</ele>
        <time>2016-01-28T08:53:16Z</time>
      </trkpt>
      <trkpt lat="44.5081" lon="6.30224">
        <ele>841.77</ele>
        <time>2016-01-28T08:53:27Z</time>
      </trkpt>
      <trkpt lat="44.50806" lon="6.30209">
        <ele>840.81</ele>
        <time>2016-01-28T08:53:41Z</time>
      </trkpt>
      <trkpt lat="44.50815" lon="6.30197">
        <ele>842.25</ele>
        <time>2016-01-28T08:53:57Z</time>
      </trkpt>
      <trkpt lat="44.50825" lon="6.30189">
        <ele>842.73</ele>
        <time>2016-01-28T08:54:12Z</time>
      </trkpt>
      <trkpt lat="44.50834" lon="6.30182">
        <ele>844.18</ele>
        <time>2016-01-28T08:54:25Z</time>
      </trkpt>
      <trkpt lat="44.50845" lon="6.30181">
        <ele>846.1</ele>
        <time>2016-01-28T08:54:39Z</time>
      </trkpt>
      <trkpt lat="44.50849" lon="6.30179">
        <ele>847.54</ele>
        <time>2016-01-28T08:54:47Z</time>
      </trkpt>
      <trkpt lat="44.50859" lon="6.30182">
        <ele>849.46</ele>
        <time>2016-01-28T08:54:59Z</time>
      </trkpt>
      <trkpt lat="44.50857" lon="6.30172">
        <ele>851.38</ele>
        <time>2016-01-28T08:55:14Z</time>
      </trkpt>
      <trkpt lat="44.50855" lon="6.30165">
        <ele>851.87</ele>
        <time>2016-01-28T08:55:19Z</time>
      </trkpt>
      <trkpt lat="44.50855" lon="6.30145">
        <ele>853.79</ele>
        <time>2016-01-28T08:55:35Z</time>
      </trkpt>
      <trkpt lat="44.5085" lon="6.30132">
        <ele>855.23</ele>
        <time>2016-01-28T08:55:48Z</time>
      </trkpt>
      <trkpt lat="44.50852" lon="6.30121">
        <ele>855.71</ele>
        <time>2016-01-28T08:55:56Z</time>
      </trkpt>
      <trkpt lat="44.50858" lon="6.30105">
        <ele>856.67</ele>
        <time>2016-01-28T08:56:11Z</time>
      </trkpt>
      <trkpt lat="44.50865" lon="6.30094">
        <ele>857.15</ele>
        <time>2016-01-28T08:56:26Z</time>
      </trkpt>
      <trkpt lat="44.50872" lon="6.30087">
        <ele>857.63</ele>
        <time>2016-01-28T08:56:39Z</time>
      </trkpt>
      <trkpt lat="44.50871" lon="6.30088">
        <ele>856.67</ele>
        <time>2016-01-28T08:56:57Z</time>
      </trkpt>
      <trkpt lat="44.5087" lon="6.30084">
        <ele>856.19</ele>
        <time>2016-01-28T08:57:20Z</time>
      </trkpt>
      <trkpt lat="44.50872" lon="6.30091">
        <ele>856.67</ele>
        <time>2016-01-28T08:57:42Z</time>
      </trkpt>
      <trkpt lat="44.50873" lon="6.30086">
        <ele>856.67</ele>
        <time>2016-01-28T08:58:05Z</time>
      </trkpt>
      <trkpt lat="44.50873" lon="6.30088">
        <ele>856.67</ele>
        <time>2016-01-28T08:58:28Z</time>
      </trkpt>
      <trkpt lat="44.50875" lon="6.30089">
        <ele>857.15</ele>
        <time>2016-01-28T08:58:57Z</time>
      </trkpt>
      <trkpt lat="44.50871" lon="6.30084">
        <ele>857.63</ele>
        <time>2016-01-28T08:59:17Z</time>
      </trkpt>
      <trkpt lat="44.50875" lon="6.30091">
        <ele>857.63</ele>
        <time>2016-01-28T08:59:29Z</time>
      </trkpt>
      <trkpt lat="44.50873" lon="6.30089">
        <ele>857.63</ele>
        <time>2016-01-28T08:59:41Z</time>
      </trkpt>
      <trkpt lat="44.50872" lon="6.30088">
        <ele>857.63</ele>
        <time>2016-01-28T09:00:00Z</time>
      </trkpt>
      <trkpt lat="44.50873" lon="6.30087">
        <ele>857.63</ele>
        <time>2016-01-28T09:00:18Z</time>
      </trkpt>
      <trkpt lat="44.50871" lon="6.3009">
        <ele>857.63</ele>
        <time>2016-01-28T09:00:38Z</time>
      </trkpt>
      <trkpt lat="44.5087" lon="6.30087">
        <ele>857.63</ele>
        <time>2016-01-28T09:00:50Z</time>
      </trkpt>
      <trkpt lat="44.50869" lon="6.30089">
        <ele>857.63</ele>
        <time>2016-01-28T09:00:57Z</time>
      </trkpt>
      <trkpt lat="44.50869" lon="6.3009">
        <ele>857.63</ele>
        <time>2016-01-28T09:01:11Z</time>
      </trkpt>
      <trkpt lat="44.50868" lon="6.30088">
        <ele>857.15</ele>
        <time>2016-01-28T09:01:29Z</time>
      </trkpt>
      <trkpt lat="44.50869" lon="6.30085">
        <ele>857.15</ele>
        <time>2016-01-28T09:01:33Z</time>
      </trkpt>
      <trkpt lat="44.50874" lon="6.30066">
        <ele>858.11</ele>
        <time>2016-01-28T09:01:48Z</time>
      </trkpt>
      <trkpt lat="44.50876" lon="6.30047">
        <ele>858.11</ele>
        <time>2016-01-28T09:02:02Z</time>
      </trkpt>
      <trkpt lat="44.50875" lon="6.30029">
        <ele>858.59</ele>
        <time>2016-01-28T09:02:14Z</time>
      </trkpt>
      <trkpt lat="44.50874" lon="6.30012">
        <ele>859.08</ele>
        <time>2016-01-28T09:02:26Z</time>
      </trkpt>
      <trkpt lat="44.50876" lon="6.29994">
        <ele>859.08</ele>
        <time>2016-01-28T09:02:37Z</time>
      </trkpt>
      <trkpt lat="44.50882" lon="6.29983">
        <ele>859.56</ele>
        <time>2016-01-28T09:02:46Z</time>
      </trkpt>
      <trkpt lat="44.50888" lon="6.29976">
        <ele>860.04</ele>
        <time>2016-01-28T09:02:54Z</time>
      </trkpt>
      <trkpt lat="44.50902" lon="6.29968">
        <ele>861</ele>
        <time>2016-01-28T09:03:08Z</time>
      </trkpt>
      <trkpt lat="44.50911" lon="6.29963">
        <ele>861.48</ele>
        <time>2016-01-28T09:03:17Z</time>
      </trkpt>
      <trkpt lat="44.50915" lon="6.2996">
        <ele>861.48</ele>
        <time>2016-01-28T09:03:21Z</time>
      </trkpt>
      <trkpt lat="44.50919" lon="6.29956">
        <ele>861.96</ele>
        <time>2016-01-28T09:03:25Z</time>
      </trkpt>
      <trkpt lat="44.50931" lon="6.29937">
        <ele>862.92</ele>
        <time>2016-01-28T09:03:42Z</time>
      </trkpt>
      <trkpt lat="44.50937" lon="6.29927">
        <ele>863.4</ele>
        <time>2016-01-28T09:03:52Z</time>
      </trkpt>
      <trkpt lat="44.50942" lon="6.29907">
        <ele>864.36</ele>
        <time>2016-01-28T09:04:06Z</time>
      </trkpt>
      <trkpt lat="44.50946" lon="6.29889">
        <ele>864.84</ele>
        <time>2016-01-28T09:04:19Z</time>
      </trkpt>
      <trkpt lat="44.50947" lon="6.29887">
        <ele>864.84</ele>
        <time>2016-01-28T09:04:21Z</time>
      </trkpt>
      <trkpt lat="44.50949" lon="6.29873">
        <ele>865.8</ele>
        <time>2016-01-28T09:04:31Z</time>
      </trkpt>
      <trkpt lat="44.5095" lon="6.29866">
        <ele>866.29</ele>
        <time>2016-01-28T09:04:36Z</time>
      </trkpt>
      <trkpt lat="44.50953" lon="6.2985">
        <ele>866.77</ele>
        <time>2016-01-28T09:04:48Z</time>
      </trkpt>
      <trkpt lat="44.50954" lon="6.29847">
        <ele>868.21</ele>
        <time>2016-01-28T09:04:50Z</time>
      </trkpt>
      <trkpt lat="44.50954" lon="6.2984">
        <ele>867.25</ele>
        <time>2016-01-28T09:04:55Z</time>
      </trkpt>
      <trkpt lat="44.50953" lon="6.29825">
        <ele>868.69</ele>
        <time>2016-01-28T09:05:07Z</time>
      </trkpt>
      <trkpt lat="44.50951" lon="6.2981">
        <ele>869.65</ele>
        <time>2016-01-28T09:05:21Z</time>
      </trkpt>
      <trkpt lat="44.50948" lon="6.29796">
        <ele>870.13</ele>
        <time>2016-01-28T09:05:34Z</time>
      </trkpt>
      <trkpt lat="44.50945" lon="6.29779">
        <ele>871.57</ele>
        <time>2016-01-28T09:05:47Z</time>
      </trkpt>
      <trkpt lat="44.5095" lon="6.29768">
        <ele>872.05</ele>
        <time>2016-01-28T09:05:56Z</time>
      </trkpt>
      <trkpt lat="44.50958" lon="6.29754">
        <ele>873.5</ele>
        <time>2016-01-28T09:06:10Z</time>
      </trkpt>
      <trkpt lat="44.5096" lon="6.29751">
        <ele>873.98</ele>
        <time>2016-01-28T09:06:13Z</time>
      </trkpt>
      <trkpt lat="44.5097" lon="6.29736">
        <ele>874.94</ele>
        <time>2016-01-28T09:06:28Z</time>
      </trkpt>
      <trkpt lat="44.50979" lon="6.29724">
        <ele>875.9</ele>
        <time>2016-01-28T09:06:41Z</time>
      </trkpt>
      <trkpt lat="44.50988" lon="6.29711">
        <ele>877.34</ele>
        <time>2016-01-28T09:06:54Z</time>
      </trkpt>
      <trkpt lat="44.50989" lon="6.2971">
        <ele>876.86</ele>
        <time>2016-01-28T09:06:55Z</time>
      </trkpt>
      <trkpt lat="44.50996" lon="6.29702">
        <ele>878.3</ele>
        <time>2016-01-28T09:07:09Z</time>
      </trkpt>
      <trkpt lat="44.51007" lon="6.29689">
        <ele>879.26</ele>
        <time>2016-01-28T09:07:23Z</time>
      </trkpt>
      <trkpt lat="44.51017" lon="6.29678">
        <ele>880.71</ele>
        <time>2016-01-28T09:07:37Z</time>
      </trkpt>
      <trkpt lat="44.51018" lon="6.29678">
        <ele>880.71</ele>
        <time>2016-01-28T09:07:38Z</time>
      </trkpt>
      <trkpt lat="44.51019" lon="6.29676">
        <ele>880.71</ele>
        <time>2016-01-28T09:07:40Z</time>
      </trkpt>
      <trkpt lat="44.5103" lon="6.29664">
        <ele>882.15</ele>
        <time>2016-01-28T09:07:54Z</time>
      </trkpt>
      <trkpt lat="44.51043" lon="6.29652">
        <ele>883.59</ele>
        <time>2016-01-28T09:08:09Z</time>
      </trkpt>
      <trkpt lat="44.51051" lon="6.29644">
        <ele>884.07</ele>
        <time>2016-01-28T09:08:17Z</time>
      </trkpt>
      <trkpt lat="44.51062" lon="6.29628">
        <ele>885.51</ele>
        <time>2016-01-28T09:08:33Z</time>
      </trkpt>
      <trkpt lat="44.5107" lon="6.29618">
        <ele>885.99</ele>
        <time>2016-01-28T09:08:44Z</time>
      </trkpt>
      <trkpt lat="44.51072" lon="6.29615">
        <ele>885.99</ele>
        <time>2016-01-28T09:08:46Z</time>
      </trkpt>
      <trkpt lat="44.51077" lon="6.29609">
        <ele>886.95</ele>
        <time>2016-01-28T09:08:53Z</time>
      </trkpt>
      <trkpt lat="44.51092" lon="6.29595">
        <ele>887.91</ele>
        <time>2016-01-28T09:09:11Z</time>
      </trkpt>
      <trkpt lat="44.51102" lon="6.29589">
        <ele>888.88</ele>
        <time>2016-01-28T09:09:22Z</time>
      </trkpt>
      <trkpt lat="44.51118" lon="6.29578">
        <ele>889.84</ele>
        <time>2016-01-28T09:09:39Z</time>
      </trkpt>
      <trkpt lat="44.5113" lon="6.29568">
        <ele>890.32</ele>
        <time>2016-01-28T09:09:53Z</time>
      </trkpt>
      <trkpt lat="44.51141" lon="6.29559">
        <ele>890.8</ele>
        <time>2016-01-28T09:10:08Z</time>
      </trkpt>
      <trkpt lat="44.51143" lon="6.29558">
        <ele>890.8</ele>
        <time>2016-01-28T09:10:10Z</time>
      </trkpt>
      <trkpt lat="44.51145" lon="6.29556">
        <ele>890.8</ele>
        <time>2016-01-28T09:10:12Z</time>
      </trkpt>
      <trkpt lat="44.51147" lon="6.29555">
        <ele>890.8</ele>
        <time>2016-01-28T09:10:14Z</time>
      </trkpt>
      <trkpt lat="44.51159" lon="6.29543">
        <ele>890.8</ele>
        <time>2016-01-28T09:10:29Z</time>
      </trkpt>
      <trkpt lat="44.51173" lon="6.29529">
        <ele>891.28</ele>
        <time>2016-01-28T09:10:46Z</time>
      </trkpt>
      <trkpt lat="44.5118" lon="6.29522">
        <ele>891.28</ele>
        <time>2016-01-28T09:10:54Z</time>
      </trkpt>
      <trkpt lat="44.51187" lon="6.29511">
        <ele>891.28</ele>
        <time>2016-01-28T09:11:08Z</time>
      </trkpt>
      <trkpt lat="44.51193" lon="6.29507">
        <ele>891.28</ele>
        <time>2016-01-28T09:11:22Z</time>
      </trkpt>
      <trkpt lat="44.51198" lon="6.29493">
        <ele>891.76</ele>
        <time>2016-01-28T09:11:37Z</time>
      </trkpt>
      <trkpt lat="44.51194" lon="6.29494">
        <ele>892.24</ele>
        <time>2016-01-28T09:11:47Z</time>
      </trkpt>
      <trkpt lat="44.51189" lon="6.29501">
        <ele>892.72</ele>
        <time>2016-01-28T09:11:53Z</time>
      </trkpt>
      <trkpt lat="44.51185" lon="6.29502">
        <ele>892.72</ele>
        <time>2016-01-28T09:11:56Z</time>
      </trkpt>
      <trkpt lat="44.51176" lon="6.29511">
        <ele>893.68</ele>
        <time>2016-01-28T09:12:06Z</time>
      </trkpt>
      <trkpt lat="44.51168" lon="6.29517">
        <ele>894.16</ele>
        <time>2016-01-28T09:12:15Z</time>
      </trkpt>
      <trkpt lat="44.51161" lon="6.29522">
        <ele>894.16</ele>
        <time>2016-01-28T09:12:23Z</time>
      </trkpt>
      <trkpt lat="44.51144" lon="6.2953">
        <ele>895.12</ele>
        <time>2016-01-28T09:12:40Z</time>
      </trkpt>
      <trkpt lat="44.51142" lon="6.29531">
        <ele>895.61</ele>
        <time>2016-01-28T09:12:41Z</time>
      </trkpt>
      <trkpt lat="44.51136" lon="6.29533">
        <ele>895.61</ele>
        <time>2016-01-28T09:12:47Z</time>
      </trkpt>
      <trkpt lat="44.51132" lon="6.29534">
        <ele>896.09</ele>
        <time>2016-01-28T09:12:51Z</time>
      </trkpt>
      <trkpt lat="44.51122" lon="6.29535">
        <ele>896.09</ele>
        <time>2016-01-28T09:13:00Z</time>
      </trkpt>
      <trkpt lat="44.51114" lon="6.29536">
        <ele>896.57</ele>
        <time>2016-01-28T09:13:08Z</time>
      </trkpt>
      <trkpt lat="44.511" lon="6.29538">
        <ele>897.05</ele>
        <time>2016-01-28T09:13:21Z</time>
      </trkpt>
      <trkpt lat="44.51093" lon="6.29539">
        <ele>897.53</ele>
        <time>2016-01-28T09:13:27Z</time>
      </trkpt>
      <trkpt lat="44.51091" lon="6.2954">
        <ele>897.53</ele>
        <time>2016-01-28T09:13:29Z</time>
      </trkpt>
      <trkpt lat="44.51089" lon="6.2954">
        <ele>898.01</ele>
        <time>2016-01-28T09:13:31Z</time>
      </trkpt>
      <trkpt lat="44.51076" lon="6.29541">
        <ele>898.01</ele>
        <time>2016-01-28T09:13:42Z</time>
      </trkpt>
      <trkpt lat="44.5107" lon="6.29542">
        <ele>898.49</ele>
        <time>2016-01-28T09:13:47Z</time>
      </trkpt>
      <trkpt lat="44.51056" lon="6.29545">
        <ele>898.97</ele>
        <time>2016-01-28T09:14:01Z</time>
      </trkpt>
      <trkpt lat="44.51055" lon="6.29546">
        <ele>898.97</ele>
        <time>2016-01-28T09:14:02Z</time>
      </trkpt>
      <trkpt lat="44.51049" lon="6.29549">
        <ele>898.97</ele>
        <time>2016-01-28T09:14:08Z</time>
      </trkpt>
      <trkpt lat="44.51048" lon="6.29549">
        <ele>898.97</ele>
        <time>2016-01-28T09:14:10Z</time>
      </trkpt>
      <trkpt lat="44.51041" lon="6.29554">
        <ele>899.45</ele>
        <time>2016-01-28T09:14:17Z</time>
      </trkpt>
      <trkpt lat="44.51028" lon="6.29566">
        <ele>899.45</ele>
        <time>2016-01-28T09:14:33Z</time>
      </trkpt>
      <trkpt lat="44.51016" lon="6.29576">
        <ele>899.45</ele>
        <time>2016-01-28T09:14:48Z</time>
      </trkpt>
      <trkpt lat="44.51008" lon="6.29584">
        <ele>898.97</ele>
        <time>2016-01-28T09:15:01Z</time>
      </trkpt>
      <trkpt lat="44.50995" lon="6.29595">
        <ele>898.49</ele>
        <time>2016-01-28T09:15:14Z</time>
      </trkpt>
      <trkpt lat="44.50982" lon="6.29612">
        <ele>898.49</ele>
        <time>2016-01-28T09:15:31Z</time>
      </trkpt>
      <trkpt lat="44.50975" lon="6.29624">
        <ele>898.01</ele>
        <time>2016-01-28T09:15:41Z</time>
      </trkpt>
      <trkpt lat="44.50961" lon="6.29638">
        <ele>897.53</ele>
        <time>2016-01-28T09:15:57Z</time>
      </trkpt>
      <trkpt lat="44.50956" lon="6.29642">
        <ele>897.05</ele>
        <time>2016-01-28T09:16:02Z</time>
      </trkpt>
      <trkpt lat="44.5095" lon="6.29645">
        <ele>897.05</ele>
        <time>2016-01-28T09:16:08Z</time>
      </trkpt>
      <trkpt lat="44.50946" lon="6.29648">
        <ele>896.57</ele>
        <time>2016-01-28T09:16:12Z</time>
      </trkpt>
      <trkpt lat="44.50945" lon="6.29649">
        <ele>896.57</ele>
        <time>2016-01-28T09:16:14Z</time>
      </trkpt>
      <trkpt lat="44.5093" lon="6.29666">
        <ele>895.61</ele>
        <time>2016-01-28T09:16:32Z</time>
      </trkpt>
      <trkpt lat="44.50922" lon="6.29686">
        <ele>895.61</ele>
        <time>2016-01-28T09:16:48Z</time>
      </trkpt>
      <trkpt lat="44.5092" lon="6.29689">
        <ele>895.61</ele>
        <time>2016-01-28T09:16:51Z</time>
      </trkpt>
      <trkpt lat="44.50919" lon="6.29692">
        <ele>895.12</ele>
        <time>2016-01-28T09:16:53Z</time>
      </trkpt>
      <trkpt lat="44.50917" lon="6.29695">
        <ele>896.57</ele>
        <time>2016-01-28T09:16:56Z</time>
      </trkpt>
      <trkpt lat="44.50916" lon="6.29697">
        <ele>895.12</ele>
        <time>2016-01-28T09:16:58Z</time>
      </trkpt>
      <trkpt lat="44.50905" lon="6.29711">
        <ele>894.64</ele>
        <time>2016-01-28T09:17:12Z</time>
      </trkpt>
      <trkpt lat="44.50894" lon="6.29732">
        <ele>893.68</ele>
        <time>2016-01-28T09:17:31Z</time>
      </trkpt>
      <trkpt lat="44.50896" lon="6.29756">
        <ele>892.72</ele>
        <time>2016-01-28T09:17:48Z</time>
      </trkpt>
      <trkpt lat="44.50897" lon="6.29758">
        <ele>893.2</ele>
        <time>2016-01-28T09:17:49Z</time>
      </trkpt>
      <trkpt lat="44.509" lon="6.29764">
        <ele>893.2</ele>
        <time>2016-01-28T09:17:56Z</time>
      </trkpt>
      <trkpt lat="44.50901" lon="6.2977">
        <ele>892.72</ele>
        <time>2016-01-28T09:18:00Z</time>
      </trkpt>
      <trkpt lat="44.50907" lon="6.29789">
        <ele>892.24</ele>
        <time>2016-01-28T09:18:16Z</time>
      </trkpt>
      <trkpt lat="44.5091" lon="6.29803">
        <ele>892.24</ele>
        <time>2016-01-28T09:18:26Z</time>
      </trkpt>
      <trkpt lat="44.5091" lon="6.2982">
        <ele>891.28</ele>
        <time>2016-01-28T09:18:39Z</time>
      </trkpt>
      <trkpt lat="44.50909" lon="6.2983">
        <ele>891.28</ele>
        <time>2016-01-28T09:18:45Z</time>
      </trkpt>
      <trkpt lat="44.50909" lon="6.29833">
        <ele>891.28</ele>
        <time>2016-01-28T09:18:47Z</time>
      </trkpt>
      <trkpt lat="44.50903" lon="6.29856">
        <ele>891.28</ele>
        <time>2016-01-28T09:19:02Z</time>
      </trkpt>
      <trkpt lat="44.50895" lon="6.29872">
        <ele>890.32</ele>
        <time>2016-01-28T09:19:12Z</time>
      </trkpt>
      <trkpt lat="44.50881" lon="6.29889">
        <ele>889.36</ele>
        <time>2016-01-28T09:19:29Z</time>
      </trkpt>
      <trkpt lat="44.50861" lon="6.29898">
        <ele>888.88</ele>
        <time>2016-01-28T09:19:47Z</time>
      </trkpt>
      <trkpt lat="44.5086" lon="6.29898">
        <ele>888.88</ele>
        <time>2016-01-28T09:19:48Z</time>
      </trkpt>
      <trkpt lat="44.50856" lon="6.29899">
        <ele>888.4</ele>
        <time>2016-01-28T09:19:52Z</time>
      </trkpt>
      <trkpt lat="44.50851" lon="6.299">
        <ele>887.91</ele>
        <time>2016-01-28T09:19:57Z</time>
      </trkpt>
      <trkpt lat="44.50848" lon="6.29901">
        <ele>887.91</ele>
        <time>2016-01-28T09:20:00Z</time>
      </trkpt>
      <trkpt lat="44.50839" lon="6.29903">
        <ele>887.43</ele>
        <time>2016-01-28T09:20:09Z</time>
      </trkpt>
      <trkpt lat="44.50833" lon="6.29905">
        <ele>887.43</ele>
        <time>2016-01-28T09:20:15Z</time>
      </trkpt>
      <trkpt lat="44.50821" lon="6.29922">
        <ele>886.95</ele>
        <time>2016-01-28T09:20:31Z</time>
      </trkpt>
      <trkpt lat="44.50815" lon="6.2994">
        <ele>886.47</ele>
        <time>2016-01-28T09:20:44Z</time>
      </trkpt>
      <trkpt lat="44.50812" lon="6.29952">
        <ele>886.47</ele>
        <time>2016-01-28T09:20:52Z</time>
      </trkpt>
      <trkpt lat="44.50805" lon="6.29976">
        <ele>885.99</ele>
        <time>2016-01-28T09:21:09Z</time>
      </trkpt>
      <trkpt lat="44.50794" lon="6.29999">
        <ele>885.99</ele>
        <time>2016-01-28T09:21:26Z</time>
      </trkpt>
      <trkpt lat="44.50792" lon="6.30001">
        <ele>885.99</ele>
        <time>2016-01-28T09:21:39Z</time>
      </trkpt>
      <trkpt lat="44.50788" lon="6.30009">
        <ele>885.99</ele>
        <time>2016-01-28T09:21:54Z</time>
      </trkpt>
      <trkpt lat="44.50775" lon="6.30026">
        <ele>885.03</ele>
        <time>2016-01-28T09:22:10Z</time>
      </trkpt>
      <trkpt lat="44.50766" lon="6.30037">
        <ele>884.55</ele>
        <time>2016-01-28T09:22:21Z</time>
      </trkpt>
      <trkpt lat="44.50754" lon="6.30057">
        <ele>884.55</ele>
        <time>2016-01-28T09:22:39Z</time>
      </trkpt>
      <trkpt lat="44.50746" lon="6.30079">
        <ele>884.07</ele>
        <time>2016-01-28T09:22:56Z</time>
      </trkpt>
      <trkpt lat="44.50737" lon="6.30104">
        <ele>884.07</ele>
        <time>2016-01-28T09:23:15Z</time>
      </trkpt>
      <trkpt lat="44.50726" lon="6.30121">
        <ele>883.59</ele>
        <time>2016-01-28T09:23:30Z</time>
      </trkpt>
      <trkpt lat="44.50725" lon="6.30124">
        <ele>883.59</ele>
        <time>2016-01-28T09:23:32Z</time>
      </trkpt>
      <trkpt lat="44.50721" lon="6.30127">
        <ele>883.11</ele>
        <time>2016-01-28T09:23:36Z</time>
      </trkpt>
      <trkpt lat="44.5071" lon="6.30147">
        <ele>882.15</ele>
        <time>2016-01-28T09:23:53Z</time>
      </trkpt>
      <trkpt lat="44.50703" lon="6.30166">
        <ele>882.15</ele>
        <time>2016-01-28T09:24:07Z</time>
      </trkpt>
      <trkpt lat="44.50702" lon="6.3017">
        <ele>882.15</ele>
        <time>2016-01-28T09:24:10Z</time>
      </trkpt>
      <trkpt lat="44.50692" lon="6.30192">
        <ele>881.67</ele>
        <time>2016-01-28T09:24:27Z</time>
      </trkpt>
      <trkpt lat="44.50688" lon="6.30198">
        <ele>881.67</ele>
        <time>2016-01-28T09:24:32Z</time>
      </trkpt>
      <trkpt lat="44.50683" lon="6.30204">
        <ele>881.67</ele>
        <time>2016-01-28T09:24:39Z</time>
      </trkpt>
      <trkpt lat="44.50669" lon="6.30216">
        <ele>880.71</ele>
        <time>2016-01-28T09:24:53Z</time>
      </trkpt>
      <trkpt lat="44.50667" lon="6.30219">
        <ele>880.71</ele>
        <time>2016-01-28T09:24:56Z</time>
      </trkpt>
      <trkpt lat="44.50664" lon="6.30221">
        <ele>880.71</ele>
        <time>2016-01-28T09:24:59Z</time>
      </trkpt>
      <trkpt lat="44.50659" lon="6.30225">
        <ele>880.71</ele>
        <time>2016-01-28T09:25:04Z</time>
      </trkpt>
      <trkpt lat="44.50656" lon="6.30228">
        <ele>880.22</ele>
        <time>2016-01-28T09:25:07Z</time>
      </trkpt>
      <trkpt lat="44.50639" lon="6.30245">
        <ele>880.22</ele>
        <time>2016-01-28T09:25:26Z</time>
      </trkpt>
      <trkpt lat="44.50637" lon="6.30249">
        <ele>880.22</ele>
        <time>2016-01-28T09:25:29Z</time>
      </trkpt>
      <trkpt lat="44.50631" lon="6.30254">
        <ele>879.74</ele>
        <time>2016-01-28T09:25:35Z</time>
      </trkpt>
      <trkpt lat="44.50613" lon="6.30266">
        <ele>879.74</ele>
        <time>2016-01-28T09:25:53Z</time>
      </trkpt>
      <trkpt lat="44.50611" lon="6.30267">
        <ele>879.26</ele>
        <time>2016-01-28T09:25:58Z</time>
      </trkpt>
      <trkpt lat="44.50603" lon="6.30274">
        <ele>879.26</ele>
        <time>2016-01-28T09:26:06Z</time>
      </trkpt>
      <trkpt lat="44.50598" lon="6.30277">
        <ele>878.78</ele>
        <time>2016-01-28T09:26:11Z</time>
      </trkpt>
      <trkpt lat="44.50594" lon="6.3028">
        <ele>879.26</ele>
        <time>2016-01-28T09:26:15Z</time>
      </trkpt>
      <trkpt lat="44.50583" lon="6.30288">
        <ele>878.78</ele>
        <time>2016-01-28T09:26:25Z</time>
      </trkpt>
      <trkpt lat="44.50567" lon="6.30294">
        <ele>878.3</ele>
        <time>2016-01-28T09:26:40Z</time>
      </trkpt>
      <trkpt lat="44.50559" lon="6.30297">
        <ele>878.3</ele>
        <time>2016-01-28T09:26:54Z</time>
      </trkpt>
      <trkpt lat="44.50558" lon="6.30298">
        <ele>878.3</ele>
        <time>2016-01-28T09:27:15Z</time>
      </trkpt>
      <trkpt lat="44.50558" lon="6.30294">
        <ele>878.3</ele>
        <time>2016-01-28T09:27:32Z</time>
      </trkpt>
      <trkpt lat="44.50558" lon="6.30289">
        <ele>877.82</ele>
        <time>2016-01-28T09:27:43Z</time>
      </trkpt>
      <trkpt lat="44.50554" lon="6.30287">
        <ele>879.26</ele>
        <time>2016-01-28T09:27:54Z</time>
      </trkpt>
      <trkpt lat="44.50547" lon="6.30291">
        <ele>881.67</ele>
        <time>2016-01-28T09:28:07Z</time>
      </trkpt>
      <trkpt lat="44.50548" lon="6.3028">
        <ele>882.63</ele>
        <time>2016-01-28T09:28:20Z</time>
      </trkpt>
      <trkpt lat="44.50551" lon="6.30273">
        <ele>884.55</ele>
        <time>2016-01-28T09:28:32Z</time>
      </trkpt>
      <trkpt lat="44.50555" lon="6.30264">
        <ele>886.95</ele>
        <time>2016-01-28T09:28:47Z</time>
      </trkpt>
      <trkpt lat="44.50553" lon="6.30254">
        <ele>888.4</ele>
        <time>2016-01-28T09:29:02Z</time>
      </trkpt>
      <trkpt lat="44.50546" lon="6.30256">
        <ele>890.32</ele>
        <time>2016-01-28T09:29:14Z</time>
      </trkpt>
      <trkpt lat="44.50544" lon="6.30258">
        <ele>891.28</ele>
        <time>2016-01-28T09:29:19Z</time>
      </trkpt>
      <trkpt lat="44.50537" lon="6.30258">
        <ele>891.76</ele>
        <time>2016-01-28T09:29:27Z</time>
      </trkpt>
      <trkpt lat="44.5053" lon="6.30248">
        <ele>892.72</ele>
        <time>2016-01-28T09:29:39Z</time>
      </trkpt>
      <trkpt lat="44.50523" lon="6.3024">
        <ele>895.12</ele>
        <time>2016-01-28T09:29:53Z</time>
      </trkpt>
      <trkpt lat="44.50515" lon="6.30231">
        <ele>896.57</ele>
        <time>2016-01-28T09:30:06Z</time>
      </trkpt>
      <trkpt lat="44.50513" lon="6.3022">
        <ele>898.49</ele>
        <time>2016-01-28T09:30:18Z</time>
      </trkpt>
      <trkpt lat="44.50515" lon="6.30211">
        <ele>899.93</ele>
        <time>2016-01-28T09:30:29Z</time>
      </trkpt>
      <trkpt lat="44.50518" lon="6.30204">
        <ele>901.37</ele>
        <time>2016-01-28T09:30:42Z</time>
      </trkpt>
      <trkpt lat="44.50521" lon="6.30196">
        <ele>903.3</ele>
        <time>2016-01-28T09:30:55Z</time>
      </trkpt>
      <trkpt lat="44.50525" lon="6.30192">
        <ele>904.26</ele>
        <time>2016-01-28T09:31:08Z</time>
      </trkpt>
      <trkpt lat="44.50529" lon="6.30188">
        <ele>906.18</ele>
        <time>2016-01-28T09:31:21Z</time>
      </trkpt>
      <trkpt lat="44.50534" lon="6.30189">
        <ele>907.62</ele>
        <time>2016-01-28T09:31:32Z</time>
      </trkpt>
      <trkpt lat="44.50538" lon="6.30184">
        <ele>909.54</ele>
        <time>2016-01-28T09:31:42Z</time>
      </trkpt>
      <trkpt lat="44.5054" lon="6.30174">
        <ele>910.51</ele>
        <time>2016-01-28T09:31:56Z</time>
      </trkpt>
      <trkpt lat="44.50538" lon="6.30169">
        <ele>911.47</ele>
        <time>2016-01-28T09:32:02Z</time>
      </trkpt>
      <trkpt lat="44.50531" lon="6.30159">
        <ele>912.91</ele>
        <time>2016-01-28T09:32:17Z</time>
      </trkpt>
      <trkpt lat="44.50529" lon="6.30147">
        <ele>915.31</ele>
        <time>2016-01-28T09:32:32Z</time>
      </trkpt>
      <trkpt lat="44.50529" lon="6.30137">
        <ele>916.75</ele>
        <time>2016-01-28T09:32:44Z</time>
      </trkpt>
      <trkpt lat="44.50532" lon="6.30127">
        <ele>918.68</ele>
        <time>2016-01-28T09:32:57Z</time>
      </trkpt>
      <trkpt lat="44.50539" lon="6.30123">
        <ele>921.08</ele>
        <time>2016-01-28T09:33:12Z</time>
      </trkpt>
      <trkpt lat="44.50546" lon="6.30118">
        <ele>922.04</ele>
        <time>2016-01-28T09:33:24Z</time>
      </trkpt>
      <trkpt lat="44.50554" lon="6.30114">
        <ele>923.48</ele>
        <time>2016-01-28T09:33:36Z</time>
      </trkpt>
      <trkpt lat="44.50549" lon="6.3011">
        <ele>924.93</ele>
        <time>2016-01-28T09:33:48Z</time>
      </trkpt>
      <trkpt lat="44.50542" lon="6.30108">
        <ele>925.89</ele>
        <time>2016-01-28T09:34:00Z</time>
      </trkpt>
      <trkpt lat="44.50537" lon="6.30103">
        <ele>927.33</ele>
        <time>2016-01-28T09:34:11Z</time>
      </trkpt>
      <trkpt lat="44.50536" lon="6.30102">
        <ele>927.33</ele>
        <time>2016-01-28T09:34:12Z</time>
      </trkpt>
      <trkpt lat="44.50527" lon="6.30096">
        <ele>929.25</ele>
        <time>2016-01-28T09:34:27Z</time>
      </trkpt>
      <trkpt lat="44.50521" lon="6.30095">
        <ele>930.69</ele>
        <time>2016-01-28T09:34:38Z</time>
      </trkpt>
      <trkpt lat="44.5051" lon="6.30094">
        <ele>932.14</ele>
        <time>2016-01-28T09:34:51Z</time>
      </trkpt>
      <trkpt lat="44.50508" lon="6.30092">
        <ele>932.62</ele>
        <time>2016-01-28T09:34:53Z</time>
      </trkpt>
      <trkpt lat="44.50501" lon="6.30078">
        <ele>934.06</ele>
        <time>2016-01-28T09:35:08Z</time>
      </trkpt>
      <trkpt lat="44.50496" lon="6.30066">
        <ele>935.98</ele>
        <time>2016-01-28T09:35:22Z</time>
      </trkpt>
      <trkpt lat="44.50492" lon="6.30056">
        <ele>936.46</ele>
        <time>2016-01-28T09:35:33Z</time>
      </trkpt>
      <trkpt lat="44.50487" lon="6.30054">
        <ele>937.42</ele>
        <time>2016-01-28T09:35:42Z</time>
      </trkpt>
      <trkpt lat="44.50477" lon="6.30054">
        <ele>938.86</ele>
        <time>2016-01-28T09:35:56Z</time>
      </trkpt>
      <trkpt lat="44.50468" lon="6.30053">
        <ele>940.31</ele>
        <time>2016-01-28T09:36:08Z</time>
      </trkpt>
      <trkpt lat="44.50458" lon="6.30056">
        <ele>941.75</ele>
        <time>2016-01-28T09:36:22Z</time>
      </trkpt>
      <trkpt lat="44.5045" lon="6.30058">
        <ele>943.67</ele>
        <time>2016-01-28T09:36:37Z</time>
      </trkpt>
      <trkpt lat="44.50442" lon="6.30057">
        <ele>945.11</ele>
        <time>2016-01-28T09:36:51Z</time>
      </trkpt>
      <trkpt lat="44.50433" lon="6.30055">
        <ele>947.04</ele>
        <time>2016-01-28T09:37:04Z</time>
      </trkpt>
      <trkpt lat="44.50425" lon="6.30048">
        <ele>948.96</ele>
        <time>2016-01-28T09:37:18Z</time>
      </trkpt>
      <trkpt lat="44.50417" lon="6.30041">
        <ele>950.4</ele>
        <time>2016-01-28T09:37:35Z</time>
      </trkpt>
      <trkpt lat="44.50411" lon="6.30034">
        <ele>951.84</ele>
        <time>2016-01-28T09:37:49Z</time>
      </trkpt>
      <trkpt lat="44.50405" lon="6.30027">
        <ele>953.28</ele>
        <time>2016-01-28T09:38:01Z</time>
      </trkpt>
      <trkpt lat="44.50396" lon="6.30025">
        <ele>954.25</ele>
        <time>2016-01-28T09:38:13Z</time>
      </trkpt>
      <trkpt lat="44.50387" lon="6.30019">
        <ele>956.17</ele>
        <time>2016-01-28T09:38:26Z</time>
      </trkpt>
      <trkpt lat="44.50382" lon="6.30012">
        <ele>958.09</ele>
        <time>2016-01-28T09:38:40Z</time>
      </trkpt>
      <trkpt lat="44.50377" lon="6.30005">
        <ele>959.53</ele>
        <time>2016-01-28T09:38:52Z</time>
      </trkpt>
      <trkpt lat="44.50374" lon="6.29995">
        <ele>961.46</ele>
        <time>2016-01-28T09:39:06Z</time>
      </trkpt>
      <trkpt lat="44.5037" lon="6.2999">
        <ele>962.9</ele>
        <time>2016-01-28T09:39:18Z</time>
      </trkpt>
      <trkpt lat="44.50368" lon="6.29983">
        <ele>964.34</ele>
        <time>2016-01-28T09:39:31Z</time>
      </trkpt>
      <trkpt lat="44.50361" lon="6.29977">
        <ele>965.78</ele>
        <time>2016-01-28T09:39:45Z</time>
      </trkpt>
      <trkpt lat="44.50355" lon="6.29972">
        <ele>967.7</ele>
        <time>2016-01-28T09:40:01Z</time>
      </trkpt>
      <trkpt lat="44.50352" lon="6.29968">
        <ele>969.15</ele>
        <time>2016-01-28T09:40:12Z</time>
      </trkpt>
      <trkpt lat="44.50348" lon="6.29958">
        <ele>970.11</ele>
        <time>2016-01-28T09:40:26Z</time>
      </trkpt>
      <trkpt lat="44.50347" lon="6.29955">
        <ele>971.07</ele>
        <time>2016-01-28T09:40:41Z</time>
      </trkpt>
      <trkpt lat="44.50339" lon="6.2995">
        <ele>972.99</ele>
        <time>2016-01-28T09:40:56Z</time>
      </trkpt>
      <trkpt lat="44.5033" lon="6.29946">
        <ele>973.95</ele>
        <time>2016-01-28T09:41:09Z</time>
      </trkpt>
      <trkpt lat="44.50324" lon="6.29936">
        <ele>975.39</ele>
        <time>2016-01-28T09:41:21Z</time>
      </trkpt>
      <trkpt lat="44.50318" lon="6.29919">
        <ele>976.84</ele>
        <time>2016-01-28T09:41:36Z</time>
      </trkpt>
      <trkpt lat="44.50318" lon="6.29903">
        <ele>978.76</ele>
        <time>2016-01-28T09:41:51Z</time>
      </trkpt>
      <trkpt lat="44.5032" lon="6.29887">
        <ele>980.68</ele>
        <time>2016-01-28T09:42:06Z</time>
      </trkpt>
      <trkpt lat="44.50322" lon="6.29877">
        <ele>982.12</ele>
        <time>2016-01-28T09:42:18Z</time>
      </trkpt>
      <trkpt lat="44.50325" lon="6.29867">
        <ele>983.57</ele>
        <time>2016-01-28T09:42:30Z</time>
      </trkpt>
      <trkpt lat="44.50329" lon="6.29855">
        <ele>985.01</ele>
        <time>2016-01-28T09:42:44Z</time>
      </trkpt>
      <trkpt lat="44.50335" lon="6.29852">
        <ele>986.45</ele>
        <time>2016-01-28T09:42:57Z</time>
      </trkpt>
      <trkpt lat="44.5034" lon="6.29849">
        <ele>987.89</ele>
        <time>2016-01-28T09:43:08Z</time>
      </trkpt>
      <trkpt lat="44.50347" lon="6.29852">
        <ele>988.85</ele>
        <time>2016-01-28T09:43:21Z</time>
      </trkpt>
      <trkpt lat="44.50347" lon="6.29849">
        <ele>988.85</ele>
        <time>2016-01-28T09:43:37Z</time>
      </trkpt>
      <trkpt lat="44.50349" lon="6.29849">
        <ele>987.41</ele>
        <time>2016-01-28T09:43:59Z</time>
      </trkpt>
      <trkpt lat="44.50348" lon="6.2985">
        <ele>987.41</ele>
        <time>2016-01-28T09:44:37Z</time>
      </trkpt>
      <trkpt lat="44.50346" lon="6.29849">
        <ele>987.41</ele>
        <time>2016-01-28T09:45:16Z</time>
      </trkpt>
      <trkpt lat="44.50342" lon="6.2985">
        <ele>987.41</ele>
        <time>2016-01-28T09:45:51Z</time>
      </trkpt>
      <trkpt lat="44.50345" lon="6.29851">
        <ele>987.41</ele>
        <time>2016-01-28T09:46:17Z</time>
      </trkpt>
      <trkpt lat="44.50345" lon="6.29853">
        <ele>986.93</ele>
        <time>2016-01-28T09:46:34Z</time>
      </trkpt>
      <trkpt lat="44.50344" lon="6.29856">
        <ele>987.89</ele>
        <time>2016-01-28T09:46:46Z</time>
      </trkpt>
      <trkpt lat="44.50343" lon="6.29854">
        <ele>987.89</ele>
        <time>2016-01-28T09:47:03Z</time>
      </trkpt>
      <trkpt lat="44.50344" lon="6.29851">
        <ele>987.89</ele>
        <time>2016-01-28T09:47:23Z</time>
      </trkpt>
      <trkpt lat="44.50344" lon="6.29852">
        <ele>987.89</ele>
        <time>2016-01-28T09:47:40Z</time>
      </trkpt>
      <trkpt lat="44.50344" lon="6.29853">
        <ele>987.89</ele>
        <time>2016-01-28T09:48:04Z</time>
      </trkpt>
      <trkpt lat="44.50343" lon="6.29852">
        <ele>987.89</ele>
        <time>2016-01-28T09:48:22Z</time>
      </trkpt>
      <trkpt lat="44.50343" lon="6.29853">
        <ele>987.41</ele>
        <time>2016-01-28T09:48:43Z</time>
      </trkpt>
      <trkpt lat="44.50342" lon="6.29852">
        <ele>987.89</ele>
        <time>2016-01-28T09:49:08Z</time>
      </trkpt>
      <trkpt lat="44.50343" lon="6.29852">
        <ele>987.41</ele>
        <time>2016-01-28T09:49:32Z</time>
      </trkpt>
      <trkpt lat="44.50343" lon="6.29852">
        <ele>987.41</ele>
        <time>2016-01-28T09:49:56Z</time>
      </trkpt>
      <trkpt lat="44.50343" lon="6.29852">
        <ele>987.41</ele>
        <time>2016-01-28T09:50:18Z</time>
      </trkpt>
      <trkpt lat="44.50342" lon="6.29851">
        <ele>986.93</ele>
        <time>2016-01-28T09:50:37Z</time>
      </trkpt>
      <trkpt lat="44.50342" lon="6.29851">
        <ele>986.93</ele>
        <time>2016-01-28T09:50:58Z</time>
      </trkpt>
      <trkpt lat="44.50343" lon="6.2985">
        <ele>986.93</ele>
        <time>2016-01-28T09:51:23Z</time>
      </trkpt>
      <trkpt lat="44.50343" lon="6.29853">
        <ele>986.93</ele>
        <time>2016-01-28T09:51:48Z</time>
      </trkpt>
      <trkpt lat="44.50342" lon="6.29852">
        <ele>986.93</ele>
        <time>2016-01-28T09:52:10Z</time>
      </trkpt>
      <trkpt lat="44.50343" lon="6.29852">
        <ele>986.45</ele>
        <time>2016-01-28T09:52:29Z</time>
      </trkpt>
      <trkpt lat="44.50342" lon="6.29852">
        <ele>986.45</ele>
        <time>2016-01-28T09:52:50Z</time>
      </trkpt>
      <trkpt lat="44.50342" lon="6.29852">
        <ele>986.45</ele>
        <time>2016-01-28T09:53:15Z</time>
      </trkpt>
      <trkpt lat="44.50344" lon="6.29851">
        <ele>986.45</ele>
        <time>2016-01-28T09:53:52Z</time>
      </trkpt>
      <trkpt lat="44.50343" lon="6.2985">
        <ele>985.97</ele>
        <time>2016-01-28T09:54:11Z</time>
      </trkpt>
      <trkpt lat="44.50342" lon="6.2985">
        <ele>985.97</ele>
        <time>2016-01-28T09:54:34Z</time>
      </trkpt>
      <trkpt lat="44.50342" lon="6.2985">
        <ele>985.97</ele>
        <time>2016-01-28T09:54:58Z</time>
      </trkpt>
      <trkpt lat="44.50343" lon="6.29851">
        <ele>985.97</ele>
        <time>2016-01-28T09:55:16Z</time>
      </trkpt>
      <trkpt lat="44.50349" lon="6.29855">
        <ele>986.93</ele>
        <time>2016-01-28T09:55:34Z</time>
      </trkpt>
      <trkpt lat="44.50357" lon="6.29856">
        <ele>988.37</ele>
        <time>2016-01-28T09:55:48Z</time>
      </trkpt>
      <trkpt lat="44.50365" lon="6.2986">
        <ele>988.85</ele>
        <time>2016-01-28T09:55:59Z</time>
      </trkpt>
      <trkpt lat="44.50373" lon="6.29864">
        <ele>989.81</ele>
        <time>2016-01-28T09:56:14Z</time>
      </trkpt>
      <trkpt lat="44.50374" lon="6.29864">
        <ele>989.81</ele>
        <time>2016-01-28T09:56:31Z</time>
      </trkpt>
      <trkpt lat="44.50375" lon="6.29863">
        <ele>990.3</ele>
        <time>2016-01-28T09:56:48Z</time>
      </trkpt>
      <trkpt lat="44.50375" lon="6.29863">
        <ele>990.3</ele>
        <time>2016-01-28T09:56:58Z</time>
      </trkpt>
      <trkpt lat="44.50375" lon="6.29863">
        <ele>990.3</ele>
        <time>2016-01-28T09:57:13Z</time>
      </trkpt>
      <trkpt lat="44.50377" lon="6.29862">
        <ele>991.26</ele>
        <time>2016-01-28T09:57:29Z</time>
      </trkpt>
      <trkpt lat="44.50381" lon="6.29858">
        <ele>991.74</ele>
        <time>2016-01-28T09:57:40Z</time>
      </trkpt>
      <trkpt lat="44.50381" lon="6.29858">
        <ele>992.22</ele>
        <time>2016-01-28T09:57:55Z</time>
      </trkpt>
      <trkpt lat="44.50382" lon="6.2985">
        <ele>993.66</ele>
        <time>2016-01-28T09:58:10Z</time>
      </trkpt>
      <trkpt lat="44.50383" lon="6.29838">
        <ele>994.62</ele>
        <time>2016-01-28T09:58:24Z</time>
      </trkpt>
      <trkpt lat="44.50388" lon="6.2983">
        <ele>996.06</ele>
        <time>2016-01-28T09:58:35Z</time>
      </trkpt>
      <trkpt lat="44.50389" lon="6.29828">
        <ele>996.06</ele>
        <time>2016-01-28T09:58:37Z</time>
      </trkpt>
      <trkpt lat="44.50392" lon="6.29823">
        <ele>996.54</ele>
        <time>2016-01-28T09:58:42Z</time>
      </trkpt>
      <trkpt lat="44.50394" lon="6.29803">
        <ele>997.02</ele>
        <time>2016-01-28T09:58:57Z</time>
      </trkpt>
      <trkpt lat="44.50394" lon="6.298">
        <ele>997.99</ele>
        <time>2016-01-28T09:59:01Z</time>
      </trkpt>
      <trkpt lat="44.50394" lon="6.29797">
        <ele>997.99</ele>
        <time>2016-01-28T09:59:03Z</time>
      </trkpt>
      <trkpt lat="44.50389" lon="6.29791">
        <ele>998.47</ele>
        <time>2016-01-28T09:59:11Z</time>
      </trkpt>
      <trkpt lat="44.50385" lon="6.29788">
        <ele>998.47</ele>
        <time>2016-01-28T09:59:15Z</time>
      </trkpt>
      <trkpt lat="44.50383" lon="6.29774">
        <ele>999.91</ele>
        <time>2016-01-28T09:59:30Z</time>
      </trkpt>
      <trkpt lat="44.50384" lon="6.29772">
        <ele>1000.39</ele>
        <time>2016-01-28T09:59:41Z</time>
      </trkpt>
      <trkpt lat="44.50386" lon="6.29765">
        <ele>1000.87</ele>
        <time>2016-01-28T10:00:03Z</time>
      </trkpt>
      <trkpt lat="44.50392" lon="6.29753">
        <ele>1002.31</ele>
        <time>2016-01-28T10:00:17Z</time>
      </trkpt>
      <trkpt lat="44.50398" lon="6.2974">
        <ele>1003.27</ele>
        <time>2016-01-28T10:00:30Z</time>
      </trkpt>
      <trkpt lat="44.50402" lon="6.29727">
        <ele>1003.75</ele>
        <time>2016-01-28T10:00:41Z</time>
      </trkpt>
      <trkpt lat="44.50409" lon="6.29716">
        <ele>1004.23</ele>
        <time>2016-01-28T10:00:52Z</time>
      </trkpt>
      <trkpt lat="44.50413" lon="6.29707">
        <ele>1005.2</ele>
        <time>2016-01-28T10:01:04Z</time>
      </trkpt>
      <trkpt lat="44.50418" lon="6.297">
        <ele>1005.68</ele>
        <time>2016-01-28T10:01:12Z</time>
      </trkpt>
      <trkpt lat="44.50417" lon="6.29681">
        <ele>1006.64</ele>
        <time>2016-01-28T10:01:27Z</time>
      </trkpt>
      <trkpt lat="44.50416" lon="6.29664">
        <ele>1007.6</ele>
        <time>2016-01-28T10:01:40Z</time>
      </trkpt>
      <trkpt lat="44.50418" lon="6.29656">
        <ele>1008.56</ele>
        <time>2016-01-28T10:01:46Z</time>
      </trkpt>
      <trkpt lat="44.50418" lon="6.29642">
        <ele>1010</ele>
        <time>2016-01-28T10:01:57Z</time>
      </trkpt>
      <trkpt lat="44.50422" lon="6.29627">
        <ele>1011.93</ele>
        <time>2016-01-28T10:02:10Z</time>
      </trkpt>
      <trkpt lat="44.50423" lon="6.29623">
        <ele>1012.41</ele>
        <time>2016-01-28T10:02:23Z</time>
      </trkpt>
      <trkpt lat="44.50424" lon="6.29618">
        <ele>1012.89</ele>
        <time>2016-01-28T10:02:30Z</time>
      </trkpt>
      <trkpt lat="44.50432" lon="6.29614">
        <ele>1015.29</ele>
        <time>2016-01-28T10:02:43Z</time>
      </trkpt>
      <trkpt lat="44.50438" lon="6.29613">
        <ele>1017.21</ele>
        <time>2016-01-28T10:02:55Z</time>
      </trkpt>
      <trkpt lat="44.50447" lon="6.29615">
        <ele>1018.65</ele>
        <time>2016-01-28T10:03:09Z</time>
      </trkpt>
      <trkpt lat="44.50456" lon="6.29623">
        <ele>1019.13</ele>
        <time>2016-01-28T10:03:22Z</time>
      </trkpt>
      <trkpt lat="44.50459" lon="6.29619">
        <ele>1020.58</ele>
        <time>2016-01-28T10:03:33Z</time>
      </trkpt>
      <trkpt lat="44.50456" lon="6.2961">
        <ele>1022.02</ele>
        <time>2016-01-28T10:03:46Z</time>
      </trkpt>
      <trkpt lat="44.50453" lon="6.29604">
        <ele>1022.98</ele>
        <time>2016-01-28T10:03:53Z</time>
      </trkpt>
      <trkpt lat="44.50451" lon="6.29591">
        <ele>1023.94</ele>
        <time>2016-01-28T10:04:06Z</time>
      </trkpt>
      <trkpt lat="44.50449" lon="6.29583">
        <ele>1024.42</ele>
        <time>2016-01-28T10:04:12Z</time>
      </trkpt>
      <trkpt lat="44.50446" lon="6.29569">
        <ele>1025.38</ele>
        <time>2016-01-28T10:04:25Z</time>
      </trkpt>
      <trkpt lat="44.50446" lon="6.29567">
        <ele>1025.38</ele>
        <time>2016-01-28T10:04:27Z</time>
      </trkpt>
      <trkpt lat="44.5045" lon="6.29554">
        <ele>1026.83</ele>
        <time>2016-01-28T10:04:41Z</time>
      </trkpt>
      <trkpt lat="44.50453" lon="6.29546">
        <ele>1028.75</ele>
        <time>2016-01-28T10:04:53Z</time>
      </trkpt>
      <trkpt lat="44.50455" lon="6.29539">
        <ele>1030.67</ele>
        <time>2016-01-28T10:05:05Z</time>
      </trkpt>
      <trkpt lat="44.50452" lon="6.29533">
        <ele>1032.11</ele>
        <time>2016-01-28T10:05:17Z</time>
      </trkpt>
      <trkpt lat="44.50455" lon="6.29527">
        <ele>1034.04</ele>
        <time>2016-01-28T10:05:31Z</time>
      </trkpt>
      <trkpt lat="44.50457" lon="6.29522">
        <ele>1035.48</ele>
        <time>2016-01-28T10:05:43Z</time>
      </trkpt>
      <trkpt lat="44.50459" lon="6.29515">
        <ele>1036.92</ele>
        <time>2016-01-28T10:05:54Z</time>
      </trkpt>
      <trkpt lat="44.50462" lon="6.2951">
        <ele>1038.36</ele>
        <time>2016-01-28T10:06:04Z</time>
      </trkpt>
      <trkpt lat="44.50465" lon="6.29502">
        <ele>1039.8</ele>
        <time>2016-01-28T10:06:16Z</time>
      </trkpt>
      <trkpt lat="44.50468" lon="6.29493">
        <ele>1041.73</ele>
        <time>2016-01-28T10:06:30Z</time>
      </trkpt>
      <trkpt lat="44.50463" lon="6.29491">
        <ele>1041.73</ele>
        <time>2016-01-28T10:06:36Z</time>
      </trkpt>
      <trkpt lat="44.50455" lon="6.29483">
        <ele>1041.25</ele>
        <time>2016-01-28T10:06:46Z</time>
      </trkpt>
      <trkpt lat="44.50448" lon="6.29464">
        <ele>1043.17</ele>
        <time>2016-01-28T10:07:02Z</time>
      </trkpt>
      <trkpt lat="44.50447" lon="6.29454">
        <ele>1044.13</ele>
        <time>2016-01-28T10:07:14Z</time>
      </trkpt>
      <trkpt lat="44.50447" lon="6.29444">
        <ele>1046.05</ele>
        <time>2016-01-28T10:07:24Z</time>
      </trkpt>
      <trkpt lat="44.50448" lon="6.29431">
        <ele>1046.53</ele>
        <time>2016-01-28T10:07:36Z</time>
      </trkpt>
      <trkpt lat="44.50444" lon="6.29427">
        <ele>1044.61</ele>
        <time>2016-01-28T10:07:49Z</time>
      </trkpt>
      <trkpt lat="44.50442" lon="6.29419">
        <ele>1043.17</ele>
        <time>2016-01-28T10:07:56Z</time>
      </trkpt>
      <trkpt lat="44.5044" lon="6.29418">
        <ele>1042.69</ele>
        <time>2016-01-28T10:07:58Z</time>
      </trkpt>
      <trkpt lat="44.5043" lon="6.29401">
        <ele>1042.69</ele>
        <time>2016-01-28T10:08:13Z</time>
      </trkpt>
      <trkpt lat="44.50425" lon="6.29386">
        <ele>1044.61</ele>
        <time>2016-01-28T10:08:27Z</time>
      </trkpt>
      <trkpt lat="44.50426" lon="6.29382">
        <ele>1045.09</ele>
        <time>2016-01-28T10:08:30Z</time>
      </trkpt>
      <trkpt lat="44.50425" lon="6.2937">
        <ele>1046.05</ele>
        <time>2016-01-28T10:08:45Z</time>
      </trkpt>
      <trkpt lat="44.50428" lon="6.29366">
        <ele>1046.53</ele>
        <time>2016-01-28T10:09:16Z</time>
      </trkpt>
      <trkpt lat="44.50433" lon="6.2936">
        <ele>1047.49</ele>
        <time>2016-01-28T10:09:33Z</time>
      </trkpt>
      <trkpt lat="44.50438" lon="6.29353">
        <ele>1047.97</ele>
        <time>2016-01-28T10:09:42Z</time>
      </trkpt>
      <trkpt lat="44.50447" lon="6.29346">
        <ele>1048.94</ele>
        <time>2016-01-28T10:09:55Z</time>
      </trkpt>
      <trkpt lat="44.50451" lon="6.29342">
        <ele>1049.9</ele>
        <time>2016-01-28T10:10:04Z</time>
      </trkpt>
      <trkpt lat="44.50452" lon="6.29341">
        <ele>1049.9</ele>
        <time>2016-01-28T10:10:06Z</time>
      </trkpt>
      <trkpt lat="44.50453" lon="6.29339">
        <ele>1049.9</ele>
        <time>2016-01-28T10:10:08Z</time>
      </trkpt>
      <trkpt lat="44.50458" lon="6.29333">
        <ele>1050.86</ele>
        <time>2016-01-28T10:10:15Z</time>
      </trkpt>
      <trkpt lat="44.5046" lon="6.29332">
        <ele>1050.86</ele>
        <time>2016-01-28T10:10:17Z</time>
      </trkpt>
      <trkpt lat="44.50462" lon="6.2933">
        <ele>1051.34</ele>
        <time>2016-01-28T10:10:19Z</time>
      </trkpt>
      <trkpt lat="44.50472" lon="6.29324">
        <ele>1051.34</ele>
        <time>2016-01-28T10:10:30Z</time>
      </trkpt>
      <trkpt lat="44.50485" lon="6.29319">
        <ele>1052.78</ele>
        <time>2016-01-28T10:10:45Z</time>
      </trkpt>
      <trkpt lat="44.50496" lon="6.29319">
        <ele>1054.22</ele>
        <time>2016-01-28T10:10:59Z</time>
      </trkpt>
      <trkpt lat="44.50503" lon="6.29326">
        <ele>1056.15</ele>
        <time>2016-01-28T10:11:10Z</time>
      </trkpt>
      <trkpt lat="44.50507" lon="6.29333">
        <ele>1057.59</ele>
        <time>2016-01-28T10:11:22Z</time>
      </trkpt>
      <trkpt lat="44.5051" lon="6.29342">
        <ele>1059.51</ele>
        <time>2016-01-28T10:11:36Z</time>
      </trkpt>
      <trkpt lat="44.50514" lon="6.29338">
        <ele>1060.47</ele>
        <time>2016-01-28T10:11:47Z</time>
      </trkpt>
      <trkpt lat="44.50519" lon="6.29331">
        <ele>1061.43</ele>
        <time>2016-01-28T10:11:59Z</time>
      </trkpt>
      <trkpt lat="44.50525" lon="6.29326">
        <ele>1062.87</ele>
        <time>2016-01-28T10:12:12Z</time>
      </trkpt>
      <trkpt lat="44.50534" lon="6.29326">
        <ele>1064.32</ele>
        <time>2016-01-28T10:12:24Z</time>
      </trkpt>
      <trkpt lat="44.5054" lon="6.29323">
        <ele>1065.28</ele>
        <time>2016-01-28T10:12:35Z</time>
      </trkpt>
      <trkpt lat="44.50548" lon="6.29319">
        <ele>1066.72</ele>
        <time>2016-01-28T10:12:47Z</time>
      </trkpt>
      <trkpt lat="44.50552" lon="6.2931">
        <ele>1068.16</ele>
        <time>2016-01-28T10:12:59Z</time>
      </trkpt>
      <trkpt lat="44.50555" lon="6.29303">
        <ele>1069.6</ele>
        <time>2016-01-28T10:13:08Z</time>
      </trkpt>
      <trkpt lat="44.50557" lon="6.29295">
        <ele>1071.05</ele>
        <time>2016-01-28T10:13:21Z</time>
      </trkpt>
      <trkpt lat="44.50558" lon="6.29289">
        <ele>1072.01</ele>
        <time>2016-01-28T10:13:27Z</time>
      </trkpt>
      <trkpt lat="44.50559" lon="6.29281">
        <ele>1072.97</ele>
        <time>2016-01-28T10:13:40Z</time>
      </trkpt>
      <trkpt lat="44.50562" lon="6.29272">
        <ele>1074.89</ele>
        <time>2016-01-28T10:13:54Z</time>
      </trkpt>
      <trkpt lat="44.50564" lon="6.29264">
        <ele>1076.81</ele>
        <time>2016-01-28T10:14:06Z</time>
      </trkpt>
      <trkpt lat="44.50565" lon="6.29257">
        <ele>1078.26</ele>
        <time>2016-01-28T10:14:18Z</time>
      </trkpt>
      <trkpt lat="44.50567" lon="6.2925">
        <ele>1080.66</ele>
        <time>2016-01-28T10:14:31Z</time>
      </trkpt>
      <trkpt lat="44.50568" lon="6.29244">
        <ele>1082.1</ele>
        <time>2016-01-28T10:14:45Z</time>
      </trkpt>
      <trkpt lat="44.50569" lon="6.29237">
        <ele>1084.02</ele>
        <time>2016-01-28T10:14:57Z</time>
      </trkpt>
      <trkpt lat="44.5057" lon="6.29231">
        <ele>1085.95</ele>
        <time>2016-01-28T10:15:09Z</time>
      </trkpt>
      <trkpt lat="44.50571" lon="6.29223">
        <ele>1087.87</ele>
        <time>2016-01-28T10:15:22Z</time>
      </trkpt>
      <trkpt lat="44.50575" lon="6.29214">
        <ele>1089.79</ele>
        <time>2016-01-28T10:15:34Z</time>
      </trkpt>
      <trkpt lat="44.50581" lon="6.29206">
        <ele>1091.71</ele>
        <time>2016-01-28T10:15:46Z</time>
      </trkpt>
      <trkpt lat="44.50588" lon="6.29196">
        <ele>1092.68</ele>
        <time>2016-01-28T10:16:00Z</time>
      </trkpt>
      <trkpt lat="44.50597" lon="6.29194">
        <ele>1094.12</ele>
        <time>2016-01-28T10:16:13Z</time>
      </trkpt>
      <trkpt lat="44.50603" lon="6.29198">
        <ele>1094.12</ele>
        <time>2016-01-28T10:16:28Z</time>
      </trkpt>
      <trkpt lat="44.50603" lon="6.29199">
        <ele>1094.12</ele>
        <time>2016-01-28T10:16:50Z</time>
      </trkpt>
      <trkpt lat="44.50603" lon="6.29197">
        <ele>1094.12</ele>
        <time>2016-01-28T10:17:06Z</time>
      </trkpt>
      <trkpt lat="44.50604" lon="6.29198">
        <ele>1094.12</ele>
        <time>2016-01-28T10:17:24Z</time>
      </trkpt>
      <trkpt lat="44.50608" lon="6.29194">
        <ele>1094.12</ele>
        <time>2016-01-28T10:17:39Z</time>
      </trkpt>
      <trkpt lat="44.50612" lon="6.29184">
        <ele>1095.56</ele>
        <time>2016-01-28T10:17:51Z</time>
      </trkpt>
      <trkpt lat="44.50616" lon="6.29176">
        <ele>1097</ele>
        <time>2016-01-28T10:18:04Z</time>
      </trkpt>
      <trkpt lat="44.50618" lon="6.29167">
        <ele>1097.96</ele>
        <time>2016-01-28T10:18:16Z</time>
      </trkpt>
      <trkpt lat="44.5062" lon="6.29156">
        <ele>1100.37</ele>
        <time>2016-01-28T10:18:29Z</time>
      </trkpt>
      <trkpt lat="44.50623" lon="6.29147">
        <ele>1102.29</ele>
        <time>2016-01-28T10:18:43Z</time>
      </trkpt>
      <trkpt lat="44.50625" lon="6.2914">
        <ele>1103.25</ele>
        <time>2016-01-28T10:18:50Z</time>
      </trkpt>
      <trkpt lat="44.50628" lon="6.29132">
        <ele>1105.17</ele>
        <time>2016-01-28T10:19:02Z</time>
      </trkpt>
      <trkpt lat="44.50632" lon="6.29122">
        <ele>1106.61</ele>
        <time>2016-01-28T10:19:15Z</time>
      </trkpt>
      <trkpt lat="44.50636" lon="6.29116">
        <ele>1108.06</ele>
        <time>2016-01-28T10:19:23Z</time>
      </trkpt>
      <trkpt lat="44.50644" lon="6.29105">
        <ele>1109.98</ele>
        <time>2016-01-28T10:19:39Z</time>
      </trkpt>
      <trkpt lat="44.5065" lon="6.29096">
        <ele>1111.42</ele>
        <time>2016-01-28T10:19:54Z</time>
      </trkpt>
      <trkpt lat="44.50653" lon="6.29086">
        <ele>1112.38</ele>
        <time>2016-01-28T10:20:06Z</time>
      </trkpt>
      <trkpt lat="44.50657" lon="6.29075">
        <ele>1114.31</ele>
        <time>2016-01-28T10:20:20Z</time>
      </trkpt>
      <trkpt lat="44.5066" lon="6.29064">
        <ele>1115.75</ele>
        <time>2016-01-28T10:20:33Z</time>
      </trkpt>
      <trkpt lat="44.50662" lon="6.29056">
        <ele>1117.19</ele>
        <time>2016-01-28T10:20:41Z</time>
      </trkpt>
      <trkpt lat="44.50663" lon="6.29041">
        <ele>1117.67</ele>
        <time>2016-01-28T10:20:55Z</time>
      </trkpt>
      <trkpt lat="44.50664" lon="6.2904">
        <ele>1118.15</ele>
        <time>2016-01-28T10:20:56Z</time>
      </trkpt>
      <trkpt lat="44.50669" lon="6.29028">
        <ele>1118.63</ele>
        <time>2016-01-28T10:21:11Z</time>
      </trkpt>
      <trkpt lat="44.50671" lon="6.2902">
        <ele>1119.59</ele>
        <time>2016-01-28T10:21:23Z</time>
      </trkpt>
      <trkpt lat="44.50674" lon="6.2901">
        <ele>1121.52</ele>
        <time>2016-01-28T10:21:36Z</time>
      </trkpt>
      <trkpt lat="44.50677" lon="6.29002">
        <ele>1123.44</ele>
        <time>2016-01-28T10:21:48Z</time>
      </trkpt>
      <trkpt lat="44.5068" lon="6.28989">
        <ele>1125.36</ele>
        <time>2016-01-28T10:22:02Z</time>
      </trkpt>
      <trkpt lat="44.50681" lon="6.2898">
        <ele>1127.28</ele>
        <time>2016-01-28T10:22:15Z</time>
      </trkpt>
      <trkpt lat="44.50681" lon="6.28968">
        <ele>1129.69</ele>
        <time>2016-01-28T10:22:30Z</time>
      </trkpt>
      <trkpt lat="44.50683" lon="6.28956">
        <ele>1131.61</ele>
        <time>2016-01-28T10:22:45Z</time>
      </trkpt>
      <trkpt lat="44.50685" lon="6.28947">
        <ele>1133.53</ele>
        <time>2016-01-28T10:22:59Z</time>
      </trkpt>
      <trkpt lat="44.50685" lon="6.28936">
        <ele>1134.97</ele>
        <time>2016-01-28T10:23:12Z</time>
      </trkpt>
      <trkpt lat="44.50689" lon="6.28923">
        <ele>1137.38</ele>
        <time>2016-01-28T10:23:27Z</time>
      </trkpt>
      <trkpt lat="44.5069" lon="6.28908">
        <ele>1138.34</ele>
        <time>2016-01-28T10:23:40Z</time>
      </trkpt>
      <trkpt lat="44.50692" lon="6.28895">
        <ele>1138.34</ele>
        <time>2016-01-28T10:23:50Z</time>
      </trkpt>
      <trkpt lat="44.50693" lon="6.28891">
        <ele>1138.82</ele>
        <time>2016-01-28T10:23:54Z</time>
      </trkpt>
      <trkpt lat="44.50694" lon="6.28877">
        <ele>1140.26</ele>
        <time>2016-01-28T10:24:08Z</time>
      </trkpt>
      <trkpt lat="44.50695" lon="6.28864">
        <ele>1141.22</ele>
        <time>2016-01-28T10:24:22Z</time>
      </trkpt>
      <trkpt lat="44.50696" lon="6.28855">
        <ele>1143.14</ele>
        <time>2016-01-28T10:24:32Z</time>
      </trkpt>
      <trkpt lat="44.50693" lon="6.28846">
        <ele>1142.66</ele>
        <time>2016-01-28T10:24:46Z</time>
      </trkpt>
      <trkpt lat="44.50687" lon="6.28846">
        <ele>1142.18</ele>
        <time>2016-01-28T10:24:59Z</time>
      </trkpt>
      <trkpt lat="44.50692" lon="6.28841">
        <ele>1142.18</ele>
        <time>2016-01-28T10:25:19Z</time>
      </trkpt>
      <trkpt lat="44.50694" lon="6.28842">
        <ele>1142.18</ele>
        <time>2016-01-28T10:25:31Z</time>
      </trkpt>
      <trkpt lat="44.50693" lon="6.28843">
        <ele>1142.18</ele>
        <time>2016-01-28T10:25:52Z</time>
      </trkpt>
      <trkpt lat="44.50694" lon="6.28839">
        <ele>1142.18</ele>
        <time>2016-01-28T10:26:07Z</time>
      </trkpt>
      <trkpt lat="44.50696" lon="6.28839">
        <ele>1142.18</ele>
        <time>2016-01-28T10:26:19Z</time>
      </trkpt>
      <trkpt lat="44.50696" lon="6.2884">
        <ele>1142.18</ele>
        <time>2016-01-28T10:26:42Z</time>
      </trkpt>
      <trkpt lat="44.50696" lon="6.2884">
        <ele>1142.18</ele>
        <time>2016-01-28T10:27:07Z</time>
      </trkpt>
      <trkpt lat="44.50695" lon="6.2884">
        <ele>1142.18</ele>
        <time>2016-01-28T10:27:28Z</time>
      </trkpt>
      <trkpt lat="44.50694" lon="6.28841">
        <ele>1142.18</ele>
        <time>2016-01-28T10:27:54Z</time>
      </trkpt>
      <trkpt lat="44.50693" lon="6.28837">
        <ele>1142.18</ele>
        <time>2016-01-28T10:28:14Z</time>
      </trkpt>
      <trkpt lat="44.50694" lon="6.28829">
        <ele>1141.22</ele>
        <time>2016-01-28T10:28:25Z</time>
      </trkpt>
      <trkpt lat="44.50696" lon="6.28821">
        <ele>1140.26</ele>
        <time>2016-01-28T10:28:41Z</time>
      </trkpt>
      <trkpt lat="44.50695" lon="6.28817">
        <ele>1139.78</ele>
        <time>2016-01-28T10:28:45Z</time>
      </trkpt>
      <trkpt lat="44.50694" lon="6.28806">
        <ele>1138.82</ele>
        <time>2016-01-28T10:29:00Z</time>
      </trkpt>
      <trkpt lat="44.50694" lon="6.288">
        <ele>1138.34</ele>
        <time>2016-01-28T10:29:16Z</time>
      </trkpt>
      <trkpt lat="44.50694" lon="6.28783">
        <ele>1138.34</ele>
        <time>2016-01-28T10:29:29Z</time>
      </trkpt>
      <trkpt lat="44.50696" lon="6.28766">
        <ele>1139.3</ele>
        <time>2016-01-28T10:29:42Z</time>
      </trkpt>
      <trkpt lat="44.50697" lon="6.28755">
        <ele>1140.26</ele>
        <time>2016-01-28T10:29:54Z</time>
      </trkpt>
      <trkpt lat="44.50694" lon="6.28743">
        <ele>1139.3</ele>
        <time>2016-01-28T10:30:06Z</time>
      </trkpt>
      <trkpt lat="44.50694" lon="6.2874">
        <ele>1138.82</ele>
        <time>2016-01-28T10:30:08Z</time>
      </trkpt>
      <trkpt lat="44.5069" lon="6.28728">
        <ele>1137.86</ele>
        <time>2016-01-28T10:30:22Z</time>
      </trkpt>
      <trkpt lat="44.50683" lon="6.28715">
        <ele>1136.42</ele>
        <time>2016-01-28T10:30:34Z</time>
      </trkpt>
      <trkpt lat="44.5068" lon="6.28694">
        <ele>1136.9</ele>
        <time>2016-01-28T10:30:48Z</time>
      </trkpt>
      <trkpt lat="44.50678" lon="6.28681">
        <ele>1137.86</ele>
        <time>2016-01-28T10:30:59Z</time>
      </trkpt>
      <trkpt lat="44.50676" lon="6.28667">
        <ele>1139.3</ele>
        <time>2016-01-28T10:31:13Z</time>
      </trkpt>
      <trkpt lat="44.50682" lon="6.28661">
        <ele>1140.74</ele>
        <time>2016-01-28T10:31:20Z</time>
      </trkpt>
      <trkpt lat="44.50684" lon="6.28656">
        <ele>1141.7</ele>
        <time>2016-01-28T10:31:25Z</time>
      </trkpt>
      <trkpt lat="44.50693" lon="6.28644">
        <ele>1142.18</ele>
        <time>2016-01-28T10:31:39Z</time>
      </trkpt>
      <trkpt lat="44.50694" lon="6.28642">
        <ele>1142.66</ele>
        <time>2016-01-28T10:31:41Z</time>
      </trkpt>
      <trkpt lat="44.507" lon="6.28636">
        <ele>1143.14</ele>
        <time>2016-01-28T10:31:50Z</time>
      </trkpt>
      <trkpt lat="44.50705" lon="6.28632">
        <ele>1144.11</ele>
        <time>2016-01-28T10:31:56Z</time>
      </trkpt>
      <trkpt lat="44.5071" lon="6.28626">
        <ele>1144.59</ele>
        <time>2016-01-28T10:32:04Z</time>
      </trkpt>
      <trkpt lat="44.50716" lon="6.28613">
        <ele>1146.03</ele>
        <time>2016-01-28T10:32:18Z</time>
      </trkpt>
      <trkpt lat="44.50722" lon="6.286">
        <ele>1145.55</ele>
        <time>2016-01-28T10:32:32Z</time>
      </trkpt>
      <trkpt lat="44.50728" lon="6.28591">
        <ele>1144.11</ele>
        <time>2016-01-28T10:32:45Z</time>
      </trkpt>
      <trkpt lat="44.50729" lon="6.28592">
        <ele>1143.63</ele>
        <time>2016-01-28T10:33:05Z</time>
      </trkpt>
      <trkpt lat="44.50729" lon="6.28589">
        <ele>1144.11</ele>
        <time>2016-01-28T10:33:26Z</time>
      </trkpt>
      <trkpt lat="44.50729" lon="6.28584">
        <ele>1142.18</ele>
        <time>2016-01-28T10:33:38Z</time>
      </trkpt>
      <trkpt lat="44.50724" lon="6.2858">
        <ele>1139.78</ele>
        <time>2016-01-28T10:33:51Z</time>
      </trkpt>
      <trkpt lat="44.5073" lon="6.28571">
        <ele>1137.38</ele>
        <time>2016-01-28T10:34:03Z</time>
      </trkpt>
      <trkpt lat="44.50735" lon="6.28563">
        <ele>1135.94</ele>
        <time>2016-01-28T10:34:16Z</time>
      </trkpt>
      <trkpt lat="44.5073" lon="6.28562">
        <ele>1134.01</ele>
        <time>2016-01-28T10:34:29Z</time>
      </trkpt>
      <trkpt lat="44.50729" lon="6.28555">
        <ele>1132.09</ele>
        <time>2016-01-28T10:34:40Z</time>
      </trkpt>
      <trkpt lat="44.50731" lon="6.28554">
        <ele>1131.61</ele>
        <time>2016-01-28T10:34:42Z</time>
      </trkpt>
      <trkpt lat="44.50733" lon="6.28549">
        <ele>1130.17</ele>
        <time>2016-01-28T10:34:55Z</time>
      </trkpt>
      <trkpt lat="44.50732" lon="6.28542">
        <ele>1127.76</ele>
        <time>2016-01-28T10:35:08Z</time>
      </trkpt>
      <trkpt lat="44.50733" lon="6.28536">
        <ele>1125.84</ele>
        <time>2016-01-28T10:35:20Z</time>
      </trkpt>
      <trkpt lat="44.50726" lon="6.28529">
        <ele>1123.92</ele>
        <time>2016-01-28T10:35:33Z</time>
      </trkpt>
      <trkpt lat="44.50726" lon="6.28522">
        <ele>1122</ele>
        <time>2016-01-28T10:35:47Z</time>
      </trkpt>
      <trkpt lat="44.50722" lon="6.28509">
        <ele>1120.07</ele>
        <time>2016-01-28T10:36:01Z</time>
      </trkpt>
      <trkpt lat="44.5072" lon="6.28495">
        <ele>1119.59</ele>
        <time>2016-01-28T10:36:12Z</time>
      </trkpt>
      <trkpt lat="44.50718" lon="6.28487">
        <ele>1119.11</ele>
        <time>2016-01-28T10:36:17Z</time>
      </trkpt>
      <trkpt lat="44.50717" lon="6.2848">
        <ele>1119.11</ele>
        <time>2016-01-28T10:36:21Z</time>
      </trkpt>
      <trkpt lat="44.50715" lon="6.2847">
        <ele>1119.11</ele>
        <time>2016-01-28T10:36:32Z</time>
      </trkpt>
      <trkpt lat="44.50714" lon="6.28469">
        <ele>1118.63</ele>
        <time>2016-01-28T10:36:33Z</time>
      </trkpt>
      <trkpt lat="44.50712" lon="6.28463">
        <ele>1119.11</ele>
        <time>2016-01-28T10:36:37Z</time>
      </trkpt>
      <trkpt lat="44.50709" lon="6.28456">
        <ele>1119.11</ele>
        <time>2016-01-28T10:36:42Z</time>
      </trkpt>
      <trkpt lat="44.50708" lon="6.28454">
        <ele>1118.63</ele>
        <time>2016-01-28T10:36:44Z</time>
      </trkpt>
      <trkpt lat="44.50703" lon="6.28447">
        <ele>1118.63</ele>
        <time>2016-01-28T10:36:51Z</time>
      </trkpt>
      <trkpt lat="44.50692" lon="6.28441">
        <ele>1118.15</ele>
        <time>2016-01-28T10:37:02Z</time>
      </trkpt>
      <trkpt lat="44.50681" lon="6.28434">
        <ele>1117.19</ele>
        <time>2016-01-28T10:37:14Z</time>
      </trkpt>
      <trkpt lat="44.50674" lon="6.28429">
        <ele>1115.75</ele>
        <time>2016-01-28T10:37:24Z</time>
      </trkpt>
      <trkpt lat="44.50674" lon="6.28411">
        <ele>1114.79</ele>
        <time>2016-01-28T10:37:34Z</time>
      </trkpt>
      <trkpt lat="44.5068" lon="6.28393">
        <ele>1115.75</ele>
        <time>2016-01-28T10:37:49Z</time>
      </trkpt>
      <trkpt lat="44.50679" lon="6.28394">
        <ele>1115.75</ele>
        <time>2016-01-28T10:38:00Z</time>
      </trkpt>
      <trkpt lat="44.50678" lon="6.28395">
        <ele>1115.27</ele>
        <time>2016-01-28T10:38:20Z</time>
      </trkpt>
      <trkpt lat="44.50676" lon="6.28395">
        <ele>1115.27</ele>
        <time>2016-01-28T10:38:31Z</time>
      </trkpt>
      <trkpt lat="44.5068" lon="6.28392">
        <ele>1115.75</ele>
        <time>2016-01-28T10:38:46Z</time>
      </trkpt>
      <trkpt lat="44.50682" lon="6.2839">
        <ele>1115.75</ele>
        <time>2016-01-28T10:38:58Z</time>
      </trkpt>
      <trkpt lat="44.50682" lon="6.2839">
        <ele>1116.23</ele>
        <time>2016-01-28T10:39:26Z</time>
      </trkpt>
      <trkpt lat="44.50682" lon="6.28389">
        <ele>1115.75</ele>
        <time>2016-01-28T10:39:42Z</time>
      </trkpt>
      <trkpt lat="44.50683" lon="6.28388">
        <ele>1115.75</ele>
        <time>2016-01-28T10:39:56Z</time>
      </trkpt>
      <trkpt lat="44.50682" lon="6.28388">
        <ele>1116.23</ele>
        <time>2016-01-28T10:40:20Z</time>
      </trkpt>
      <trkpt lat="44.50685" lon="6.2839">
        <ele>1116.23</ele>
        <time>2016-01-28T10:40:37Z</time>
      </trkpt>
      <trkpt lat="44.50684" lon="6.28387">
        <ele>1115.75</ele>
        <time>2016-01-28T10:40:49Z</time>
      </trkpt>
      <trkpt lat="44.50685" lon="6.28386">
        <ele>1116.23</ele>
        <time>2016-01-28T10:41:02Z</time>
      </trkpt>
      <trkpt lat="44.50686" lon="6.28384">
        <ele>1117.19</ele>
        <time>2016-01-28T10:41:14Z</time>
      </trkpt>
      <trkpt lat="44.50688" lon="6.2838">
        <ele>1119.59</ele>
        <time>2016-01-28T10:41:24Z</time>
      </trkpt>
      <trkpt lat="44.50687" lon="6.28378">
        <ele>1121.03</ele>
        <time>2016-01-28T10:41:28Z</time>
      </trkpt>
      <trkpt lat="44.50685" lon="6.28367">
        <ele>1122</ele>
        <time>2016-01-28T10:41:42Z</time>
      </trkpt>
      <trkpt lat="44.50685" lon="6.28363">
        <ele>1122</ele>
        <time>2016-01-28T10:41:45Z</time>
      </trkpt>
      <trkpt lat="44.50681" lon="6.28355">
        <ele>1122.96</ele>
        <time>2016-01-28T10:41:55Z</time>
      </trkpt>
      <trkpt lat="44.50674" lon="6.28342">
        <ele>1123.92</ele>
        <time>2016-01-28T10:42:08Z</time>
      </trkpt>
      <trkpt lat="44.5067" lon="6.28334">
        <ele>1124.4</ele>
        <time>2016-01-28T10:42:16Z</time>
      </trkpt>
      <trkpt lat="44.50666" lon="6.28318">
        <ele>1125.36</ele>
        <time>2016-01-28T10:42:30Z</time>
      </trkpt>
      <trkpt lat="44.5066" lon="6.28308">
        <ele>1126.32</ele>
        <time>2016-01-28T10:42:42Z</time>
      </trkpt>
      <trkpt lat="44.50654" lon="6.28307">
        <ele>1126.8</ele>
        <time>2016-01-28T10:42:50Z</time>
      </trkpt>
      <trkpt lat="44.50651" lon="6.28305">
        <ele>1127.28</ele>
        <time>2016-01-28T10:42:55Z</time>
      </trkpt>
      <trkpt lat="44.50642" lon="6.283">
        <ele>1128.24</ele>
        <time>2016-01-28T10:43:08Z</time>
      </trkpt>
      <trkpt lat="44.50632" lon="6.28303">
        <ele>1129.69</ele>
        <time>2016-01-28T10:43:21Z</time>
      </trkpt>
      <trkpt lat="44.50625" lon="6.28309">
        <ele>1131.13</ele>
        <time>2016-01-28T10:43:33Z</time>
      </trkpt>
      <trkpt lat="44.50618" lon="6.28314">
        <ele>1132.09</ele>
        <time>2016-01-28T10:43:45Z</time>
      </trkpt>
      <trkpt lat="44.5061" lon="6.28319">
        <ele>1133.05</ele>
        <time>2016-01-28T10:43:56Z</time>
      </trkpt>
      <trkpt lat="44.506" lon="6.28323">
        <ele>1134.97</ele>
        <time>2016-01-28T10:44:11Z</time>
      </trkpt>
      <trkpt lat="44.50592" lon="6.28326">
        <ele>1135.45</ele>
        <time>2016-01-28T10:44:23Z</time>
      </trkpt>
      <trkpt lat="44.50583" lon="6.28328">
        <ele>1136.9</ele>
        <time>2016-01-28T10:44:36Z</time>
      </trkpt>
      <trkpt lat="44.50574" lon="6.2833">
        <ele>1138.34</ele>
        <time>2016-01-28T10:44:50Z</time>
      </trkpt>
      <trkpt lat="44.50564" lon="6.2833">
        <ele>1139.3</ele>
        <time>2016-01-28T10:45:03Z</time>
      </trkpt>
      <trkpt lat="44.50554" lon="6.28328">
        <ele>1140.26</ele>
        <time>2016-01-28T10:45:16Z</time>
      </trkpt>
      <trkpt lat="44.50547" lon="6.28325">
        <ele>1141.22</ele>
        <time>2016-01-28T10:45:28Z</time>
      </trkpt>
      <trkpt lat="44.50538" lon="6.28322">
        <ele>1142.18</ele>
        <time>2016-01-28T10:45:41Z</time>
      </trkpt>
      <trkpt lat="44.5053" lon="6.28319">
        <ele>1143.14</ele>
        <time>2016-01-28T10:45:52Z</time>
      </trkpt>
      <trkpt lat="44.50522" lon="6.28315">
        <ele>1144.59</ele>
        <time>2016-01-28T10:46:05Z</time>
      </trkpt>
      <trkpt lat="44.50517" lon="6.28317">
        <ele>1145.07</ele>
        <time>2016-01-28T10:46:17Z</time>
      </trkpt>
      <trkpt lat="44.50515" lon="6.28324">
        <ele>1143.63</ele>
        <time>2016-01-28T10:46:35Z</time>
      </trkpt>
      <trkpt lat="44.50511" lon="6.28331">
        <ele>1142.18</ele>
        <time>2016-01-28T10:46:43Z</time>
      </trkpt>
      <trkpt lat="44.50501" lon="6.28345">
        <ele>1140.26</ele>
        <time>2016-01-28T10:46:58Z</time>
      </trkpt>
      <trkpt lat="44.5049" lon="6.28352">
        <ele>1138.82</ele>
        <time>2016-01-28T10:47:10Z</time>
      </trkpt>
      <trkpt lat="44.50485" lon="6.28353">
        <ele>1137.86</ele>
        <time>2016-01-28T10:47:16Z</time>
      </trkpt>
      <trkpt lat="44.50483" lon="6.28354">
        <ele>1137.38</ele>
        <time>2016-01-28T10:47:18Z</time>
      </trkpt>
      <trkpt lat="44.50472" lon="6.28356">
        <ele>1136.42</ele>
        <time>2016-01-28T10:47:32Z</time>
      </trkpt>
      <trkpt lat="44.50463" lon="6.28361">
        <ele>1134.97</ele>
        <time>2016-01-28T10:47:45Z</time>
      </trkpt>
      <trkpt lat="44.50456" lon="6.28368">
        <ele>1134.01</ele>
        <time>2016-01-28T10:47:55Z</time>
      </trkpt>
      <trkpt lat="44.50448" lon="6.28374">
        <ele>1133.05</ele>
        <time>2016-01-28T10:48:08Z</time>
      </trkpt>
      <trkpt lat="44.5044" lon="6.2838">
        <ele>1131.13</ele>
        <time>2016-01-28T10:48:23Z</time>
      </trkpt>
      <trkpt lat="44.50429" lon="6.28387">
        <ele>1129.69</ele>
        <time>2016-01-28T10:48:37Z</time>
      </trkpt>
      <trkpt lat="44.50427" lon="6.28388">
        <ele>1129.69</ele>
        <time>2016-01-28T10:48:39Z</time>
      </trkpt>
      <trkpt lat="44.50414" lon="6.28381">
        <ele>1128.73</ele>
        <time>2016-01-28T10:48:53Z</time>
      </trkpt>
      <trkpt lat="44.50403" lon="6.28381">
        <ele>1127.28</ele>
        <time>2016-01-28T10:49:06Z</time>
      </trkpt>
      <trkpt lat="44.50395" lon="6.28387">
        <ele>1126.8</ele>
        <time>2016-01-28T10:49:19Z</time>
      </trkpt>
      <trkpt lat="44.50385" lon="6.28393">
        <ele>1124.88</ele>
        <time>2016-01-28T10:49:31Z</time>
      </trkpt>
      <trkpt lat="44.50373" lon="6.28396">
        <ele>1122.96</ele>
        <time>2016-01-28T10:49:45Z</time>
      </trkpt>
      <trkpt lat="44.50363" lon="6.284">
        <ele>1122</ele>
        <time>2016-01-28T10:49:58Z</time>
      </trkpt>
      <trkpt lat="44.50355" lon="6.28398">
        <ele>1122.48</ele>
        <time>2016-01-28T10:50:10Z</time>
      </trkpt>
      <trkpt lat="44.50346" lon="6.28399">
        <ele>1122.48</ele>
        <time>2016-01-28T10:50:25Z</time>
      </trkpt>
      <trkpt lat="44.50332" lon="6.28397">
        <ele>1121.03</ele>
        <time>2016-01-28T10:50:40Z</time>
      </trkpt>
      <trkpt lat="44.50322" lon="6.28398">
        <ele>1120.55</ele>
        <time>2016-01-28T10:50:52Z</time>
      </trkpt>
      <trkpt lat="44.50308" lon="6.28397">
        <ele>1118.63</ele>
        <time>2016-01-28T10:51:08Z</time>
      </trkpt>
      <trkpt lat="44.50307" lon="6.28397">
        <ele>1118.63</ele>
        <time>2016-01-28T10:51:09Z</time>
      </trkpt>
      <trkpt lat="44.50298" lon="6.28407">
        <ele>1117.67</ele>
        <time>2016-01-28T10:51:23Z</time>
      </trkpt>
      <trkpt lat="44.50297" lon="6.28408">
        <ele>1117.19</ele>
        <time>2016-01-28T10:51:24Z</time>
      </trkpt>
      <trkpt lat="44.50292" lon="6.28413">
        <ele>1116.71</ele>
        <time>2016-01-28T10:51:30Z</time>
      </trkpt>
      <trkpt lat="44.50291" lon="6.28414">
        <ele>1116.23</ele>
        <time>2016-01-28T10:51:32Z</time>
      </trkpt>
      <trkpt lat="44.5029" lon="6.28416">
        <ele>1117.19</ele>
        <time>2016-01-28T10:51:34Z</time>
      </trkpt>
      <trkpt lat="44.50276" lon="6.28424">
        <ele>1113.82</ele>
        <time>2016-01-28T10:51:48Z</time>
      </trkpt>
      <trkpt lat="44.50261" lon="6.28425">
        <ele>1112.86</ele>
        <time>2016-01-28T10:52:03Z</time>
      </trkpt>
      <trkpt lat="44.50259" lon="6.28425">
        <ele>1112.38</ele>
        <time>2016-01-28T10:52:05Z</time>
      </trkpt>
      <trkpt lat="44.50257" lon="6.28424">
        <ele>1112.38</ele>
        <time>2016-01-28T10:52:07Z</time>
      </trkpt>
      <trkpt lat="44.50253" lon="6.28425">
        <ele>1111.9</ele>
        <time>2016-01-28T10:52:11Z</time>
      </trkpt>
      <trkpt lat="44.5025" lon="6.28425">
        <ele>1111.9</ele>
        <time>2016-01-28T10:52:14Z</time>
      </trkpt>
      <trkpt lat="44.50238" lon="6.28418">
        <ele>1110.94</ele>
        <time>2016-01-28T10:52:28Z</time>
      </trkpt>
      <trkpt lat="44.50234" lon="6.28415">
        <ele>1109.98</ele>
        <time>2016-01-28T10:52:33Z</time>
      </trkpt>
      <trkpt lat="44.50225" lon="6.28413">
        <ele>1109.02</ele>
        <time>2016-01-28T10:52:46Z</time>
      </trkpt>
      <trkpt lat="44.50217" lon="6.2842">
        <ele>1110.94</ele>
        <time>2016-01-28T10:52:56Z</time>
      </trkpt>
      <trkpt lat="44.50214" lon="6.28422">
        <ele>1110.46</ele>
        <time>2016-01-28T10:52:59Z</time>
      </trkpt>
      <trkpt lat="44.50204" lon="6.28424">
        <ele>1109.02</ele>
        <time>2016-01-28T10:53:10Z</time>
      </trkpt>
      <trkpt lat="44.50193" lon="6.28422">
        <ele>1108.06</ele>
        <time>2016-01-28T10:53:21Z</time>
      </trkpt>
      <trkpt lat="44.50184" lon="6.28421">
        <ele>1107.58</ele>
        <time>2016-01-28T10:53:29Z</time>
      </trkpt>
      <trkpt lat="44.5018" lon="6.2842">
        <ele>1107.58</ele>
        <time>2016-01-28T10:53:33Z</time>
      </trkpt>
      <trkpt lat="44.50166" lon="6.28417">
        <ele>1106.13</ele>
        <time>2016-01-28T10:53:48Z</time>
      </trkpt>
      <trkpt lat="44.50156" lon="6.28415">
        <ele>1107.1</ele>
        <time>2016-01-28T10:54:00Z</time>
      </trkpt>
      <trkpt lat="44.50149" lon="6.28413">
        <ele>1106.61</ele>
        <time>2016-01-28T10:54:11Z</time>
      </trkpt>
      <trkpt lat="44.50146" lon="6.28411">
        <ele>1106.13</ele>
        <time>2016-01-28T10:54:14Z</time>
      </trkpt>
      <trkpt lat="44.50141" lon="6.2841">
        <ele>1105.17</ele>
        <time>2016-01-28T10:54:19Z</time>
      </trkpt>
      <trkpt lat="44.50131" lon="6.28405">
        <ele>1103.73</ele>
        <time>2016-01-28T10:54:29Z</time>
      </trkpt>
      <trkpt lat="44.5012" lon="6.28403">
        <ele>1102.29</ele>
        <time>2016-01-28T10:54:44Z</time>
      </trkpt>
      <trkpt lat="44.50109" lon="6.28401">
        <ele>1100.85</ele>
        <time>2016-01-28T10:54:58Z</time>
      </trkpt>
      <trkpt lat="44.50099" lon="6.28394">
        <ele>1100.37</ele>
        <time>2016-01-28T10:55:11Z</time>
      </trkpt>
      <trkpt lat="44.50087" lon="6.28391">
        <ele>1100.37</ele>
        <time>2016-01-28T10:55:24Z</time>
      </trkpt>
      <trkpt lat="44.50075" lon="6.28395">
        <ele>1099.89</ele>
        <time>2016-01-28T10:55:37Z</time>
      </trkpt>
      <trkpt lat="44.50069" lon="6.28397">
        <ele>1098.92</ele>
        <time>2016-01-28T10:55:52Z</time>
      </trkpt>
      <trkpt lat="44.50065" lon="6.28396">
        <ele>1098.44</ele>
        <time>2016-01-28T10:55:57Z</time>
      </trkpt>
      <trkpt lat="44.50058" lon="6.28396">
        <ele>1097.96</ele>
        <time>2016-01-28T10:56:03Z</time>
      </trkpt>
      <trkpt lat="44.50049" lon="6.28396">
        <ele>1097</ele>
        <time>2016-01-28T10:56:11Z</time>
      </trkpt>
      <trkpt lat="44.50032" lon="6.28388">
        <ele>1096.04</ele>
        <time>2016-01-28T10:56:27Z</time>
      </trkpt>
      <trkpt lat="44.50026" lon="6.28382">
        <ele>1096.04</ele>
        <time>2016-01-28T10:56:35Z</time>
      </trkpt>
      <trkpt lat="44.50019" lon="6.28376">
        <ele>1096.04</ele>
        <time>2016-01-28T10:56:47Z</time>
      </trkpt>
      <trkpt lat="44.50012" lon="6.28372">
        <ele>1094.12</ele>
        <time>2016-01-28T10:56:57Z</time>
      </trkpt>
      <trkpt lat="44.50003" lon="6.28376">
        <ele>1094.12</ele>
        <time>2016-01-28T10:57:06Z</time>
      </trkpt>
      <trkpt lat="44.49989" lon="6.28367">
        <ele>1093.16</ele>
        <time>2016-01-28T10:57:22Z</time>
      </trkpt>
      <trkpt lat="44.49986" lon="6.28368">
        <ele>1093.16</ele>
        <time>2016-01-28T10:57:28Z</time>
      </trkpt>
      <trkpt lat="44.49979" lon="6.28375">
        <ele>1093.16</ele>
        <time>2016-01-28T10:57:42Z</time>
      </trkpt>
      <trkpt lat="44.4997" lon="6.28373">
        <ele>1092.2</ele>
        <time>2016-01-28T10:57:58Z</time>
      </trkpt>
      <trkpt lat="44.49964" lon="6.28364">
        <ele>1092.2</ele>
        <time>2016-01-28T10:58:07Z</time>
      </trkpt>
      <trkpt lat="44.4996" lon="6.28355">
        <ele>1091.23</ele>
        <time>2016-01-28T10:58:14Z</time>
      </trkpt>
      <trkpt lat="44.4995" lon="6.28353">
        <ele>1091.23</ele>
        <time>2016-01-28T10:58:26Z</time>
      </trkpt>
      <trkpt lat="44.49945" lon="6.28355">
        <ele>1091.23</ele>
        <time>2016-01-28T10:58:31Z</time>
      </trkpt>
      <trkpt lat="44.49933" lon="6.28353">
        <ele>1091.23</ele>
        <time>2016-01-28T10:58:41Z</time>
      </trkpt>
      <trkpt lat="44.49925" lon="6.28338">
        <ele>1089.79</ele>
        <time>2016-01-28T10:58:55Z</time>
      </trkpt>
      <trkpt lat="44.49924" lon="6.28336">
        <ele>1089.79</ele>
        <time>2016-01-28T10:58:57Z</time>
      </trkpt>
      <trkpt lat="44.49912" lon="6.28339">
        <ele>1089.31</ele>
        <time>2016-01-28T10:59:10Z</time>
      </trkpt>
      <trkpt lat="44.49911" lon="6.28338">
        <ele>1088.83</ele>
        <time>2016-01-28T10:59:12Z</time>
      </trkpt>
      <trkpt lat="44.49909" lon="6.28337">
        <ele>1088.35</ele>
        <time>2016-01-28T10:59:14Z</time>
      </trkpt>
      <trkpt lat="44.49904" lon="6.28338">
        <ele>1087.87</ele>
        <time>2016-01-28T10:59:19Z</time>
      </trkpt>
      <trkpt lat="44.49899" lon="6.28342">
        <ele>1086.91</ele>
        <time>2016-01-28T10:59:25Z</time>
      </trkpt>
      <trkpt lat="44.49891" lon="6.28347">
        <ele>1085.47</ele>
        <time>2016-01-28T10:59:35Z</time>
      </trkpt>
      <trkpt lat="44.49884" lon="6.28343">
        <ele>1084.02</ele>
        <time>2016-01-28T10:59:43Z</time>
      </trkpt>
      <trkpt lat="44.4988" lon="6.28342">
        <ele>1084.02</ele>
        <time>2016-01-28T10:59:49Z</time>
      </trkpt>
      <trkpt lat="44.49875" lon="6.28341">
        <ele>1083.54</ele>
        <time>2016-01-28T10:59:54Z</time>
      </trkpt>
      <trkpt lat="44.49868" lon="6.28343">
        <ele>1083.06</ele>
        <time>2016-01-28T11:00:01Z</time>
      </trkpt>
      <trkpt lat="44.49866" lon="6.28342">
        <ele>1082.58</ele>
        <time>2016-01-28T11:00:03Z</time>
      </trkpt>
      <trkpt lat="44.49862" lon="6.2834">
        <ele>1082.1</ele>
        <time>2016-01-28T11:00:08Z</time>
      </trkpt>
      <trkpt lat="44.49854" lon="6.2833">
        <ele>1080.66</ele>
        <time>2016-01-28T11:00:22Z</time>
      </trkpt>
      <trkpt lat="44.49847" lon="6.28322">
        <ele>1079.22</ele>
        <time>2016-01-28T11:00:35Z</time>
      </trkpt>
      <trkpt lat="44.49841" lon="6.28327">
        <ele>1077.78</ele>
        <time>2016-01-28T11:00:47Z</time>
      </trkpt>
      <trkpt lat="44.4984" lon="6.28328">
        <ele>1077.78</ele>
        <time>2016-01-28T11:00:48Z</time>
      </trkpt>
      <trkpt lat="44.49827" lon="6.28329">
        <ele>1074.89</ele>
        <time>2016-01-28T11:01:02Z</time>
      </trkpt>
      <trkpt lat="44.49821" lon="6.28326">
        <ele>1072.97</ele>
        <time>2016-01-28T11:01:11Z</time>
      </trkpt>
      <trkpt lat="44.4981" lon="6.28333">
        <ele>1072.01</ele>
        <time>2016-01-28T11:01:27Z</time>
      </trkpt>
      <trkpt lat="44.49807" lon="6.28343">
        <ele>1071.05</ele>
        <time>2016-01-28T11:01:41Z</time>
      </trkpt>
      <trkpt lat="44.49802" lon="6.28353">
        <ele>1069.6</ele>
        <time>2016-01-28T11:01:51Z</time>
      </trkpt>
      <trkpt lat="44.4979" lon="6.28357">
        <ele>1067.68</ele>
        <time>2016-01-28T11:02:05Z</time>
      </trkpt>
      <trkpt lat="44.49781" lon="6.28359">
        <ele>1066.72</ele>
        <time>2016-01-28T11:02:18Z</time>
      </trkpt>
      <trkpt lat="44.49767" lon="6.28371">
        <ele>1064.8</ele>
        <time>2016-01-28T11:02:34Z</time>
      </trkpt>
      <trkpt lat="44.49756" lon="6.28378">
        <ele>1062.87</ele>
        <time>2016-01-28T11:02:45Z</time>
      </trkpt>
      <trkpt lat="44.49754" lon="6.2838">
        <ele>1062.39</ele>
        <time>2016-01-28T11:02:48Z</time>
      </trkpt>
      <trkpt lat="44.49752" lon="6.28381">
        <ele>1061.91</ele>
        <time>2016-01-28T11:02:50Z</time>
      </trkpt>
      <trkpt lat="44.49748" lon="6.28383">
        <ele>1060.95</ele>
        <time>2016-01-28T11:02:55Z</time>
      </trkpt>
      <trkpt lat="44.49742" lon="6.2838">
        <ele>1059.51</ele>
        <time>2016-01-28T11:03:01Z</time>
      </trkpt>
      <trkpt lat="44.49733" lon="6.28379">
        <ele>1057.59</ele>
        <time>2016-01-28T11:03:14Z</time>
      </trkpt>
      <trkpt lat="44.49724" lon="6.28382">
        <ele>1055.67</ele>
        <time>2016-01-28T11:03:28Z</time>
      </trkpt>
      <trkpt lat="44.49714" lon="6.28381">
        <ele>1052.78</ele>
        <time>2016-01-28T11:03:42Z</time>
      </trkpt>
      <trkpt lat="44.49706" lon="6.28382">
        <ele>1050.86</ele>
        <time>2016-01-28T11:03:54Z</time>
      </trkpt>
      <trkpt lat="44.49704" lon="6.28382">
        <ele>1050.38</ele>
        <time>2016-01-28T11:03:56Z</time>
      </trkpt>
      <trkpt lat="44.497" lon="6.28381">
        <ele>1049.42</ele>
        <time>2016-01-28T11:04:02Z</time>
      </trkpt>
      <trkpt lat="44.49697" lon="6.28379">
        <ele>1048.94</ele>
        <time>2016-01-28T11:04:05Z</time>
      </trkpt>
      <trkpt lat="44.49687" lon="6.28382">
        <ele>1047.97</ele>
        <time>2016-01-28T11:04:19Z</time>
      </trkpt>
      <trkpt lat="44.4968" lon="6.284">
        <ele>1046.05</ele>
        <time>2016-01-28T11:04:35Z</time>
      </trkpt>
      <trkpt lat="44.49674" lon="6.28408">
        <ele>1044.61</ele>
        <time>2016-01-28T11:04:48Z</time>
      </trkpt>
      <trkpt lat="44.49664" lon="6.28419">
        <ele>1043.65</ele>
        <time>2016-01-28T11:05:02Z</time>
      </trkpt>
      <trkpt lat="44.49655" lon="6.28423">
        <ele>1044.61</ele>
        <time>2016-01-28T11:05:16Z</time>
      </trkpt>
      <trkpt lat="44.49652" lon="6.28423">
        <ele>1045.09</ele>
        <time>2016-01-28T11:05:20Z</time>
      </trkpt>
      <trkpt lat="44.49641" lon="6.28424">
        <ele>1044.61</ele>
        <time>2016-01-28T11:05:34Z</time>
      </trkpt>
      <trkpt lat="44.49638" lon="6.2842">
        <ele>1044.13</ele>
        <time>2016-01-28T11:05:47Z</time>
      </trkpt>
      <trkpt lat="44.49636" lon="6.28416">
        <ele>1043.65</ele>
        <time>2016-01-28T11:05:52Z</time>
      </trkpt>
      <trkpt lat="44.49634" lon="6.28408">
        <ele>1042.69</ele>
        <time>2016-01-28T11:05:58Z</time>
      </trkpt>
      <trkpt lat="44.49624" lon="6.28395">
        <ele>1041.25</ele>
        <time>2016-01-28T11:06:13Z</time>
      </trkpt>
      <trkpt lat="44.49619" lon="6.28388">
        <ele>1040.76</ele>
        <time>2016-01-28T11:06:24Z</time>
      </trkpt>
      <trkpt lat="44.49611" lon="6.28384">
        <ele>1039.32</ele>
        <time>2016-01-28T11:06:37Z</time>
      </trkpt>
      <trkpt lat="44.49609" lon="6.28385">
        <ele>1038.84</ele>
        <time>2016-01-28T11:06:52Z</time>
      </trkpt>
      <trkpt lat="44.49608" lon="6.28381">
        <ele>1038.84</ele>
        <time>2016-01-28T11:07:15Z</time>
      </trkpt>
      <trkpt lat="44.49607" lon="6.28379">
        <ele>1038.84</ele>
        <time>2016-01-28T11:07:28Z</time>
      </trkpt>
      <trkpt lat="44.49605" lon="6.28372">
        <ele>1039.32</ele>
        <time>2016-01-28T11:07:47Z</time>
      </trkpt>
      <trkpt lat="44.49601" lon="6.28366">
        <ele>1039.32</ele>
        <time>2016-01-28T11:08:00Z</time>
      </trkpt>
      <trkpt lat="44.496" lon="6.28363">
        <ele>1039.32</ele>
        <time>2016-01-28T11:08:15Z</time>
      </trkpt>
      <trkpt lat="44.49599" lon="6.28364">
        <ele>1039.32</ele>
        <time>2016-01-28T11:08:36Z</time>
      </trkpt>
      <trkpt lat="44.49599" lon="6.28365">
        <ele>1039.32</ele>
        <time>2016-01-28T11:08:59Z</time>
      </trkpt>
      <trkpt lat="44.49608" lon="6.28375">
        <ele>1039.32</ele>
        <time>2016-01-28T11:09:14Z</time>
      </trkpt>
      <trkpt lat="44.49602" lon="6.2838">
        <ele>1037.4</ele>
        <time>2016-01-28T11:09:26Z</time>
      </trkpt>
      <trkpt lat="44.49604" lon="6.28382">
        <ele>1036.92</ele>
        <time>2016-01-28T11:09:29Z</time>
      </trkpt>
      <trkpt lat="44.49614" lon="6.28401">
        <ele>1036.92</ele>
        <time>2016-01-28T11:09:45Z</time>
      </trkpt>
      <trkpt lat="44.49621" lon="6.28409">
        <ele>1036.92</ele>
        <time>2016-01-28T11:09:54Z</time>
      </trkpt>
      <trkpt lat="44.4962" lon="6.28417">
        <ele>1036.44</ele>
        <time>2016-01-28T11:09:59Z</time>
      </trkpt>
      <trkpt lat="44.49621" lon="6.28439">
        <ele>1035.96</ele>
        <time>2016-01-28T11:10:12Z</time>
      </trkpt>
      <trkpt lat="44.49626" lon="6.28455">
        <ele>1035.48</ele>
        <time>2016-01-28T11:10:24Z</time>
      </trkpt>
      <trkpt lat="44.49627" lon="6.28473">
        <ele>1034.52</ele>
        <time>2016-01-28T11:10:35Z</time>
      </trkpt>
      <trkpt lat="44.49624" lon="6.28483">
        <ele>1034.04</ele>
        <time>2016-01-28T11:10:42Z</time>
      </trkpt>
      <trkpt lat="44.49621" lon="6.28485">
        <ele>1034.04</ele>
        <time>2016-01-28T11:10:45Z</time>
      </trkpt>
      <trkpt lat="44.49602" lon="6.28494">
        <ele>1032.59</ele>
        <time>2016-01-28T11:11:02Z</time>
      </trkpt>
      <trkpt lat="44.49589" lon="6.28497">
        <ele>1031.15</ele>
        <time>2016-01-28T11:11:15Z</time>
      </trkpt>
      <trkpt lat="44.4957" lon="6.28495">
        <ele>1029.71</ele>
        <time>2016-01-28T11:11:31Z</time>
      </trkpt>
      <trkpt lat="44.49558" lon="6.2849">
        <ele>1028.75</ele>
        <time>2016-01-28T11:11:42Z</time>
      </trkpt>
      <trkpt lat="44.49548" lon="6.28493">
        <ele>1027.79</ele>
        <time>2016-01-28T11:11:52Z</time>
      </trkpt>
      <trkpt lat="44.49547" lon="6.28496">
        <ele>1027.79</ele>
        <time>2016-01-28T11:11:55Z</time>
      </trkpt>
      <trkpt lat="44.49544" lon="6.28499">
        <ele>1027.79</ele>
        <time>2016-01-28T11:11:58Z</time>
      </trkpt>
      <trkpt lat="44.49538" lon="6.28506">
        <ele>1027.79</ele>
        <time>2016-01-28T11:12:05Z</time>
      </trkpt>
      <trkpt lat="44.49537" lon="6.28508">
        <ele>1027.79</ele>
        <time>2016-01-28T11:12:07Z</time>
      </trkpt>
      <trkpt lat="44.49534" lon="6.28512">
        <ele>1027.79</ele>
        <time>2016-01-28T11:12:11Z</time>
      </trkpt>
      <trkpt lat="44.49533" lon="6.28514">
        <ele>1027.79</ele>
        <time>2016-01-28T11:12:13Z</time>
      </trkpt>
      <trkpt lat="44.49528" lon="6.28518">
        <ele>1027.79</ele>
        <time>2016-01-28T11:12:18Z</time>
      </trkpt>
      <trkpt lat="44.49523" lon="6.28523">
        <ele>1027.79</ele>
        <time>2016-01-28T11:12:23Z</time>
      </trkpt>
      <trkpt lat="44.4951" lon="6.28538">
        <ele>1027.31</ele>
        <time>2016-01-28T11:12:39Z</time>
      </trkpt>
      <trkpt lat="44.49499" lon="6.28557">
        <ele>1027.31</ele>
        <time>2016-01-28T11:12:55Z</time>
      </trkpt>
      <trkpt lat="44.49494" lon="6.28573">
        <ele>1027.31</ele>
        <time>2016-01-28T11:13:10Z</time>
      </trkpt>
      <trkpt lat="44.495" lon="6.28577">
        <ele>1030.19</ele>
        <time>2016-01-28T11:13:22Z</time>
      </trkpt>
      <trkpt lat="44.495" lon="6.28589">
        <ele>1030.67</ele>
        <time>2016-01-28T11:13:33Z</time>
      </trkpt>
      <trkpt lat="44.495" lon="6.2859">
        <ele>1030.67</ele>
        <time>2016-01-28T11:13:34Z</time>
      </trkpt>
      <trkpt lat="44.49499" lon="6.28598">
        <ele>1030.19</ele>
        <time>2016-01-28T11:13:48Z</time>
      </trkpt>
      <trkpt lat="44.49501" lon="6.28601">
        <ele>1030.19</ele>
        <time>2016-01-28T11:13:56Z</time>
      </trkpt>
      <trkpt lat="44.49499" lon="6.28613">
        <ele>1028.75</ele>
        <time>2016-01-28T11:14:05Z</time>
      </trkpt>
      <trkpt lat="44.49498" lon="6.28621">
        <ele>1027.79</ele>
        <time>2016-01-28T11:14:10Z</time>
      </trkpt>
      <trkpt lat="44.49498" lon="6.28628">
        <ele>1027.31</ele>
        <time>2016-01-28T11:14:15Z</time>
      </trkpt>
      <trkpt lat="44.49499" lon="6.2864">
        <ele>1026.34</ele>
        <time>2016-01-28T11:14:27Z</time>
      </trkpt>
      <trkpt lat="44.49494" lon="6.28638">
        <ele>1026.34</ele>
        <time>2016-01-28T11:14:39Z</time>
      </trkpt>
      <trkpt lat="44.49496" lon="6.28636">
        <ele>1025.86</ele>
        <time>2016-01-28T11:14:52Z</time>
      </trkpt>
      <trkpt lat="44.49495" lon="6.28639">
        <ele>1025.86</ele>
        <time>2016-01-28T11:15:04Z</time>
      </trkpt>
      <trkpt lat="44.49495" lon="6.28637">
        <ele>1025.38</ele>
        <time>2016-01-28T11:15:23Z</time>
      </trkpt>
      <trkpt lat="44.49492" lon="6.28636">
        <ele>1024.9</ele>
        <time>2016-01-28T11:15:52Z</time>
      </trkpt>
      <trkpt lat="44.49494" lon="6.28637">
        <ele>1024.9</ele>
        <time>2016-01-28T11:16:27Z</time>
      </trkpt>
      <trkpt lat="44.49494" lon="6.28638">
        <ele>1024.9</ele>
        <time>2016-01-28T11:16:41Z</time>
      </trkpt>
      <trkpt lat="44.49495" lon="6.28637">
        <ele>1024.9</ele>
        <time>2016-01-28T11:17:01Z</time>
      </trkpt>
      <trkpt lat="44.49496" lon="6.28639">
        <ele>1024.9</ele>
        <time>2016-01-28T11:17:25Z</time>
      </trkpt>
      <trkpt lat="44.49493" lon="6.28638">
        <ele>1024.9</ele>
        <time>2016-01-28T11:17:41Z</time>
      </trkpt>
      <trkpt lat="44.49493" lon="6.28638">
        <ele>1024.9</ele>
        <time>2016-01-28T11:18:12Z</time>
      </trkpt>
      <trkpt lat="44.49492" lon="6.28639">
        <ele>1024.9</ele>
        <time>2016-01-28T11:18:48Z</time>
      </trkpt>
      <trkpt lat="44.49493" lon="6.28639">
        <ele>1024.9</ele>
        <time>2016-01-28T11:19:17Z</time>
      </trkpt>
      <trkpt lat="44.49493" lon="6.28638">
        <ele>1024.9</ele>
        <time>2016-01-28T11:20:00Z</time>
      </trkpt>
      <trkpt lat="44.49492" lon="6.28638">
        <ele>1024.9</ele>
        <time>2016-01-28T11:20:34Z</time>
      </trkpt>
      <trkpt lat="44.49493" lon="6.28638">
        <ele>1024.9</ele>
        <time>2016-01-28T11:21:02Z</time>
      </trkpt>
      <trkpt lat="44.49492" lon="6.2864">
        <ele>1024.42</ele>
        <time>2016-01-28T11:21:32Z</time>
      </trkpt>
      <trkpt lat="44.49492" lon="6.28639">
        <ele>1024.42</ele>
        <time>2016-01-28T11:21:47Z</time>
      </trkpt>
      <trkpt lat="44.49494" lon="6.28641">
        <ele>1024.42</ele>
        <time>2016-01-28T11:22:29Z</time>
      </trkpt>
      <trkpt lat="44.49494" lon="6.28639">
        <ele>1024.42</ele>
        <time>2016-01-28T11:23:06Z</time>
      </trkpt>
      <trkpt lat="44.49496" lon="6.2864">
        <ele>1024.9</ele>
        <time>2016-01-28T11:23:52Z</time>
      </trkpt>
      <trkpt lat="44.49494" lon="6.28641">
        <ele>1024.9</ele>
        <time>2016-01-28T11:24:33Z</time>
      </trkpt>
      <trkpt lat="44.49494" lon="6.2864">
        <ele>1024.9</ele>
        <time>2016-01-28T11:25:13Z</time>
      </trkpt>
      <trkpt lat="44.49495" lon="6.2864">
        <ele>1026.34</ele>
        <time>2016-01-28T11:25:51Z</time>
      </trkpt>
      <trkpt lat="44.49492" lon="6.28642">
        <ele>1024.9</ele>
        <time>2016-01-28T11:26:38Z</time>
      </trkpt>
      <trkpt lat="44.49492" lon="6.28641">
        <ele>1024.9</ele>
        <time>2016-01-28T11:27:19Z</time>
      </trkpt>
      <trkpt lat="44.49491" lon="6.28641">
        <ele>1024.9</ele>
        <time>2016-01-28T11:28:05Z</time>
      </trkpt>
      <trkpt lat="44.49491" lon="6.28642">
        <ele>1024.9</ele>
        <time>2016-01-28T11:28:43Z</time>
      </trkpt>
      <trkpt lat="44.49494" lon="6.28642">
        <ele>1024.42</ele>
        <time>2016-01-28T11:29:28Z</time>
      </trkpt>
      <trkpt lat="44.49494" lon="6.28642">
        <ele>1024.9</ele>
        <time>2016-01-28T11:30:05Z</time>
      </trkpt>
      <trkpt lat="44.49493" lon="6.28642">
        <ele>1025.38</ele>
        <time>2016-01-28T11:30:45Z</time>
      </trkpt>
      <trkpt lat="44.49491" lon="6.2864">
        <ele>1025.38</ele>
        <time>2016-01-28T11:31:29Z</time>
      </trkpt>
      <trkpt lat="44.49493" lon="6.2864">
        <ele>1024.9</ele>
        <time>2016-01-28T11:32:08Z</time>
      </trkpt>
      <trkpt lat="44.49491" lon="6.28643">
        <ele>1024.9</ele>
        <time>2016-01-28T11:32:52Z</time>
      </trkpt>
      <trkpt lat="44.49491" lon="6.28637">
        <ele>1025.38</ele>
        <time>2016-01-28T11:33:29Z</time>
      </trkpt>
      <trkpt lat="44.49494" lon="6.2864">
        <ele>1025.38</ele>
        <time>2016-01-28T11:34:11Z</time>
      </trkpt>
      <trkpt lat="44.49491" lon="6.28639">
        <ele>1024.9</ele>
        <time>2016-01-28T11:34:41Z</time>
      </trkpt>
      <trkpt lat="44.49491" lon="6.28641">
        <ele>1025.38</ele>
        <time>2016-01-28T11:35:28Z</time>
      </trkpt>
      <trkpt lat="44.49493" lon="6.28641">
        <ele>1025.38</ele>
        <time>2016-01-28T11:35:54Z</time>
      </trkpt>
      <trkpt lat="44.49493" lon="6.28643">
        <ele>1025.86</ele>
        <time>2016-01-28T11:36:27Z</time>
      </trkpt>
      <trkpt lat="44.49493" lon="6.28641">
        <ele>1025.86</ele>
        <time>2016-01-28T11:37:08Z</time>
      </trkpt>
      <trkpt lat="44.49493" lon="6.28643">
        <ele>1025.38</ele>
        <time>2016-01-28T11:37:55Z</time>
      </trkpt>
      <trkpt lat="44.49492" lon="6.2864">
        <ele>1025.86</ele>
        <time>2016-01-28T11:38:31Z</time>
      </trkpt>
      <trkpt lat="44.49494" lon="6.28636">
        <ele>1025.38</ele>
        <time>2016-01-28T11:38:59Z</time>
      </trkpt>
      <trkpt lat="44.49494" lon="6.28635">
        <ele>1025.38</ele>
        <time>2016-01-28T11:39:21Z</time>
      </trkpt>
      <trkpt lat="44.49494" lon="6.28635">
        <ele>1025.38</ele>
        <time>2016-01-28T11:39:49Z</time>
      </trkpt>
      <trkpt lat="44.49494" lon="6.28638">
        <ele>1025.38</ele>
        <time>2016-01-28T11:40:16Z</time>
      </trkpt>
      <trkpt lat="44.49494" lon="6.2864">
        <ele>1025.38</ele>
        <time>2016-01-28T11:40:52Z</time>
      </trkpt>
      <trkpt lat="44.49494" lon="6.28638">
        <ele>1025.38</ele>
        <time>2016-01-28T11:41:22Z</time>
      </trkpt>
      <trkpt lat="44.49494" lon="6.28638">
        <ele>1025.38</ele>
        <time>2016-01-28T11:41:50Z</time>
      </trkpt>
      <trkpt lat="44.49493" lon="6.28638">
        <ele>1025.38</ele>
        <time>2016-01-28T11:42:22Z</time>
      </trkpt>
      <trkpt lat="44.49493" lon="6.28638">
        <ele>1025.38</ele>
        <time>2016-01-28T11:42:52Z</time>
      </trkpt>
      <trkpt lat="44.49493" lon="6.28638">
        <ele>1025.38</ele>
        <time>2016-01-28T11:43:14Z</time>
      </trkpt>
      <trkpt lat="44.49494" lon="6.28637">
        <ele>1025.38</ele>
        <time>2016-01-28T11:43:41Z</time>
      </trkpt>
      <trkpt lat="44.49493" lon="6.28637">
        <ele>1025.38</ele>
        <time>2016-01-28T11:44:14Z</time>
      </trkpt>
      <trkpt lat="44.49494" lon="6.28637">
        <ele>1024.9</ele>
        <time>2016-01-28T11:44:44Z</time>
      </trkpt>
      <trkpt lat="44.49494" lon="6.28637">
        <ele>1024.9</ele>
        <time>2016-01-28T11:45:12Z</time>
      </trkpt>
      <trkpt lat="44.49494" lon="6.28636">
        <ele>1024.9</ele>
        <time>2016-01-28T11:45:38Z</time>
      </trkpt>
      <trkpt lat="44.49495" lon="6.28636">
        <ele>1024.9</ele>
        <time>2016-01-28T11:46:10Z</time>
      </trkpt>
      <trkpt lat="44.49493" lon="6.28636">
        <ele>1024.9</ele>
        <time>2016-01-28T11:46:44Z</time>
      </trkpt>
      <trkpt lat="44.49493" lon="6.28634">
        <ele>1024.9</ele>
        <time>2016-01-28T11:47:10Z</time>
      </trkpt>
      <trkpt lat="44.49495" lon="6.28635">
        <ele>1024.9</ele>
        <time>2016-01-28T11:47:47Z</time>
      </trkpt>
      <trkpt lat="44.49495" lon="6.28635">
        <ele>1025.38</ele>
        <time>2016-01-28T11:48:17Z</time>
      </trkpt>
      <trkpt lat="44.49494" lon="6.28637">
        <ele>1025.38</ele>
        <time>2016-01-28T11:48:47Z</time>
      </trkpt>
      <trkpt lat="44.49494" lon="6.28636">
        <ele>1025.38</ele>
        <time>2016-01-28T11:49:21Z</time>
      </trkpt>
      <trkpt lat="44.49495" lon="6.28635">
        <ele>1025.38</ele>
        <time>2016-01-28T11:49:49Z</time>
      </trkpt>
      <trkpt lat="44.49494" lon="6.28636">
        <ele>1025.38</ele>
        <time>2016-01-28T11:50:25Z</time>
      </trkpt>
      <trkpt lat="44.49494" lon="6.28637">
        <ele>1025.38</ele>
        <time>2016-01-28T11:50:55Z</time>
      </trkpt>
      <trkpt lat="44.49493" lon="6.28635">
        <ele>1025.86</ele>
        <time>2016-01-28T11:51:35Z</time>
      </trkpt>
      <trkpt lat="44.49494" lon="6.28636">
        <ele>1025.86</ele>
        <time>2016-01-28T11:52:13Z</time>
      </trkpt>
      <trkpt lat="44.49494" lon="6.28635">
        <ele>1025.38</ele>
        <time>2016-01-28T11:52:53Z</time>
      </trkpt>
      <trkpt lat="44.49494" lon="6.28637">
        <ele>1025.38</ele>
        <time>2016-01-28T11:53:21Z</time>
      </trkpt>
      <trkpt lat="44.49493" lon="6.28637">
        <ele>1025.38</ele>
        <time>2016-01-28T11:53:59Z</time>
      </trkpt>
      <trkpt lat="44.49494" lon="6.28635">
        <ele>1025.38</ele>
        <time>2016-01-28T11:54:31Z</time>
      </trkpt>
      <trkpt lat="44.49494" lon="6.28636">
        <ele>1025.38</ele>
        <time>2016-01-28T11:55:08Z</time>
      </trkpt>
      <trkpt lat="44.49495" lon="6.28635">
        <ele>1025.38</ele>
        <time>2016-01-28T11:55:49Z</time>
      </trkpt>
      <trkpt lat="44.49495" lon="6.28634">
        <ele>1025.38</ele>
        <time>2016-01-28T11:56:19Z</time>
      </trkpt>
      <trkpt lat="44.49495" lon="6.28635">
        <ele>1025.38</ele>
        <time>2016-01-28T11:56:59Z</time>
      </trkpt>
      <trkpt lat="44.49494" lon="6.28635">
        <ele>1025.38</ele>
        <time>2016-01-28T11:57:37Z</time>
      </trkpt>
      <trkpt lat="44.49495" lon="6.28637">
        <ele>1025.38</ele>
        <time>2016-01-28T11:58:13Z</time>
      </trkpt>
      <trkpt lat="44.49494" lon="6.28637">
        <ele>1025.38</ele>
        <time>2016-01-28T11:58:44Z</time>
      </trkpt>
      <trkpt lat="44.49495" lon="6.28636">
        <ele>1024.9</ele>
        <time>2016-01-28T11:59:35Z</time>
      </trkpt>
      <trkpt lat="44.49495" lon="6.28634">
        <ele>1024.9</ele>
        <time>2016-01-28T12:00:29Z</time>
      </trkpt>
      <trkpt lat="44.49494" lon="6.28634">
        <ele>1024.9</ele>
        <time>2016-01-28T12:01:02Z</time>
      </trkpt>
      <trkpt lat="44.49495" lon="6.28636">
        <ele>1024.9</ele>
        <time>2016-01-28T12:01:43Z</time>
      </trkpt>
      <trkpt lat="44.49496" lon="6.28635">
        <ele>1025.38</ele>
        <time>2016-01-28T12:02:24Z</time>
      </trkpt>
      <trkpt lat="44.49494" lon="6.28637">
        <ele>1024.9</ele>
        <time>2016-01-28T12:03:02Z</time>
      </trkpt>
      <trkpt lat="44.49495" lon="6.28636">
        <ele>1024.9</ele>
        <time>2016-01-28T12:03:42Z</time>
      </trkpt>
      <trkpt lat="44.49494" lon="6.28637">
        <ele>1025.38</ele>
        <time>2016-01-28T12:04:14Z</time>
      </trkpt>
      <trkpt lat="44.49494" lon="6.28635">
        <ele>1024.9</ele>
        <time>2016-01-28T12:04:47Z</time>
      </trkpt>
      <trkpt lat="44.49495" lon="6.28635">
        <ele>1024.9</ele>
        <time>2016-01-28T12:05:39Z</time>
      </trkpt>
      <trkpt lat="44.49495" lon="6.28636">
        <ele>1025.86</ele>
        <time>2016-01-28T12:06:14Z</time>
      </trkpt>
      <trkpt lat="44.49495" lon="6.28637">
        <ele>1024.9</ele>
        <time>2016-01-28T12:06:49Z</time>
      </trkpt>
      <trkpt lat="44.49495" lon="6.28636">
        <ele>1024.9</ele>
        <time>2016-01-28T12:07:27Z</time>
      </trkpt>
      <trkpt lat="44.49494" lon="6.28635">
        <ele>1024.9</ele>
        <time>2016-01-28T12:08:05Z</time>
      </trkpt>
      <trkpt lat="44.49496" lon="6.28637">
        <ele>1024.9</ele>
        <time>2016-01-28T12:08:37Z</time>
      </trkpt>
      <trkpt lat="44.49495" lon="6.28635">
        <ele>1024.9</ele>
        <time>2016-01-28T12:09:07Z</time>
      </trkpt>
      <trkpt lat="44.49495" lon="6.28635">
        <ele>1024.9</ele>
        <time>2016-01-28T12:09:38Z</time>
      </trkpt>
      <trkpt lat="44.49494" lon="6.28636">
        <ele>1025.38</ele>
        <time>2016-01-28T12:10:13Z</time>
      </trkpt>
      <trkpt lat="44.49495" lon="6.28636">
        <ele>1025.38</ele>
        <time>2016-01-28T12:10:46Z</time>
      </trkpt>
      <trkpt lat="44.49495" lon="6.28635">
        <ele>1025.38</ele>
        <time>2016-01-28T12:11:23Z</time>
      </trkpt>
      <trkpt lat="44.49495" lon="6.28637">
        <ele>1025.38</ele>
        <time>2016-01-28T12:12:01Z</time>
      </trkpt>
      <trkpt lat="44.49494" lon="6.28635">
        <ele>1025.38</ele>
        <time>2016-01-28T12:12:27Z</time>
      </trkpt>
      <trkpt lat="44.49493" lon="6.28636">
        <ele>1025.38</ele>
        <time>2016-01-28T12:12:50Z</time>
      </trkpt>
      <trkpt lat="44.49494" lon="6.2864">
        <ele>1025.38</ele>
        <time>2016-01-28T12:13:11Z</time>
      </trkpt>
      <trkpt lat="44.49497" lon="6.28637">
        <ele>1025.38</ele>
        <time>2016-01-28T12:13:30Z</time>
      </trkpt>
      <trkpt lat="44.49498" lon="6.28637">
        <ele>1025.38</ele>
        <time>2016-01-28T12:14:09Z</time>
      </trkpt>
      <trkpt lat="44.49495" lon="6.28637">
        <ele>1025.38</ele>
        <time>2016-01-28T12:14:31Z</time>
      </trkpt>
      <trkpt lat="44.49496" lon="6.28637">
        <ele>1025.38</ele>
        <time>2016-01-28T12:14:59Z</time>
      </trkpt>
      <trkpt lat="44.49496" lon="6.28637">
        <ele>1025.38</ele>
        <time>2016-01-28T12:15:35Z</time>
      </trkpt>
      <trkpt lat="44.49496" lon="6.28637">
        <ele>1025.38</ele>
        <time>2016-01-28T12:16:01Z</time>
      </trkpt>
      <trkpt lat="44.49496" lon="6.28637">
        <ele>1025.86</ele>
        <time>2016-01-28T12:16:22Z</time>
      </trkpt>
      <trkpt lat="44.49496" lon="6.28637">
        <ele>1026.83</ele>
        <time>2016-01-28T12:16:34Z</time>
      </trkpt>
      <trkpt lat="44.49496" lon="6.28636">
        <ele>1026.83</ele>
        <time>2016-01-28T12:16:53Z</time>
      </trkpt>
      <trkpt lat="44.49495" lon="6.28632">
        <ele>1027.79</ele>
        <time>2016-01-28T12:17:05Z</time>
      </trkpt>
      <trkpt lat="44.49496" lon="6.28621">
        <ele>1028.27</ele>
        <time>2016-01-28T12:17:19Z</time>
      </trkpt>
      <trkpt lat="44.49496" lon="6.28611">
        <ele>1029.23</ele>
        <time>2016-01-28T12:17:30Z</time>
      </trkpt>
      <trkpt lat="44.49496" lon="6.28605">
        <ele>1029.71</ele>
        <time>2016-01-28T12:17:39Z</time>
      </trkpt>
      <trkpt lat="44.49494" lon="6.28601">
        <ele>1029.23</ele>
        <time>2016-01-28T12:17:44Z</time>
      </trkpt>
      <trkpt lat="44.49494" lon="6.28579">
        <ele>1029.23</ele>
        <time>2016-01-28T12:18:00Z</time>
      </trkpt>
      <trkpt lat="44.49491" lon="6.2857">
        <ele>1027.79</ele>
        <time>2016-01-28T12:18:12Z</time>
      </trkpt>
      <trkpt lat="44.49488" lon="6.28575">
        <ele>1027.79</ele>
        <time>2016-01-28T12:18:27Z</time>
      </trkpt>
      <trkpt lat="44.49487" lon="6.28577">
        <ele>1028.27</ele>
        <time>2016-01-28T12:18:29Z</time>
      </trkpt>
      <trkpt lat="44.4948" lon="6.28583">
        <ele>1027.31</ele>
        <time>2016-01-28T12:18:37Z</time>
      </trkpt>
      <trkpt lat="44.49469" lon="6.28594">
        <ele>1027.31</ele>
        <time>2016-01-28T12:18:50Z</time>
      </trkpt>
      <trkpt lat="44.49465" lon="6.28601">
        <ele>1026.83</ele>
        <time>2016-01-28T12:18:57Z</time>
      </trkpt>
      <trkpt lat="44.49462" lon="6.28604">
        <ele>1026.83</ele>
        <time>2016-01-28T12:19:01Z</time>
      </trkpt>
      <trkpt lat="44.49457" lon="6.2861">
        <ele>1026.34</ele>
        <time>2016-01-28T12:19:08Z</time>
      </trkpt>
      <trkpt lat="44.49456" lon="6.28611">
        <ele>1026.34</ele>
        <time>2016-01-28T12:19:10Z</time>
      </trkpt>
      <trkpt lat="44.49444" lon="6.28625">
        <ele>1025.38</ele>
        <time>2016-01-28T12:19:26Z</time>
      </trkpt>
      <trkpt lat="44.49437" lon="6.28633">
        <ele>1024.9</ele>
        <time>2016-01-28T12:19:36Z</time>
      </trkpt>
      <trkpt lat="44.4943" lon="6.28643">
        <ele>1023.94</ele>
        <time>2016-01-28T12:19:49Z</time>
      </trkpt>
      <trkpt lat="44.4942" lon="6.28655">
        <ele>1023.46</ele>
        <time>2016-01-28T12:20:02Z</time>
      </trkpt>
      <trkpt lat="44.49418" lon="6.28658">
        <ele>1023.46</ele>
        <time>2016-01-28T12:20:05Z</time>
      </trkpt>
      <trkpt lat="44.49414" lon="6.28663">
        <ele>1022.98</ele>
        <time>2016-01-28T12:20:11Z</time>
      </trkpt>
      <trkpt lat="44.4941" lon="6.28668">
        <ele>1022.5</ele>
        <time>2016-01-28T12:20:17Z</time>
      </trkpt>
      <trkpt lat="44.494" lon="6.28683">
        <ele>1021.06</ele>
        <time>2016-01-28T12:20:32Z</time>
      </trkpt>
      <trkpt lat="44.49388" lon="6.28696">
        <ele>1019.62</ele>
        <time>2016-01-28T12:20:48Z</time>
      </trkpt>
      <trkpt lat="44.49377" lon="6.2871">
        <ele>1018.65</ele>
        <time>2016-01-28T12:21:03Z</time>
      </trkpt>
      <trkpt lat="44.49369" lon="6.28723">
        <ele>1017.21</ele>
        <time>2016-01-28T12:21:18Z</time>
      </trkpt>
      <trkpt lat="44.49365" lon="6.2873">
        <ele>1016.73</ele>
        <time>2016-01-28T12:21:31Z</time>
      </trkpt>
      <trkpt lat="44.49364" lon="6.28734">
        <ele>1016.25</ele>
        <time>2016-01-28T12:21:35Z</time>
      </trkpt>
      <trkpt lat="44.49355" lon="6.28749">
        <ele>1014.33</ele>
        <time>2016-01-28T12:21:49Z</time>
      </trkpt>
      <trkpt lat="44.49349" lon="6.28755">
        <ele>1013.85</ele>
        <time>2016-01-28T12:21:56Z</time>
      </trkpt>
      <trkpt lat="44.49348" lon="6.28771">
        <ele>1011.93</ele>
        <time>2016-01-28T12:22:11Z</time>
      </trkpt>
      <trkpt lat="44.49349" lon="6.28772">
        <ele>1011.93</ele>
        <time>2016-01-28T12:22:12Z</time>
      </trkpt>
      <trkpt lat="44.49352" lon="6.28775">
        <ele>1011.44</ele>
        <time>2016-01-28T12:22:17Z</time>
      </trkpt>
      <trkpt lat="44.49362" lon="6.28778">
        <ele>1010</ele>
        <time>2016-01-28T12:22:28Z</time>
      </trkpt>
      <trkpt lat="44.49377" lon="6.28785">
        <ele>1008.56</ele>
        <time>2016-01-28T12:22:45Z</time>
      </trkpt>
      <trkpt lat="44.49374" lon="6.28785">
        <ele>1008.56</ele>
        <time>2016-01-28T12:22:56Z</time>
      </trkpt>
      <trkpt lat="44.49373" lon="6.28784">
        <ele>1008.56</ele>
        <time>2016-01-28T12:23:12Z</time>
      </trkpt>
      <trkpt lat="44.49379" lon="6.28787">
        <ele>1008.08</ele>
        <time>2016-01-28T12:23:32Z</time>
      </trkpt>
      <trkpt lat="44.49394" lon="6.28801">
        <ele>1006.64</ele>
        <time>2016-01-28T12:23:48Z</time>
      </trkpt>
      <trkpt lat="44.49413" lon="6.28814">
        <ele>1005.2</ele>
        <time>2016-01-28T12:24:06Z</time>
      </trkpt>
      <trkpt lat="44.49419" lon="6.28812">
        <ele>1004.72</ele>
        <time>2016-01-28T12:24:19Z</time>
      </trkpt>
      <trkpt lat="44.4942" lon="6.2881">
        <ele>1004.23</ele>
        <time>2016-01-28T12:24:23Z</time>
      </trkpt>
      <trkpt lat="44.49426" lon="6.28806">
        <ele>1003.75</ele>
        <time>2016-01-28T12:24:36Z</time>
      </trkpt>
      <trkpt lat="44.49432" lon="6.28801">
        <ele>1003.27</ele>
        <time>2016-01-28T12:24:44Z</time>
      </trkpt>
      <trkpt lat="44.49438" lon="6.28796">
        <ele>1002.31</ele>
        <time>2016-01-28T12:24:51Z</time>
      </trkpt>
      <trkpt lat="44.4945" lon="6.28783">
        <ele>1001.35</ele>
        <time>2016-01-28T12:25:08Z</time>
      </trkpt>
      <trkpt lat="44.49462" lon="6.2877">
        <ele>999.91</ele>
        <time>2016-01-28T12:25:24Z</time>
      </trkpt>
      <trkpt lat="44.49471" lon="6.28761">
        <ele>998.95</ele>
        <time>2016-01-28T12:25:38Z</time>
      </trkpt>
      <trkpt lat="44.49486" lon="6.28759">
        <ele>997.99</ele>
        <time>2016-01-28T12:25:53Z</time>
      </trkpt>
      <trkpt lat="44.4949" lon="6.28763">
        <ele>997.51</ele>
        <time>2016-01-28T12:25:58Z</time>
      </trkpt>
      <trkpt lat="44.49492" lon="6.28767">
        <ele>997.51</ele>
        <time>2016-01-28T12:26:01Z</time>
      </trkpt>
      <trkpt lat="44.49496" lon="6.28771">
        <ele>997.02</ele>
        <time>2016-01-28T12:26:06Z</time>
      </trkpt>
      <trkpt lat="44.49498" lon="6.28772">
        <ele>996.54</ele>
        <time>2016-01-28T12:26:08Z</time>
      </trkpt>
      <trkpt lat="44.49511" lon="6.28783">
        <ele>995.1</ele>
        <time>2016-01-28T12:26:23Z</time>
      </trkpt>
      <trkpt lat="44.49516" lon="6.28783">
        <ele>994.14</ele>
        <time>2016-01-28T12:26:28Z</time>
      </trkpt>
      <trkpt lat="44.49534" lon="6.28784">
        <ele>992.7</ele>
        <time>2016-01-28T12:26:44Z</time>
      </trkpt>
      <trkpt lat="44.49543" lon="6.28781">
        <ele>991.74</ele>
        <time>2016-01-28T12:26:52Z</time>
      </trkpt>
      <trkpt lat="44.49558" lon="6.28771">
        <ele>989.81</ele>
        <time>2016-01-28T12:27:09Z</time>
      </trkpt>
      <trkpt lat="44.49572" lon="6.28758">
        <ele>988.85</ele>
        <time>2016-01-28T12:27:26Z</time>
      </trkpt>
      <trkpt lat="44.49577" lon="6.28752">
        <ele>988.37</ele>
        <time>2016-01-28T12:27:32Z</time>
      </trkpt>
      <trkpt lat="44.49578" lon="6.28748">
        <ele>987.89</ele>
        <time>2016-01-28T12:27:35Z</time>
      </trkpt>
      <trkpt lat="44.4959" lon="6.28728">
        <ele>986.45</ele>
        <time>2016-01-28T12:27:51Z</time>
      </trkpt>
      <trkpt lat="44.49601" lon="6.28714">
        <ele>985.49</ele>
        <time>2016-01-28T12:28:07Z</time>
      </trkpt>
      <trkpt lat="44.49611" lon="6.28698">
        <ele>984.05</ele>
        <time>2016-01-28T12:28:22Z</time>
      </trkpt>
      <trkpt lat="44.49621" lon="6.2869">
        <ele>982.6</ele>
        <time>2016-01-28T12:28:35Z</time>
      </trkpt>
      <trkpt lat="44.49637" lon="6.28684">
        <ele>981.16</ele>
        <time>2016-01-28T12:28:52Z</time>
      </trkpt>
      <trkpt lat="44.49648" lon="6.2868">
        <ele>980.2</ele>
        <time>2016-01-28T12:29:04Z</time>
      </trkpt>
      <trkpt lat="44.49663" lon="6.28675">
        <ele>978.76</ele>
        <time>2016-01-28T12:29:20Z</time>
      </trkpt>
      <trkpt lat="44.49666" lon="6.28674">
        <ele>978.76</ele>
        <time>2016-01-28T12:29:23Z</time>
      </trkpt>
      <trkpt lat="44.49668" lon="6.28674">
        <ele>978.28</ele>
        <time>2016-01-28T12:29:25Z</time>
      </trkpt>
      <trkpt lat="44.49673" lon="6.28671">
        <ele>978.76</ele>
        <time>2016-01-28T12:29:31Z</time>
      </trkpt>
      <trkpt lat="44.49677" lon="6.2867">
        <ele>977.32</ele>
        <time>2016-01-28T12:29:35Z</time>
      </trkpt>
      <trkpt lat="44.49688" lon="6.28663">
        <ele>976.84</ele>
        <time>2016-01-28T12:29:47Z</time>
      </trkpt>
      <trkpt lat="44.4969" lon="6.28661">
        <ele>976.36</ele>
        <time>2016-01-28T12:29:53Z</time>
      </trkpt>
      <trkpt lat="44.49701" lon="6.28647">
        <ele>974.91</ele>
        <time>2016-01-28T12:30:06Z</time>
      </trkpt>
      <trkpt lat="44.49707" lon="6.28641">
        <ele>974.43</ele>
        <time>2016-01-28T12:30:13Z</time>
      </trkpt>
      <trkpt lat="44.49711" lon="6.28642">
        <ele>974.43</ele>
        <time>2016-01-28T12:30:17Z</time>
      </trkpt>
      <trkpt lat="44.49715" lon="6.28643">
        <ele>973.95</ele>
        <time>2016-01-28T12:30:21Z</time>
      </trkpt>
      <trkpt lat="44.49734" lon="6.28649">
        <ele>971.55</ele>
        <time>2016-01-28T12:30:40Z</time>
      </trkpt>
      <trkpt lat="44.49739" lon="6.28647">
        <ele>971.55</ele>
        <time>2016-01-28T12:30:44Z</time>
      </trkpt>
      <trkpt lat="44.49743" lon="6.28644">
        <ele>971.55</ele>
        <time>2016-01-28T12:30:48Z</time>
      </trkpt>
      <trkpt lat="44.49751" lon="6.28641">
        <ele>971.07</ele>
        <time>2016-01-28T12:30:56Z</time>
      </trkpt>
      <trkpt lat="44.49754" lon="6.28639">
        <ele>971.07</ele>
        <time>2016-01-28T12:30:59Z</time>
      </trkpt>
      <trkpt lat="44.49769" lon="6.28629">
        <ele>969.63</ele>
        <time>2016-01-28T12:31:15Z</time>
      </trkpt>
      <trkpt lat="44.49774" lon="6.28627">
        <ele>968.67</ele>
        <time>2016-01-28T12:31:20Z</time>
      </trkpt>
      <trkpt lat="44.49776" lon="6.28626">
        <ele>968.67</ele>
        <time>2016-01-28T12:31:22Z</time>
      </trkpt>
      <trkpt lat="44.49792" lon="6.28618">
        <ele>967.7</ele>
        <time>2016-01-28T12:31:38Z</time>
      </trkpt>
      <trkpt lat="44.49806" lon="6.28627">
        <ele>967.22</ele>
        <time>2016-01-28T12:31:53Z</time>
      </trkpt>
      <trkpt lat="44.49805" lon="6.28641">
        <ele>967.7</ele>
        <time>2016-01-28T12:32:02Z</time>
      </trkpt>
      <trkpt lat="44.49803" lon="6.28649">
        <ele>967.22</ele>
        <time>2016-01-28T12:32:08Z</time>
      </trkpt>
      <trkpt lat="44.4979" lon="6.28669">
        <ele>965.78</ele>
        <time>2016-01-28T12:32:26Z</time>
      </trkpt>
      <trkpt lat="44.49786" lon="6.28675">
        <ele>965.3</ele>
        <time>2016-01-28T12:32:31Z</time>
      </trkpt>
      <trkpt lat="44.49783" lon="6.28691">
        <ele>964.34</ele>
        <time>2016-01-28T12:32:43Z</time>
      </trkpt>
      <trkpt lat="44.49784" lon="6.28713">
        <ele>962.42</ele>
        <time>2016-01-28T12:32:58Z</time>
      </trkpt>
      <trkpt lat="44.49785" lon="6.28727">
        <ele>961.94</ele>
        <time>2016-01-28T12:33:07Z</time>
      </trkpt>
      <trkpt lat="44.49785" lon="6.28731">
        <ele>961.46</ele>
        <time>2016-01-28T12:33:10Z</time>
      </trkpt>
      <trkpt lat="44.49786" lon="6.28737">
        <ele>960.98</ele>
        <time>2016-01-28T12:33:14Z</time>
      </trkpt>
      <trkpt lat="44.49786" lon="6.28744">
        <ele>960.49</ele>
        <time>2016-01-28T12:33:19Z</time>
      </trkpt>
      <trkpt lat="44.4979" lon="6.28769">
        <ele>958.09</ele>
        <time>2016-01-28T12:33:36Z</time>
      </trkpt>
      <trkpt lat="44.49791" lon="6.2877">
        <ele>958.09</ele>
        <time>2016-01-28T12:33:37Z</time>
      </trkpt>
      <trkpt lat="44.49795" lon="6.28778">
        <ele>957.13</ele>
        <time>2016-01-28T12:33:44Z</time>
      </trkpt>
      <trkpt lat="44.4981" lon="6.28793">
        <ele>954.73</ele>
        <time>2016-01-28T12:34:02Z</time>
      </trkpt>
      <trkpt lat="44.49814" lon="6.28796">
        <ele>954.25</ele>
        <time>2016-01-28T12:34:16Z</time>
      </trkpt>
      <trkpt lat="44.4982" lon="6.28807">
        <ele>953.28</ele>
        <time>2016-01-28T12:34:25Z</time>
      </trkpt>
      <trkpt lat="44.49827" lon="6.28823">
        <ele>952.32</ele>
        <time>2016-01-28T12:34:38Z</time>
      </trkpt>
      <trkpt lat="44.49838" lon="6.28841">
        <ele>950.4</ele>
        <time>2016-01-28T12:34:55Z</time>
      </trkpt>
      <trkpt lat="44.49845" lon="6.2885">
        <ele>949.44</ele>
        <time>2016-01-28T12:35:04Z</time>
      </trkpt>
      <trkpt lat="44.49848" lon="6.28853">
        <ele>948.96</ele>
        <time>2016-01-28T12:35:07Z</time>
      </trkpt>
      <trkpt lat="44.49855" lon="6.28863">
        <ele>948</ele>
        <time>2016-01-28T12:35:16Z</time>
      </trkpt>
      <trkpt lat="44.49865" lon="6.2888">
        <ele>946.56</ele>
        <time>2016-01-28T12:35:32Z</time>
      </trkpt>
      <trkpt lat="44.49877" lon="6.28896">
        <ele>945.11</ele>
        <time>2016-01-28T12:35:47Z</time>
      </trkpt>
      <trkpt lat="44.49881" lon="6.28899">
        <ele>944.63</ele>
        <time>2016-01-28T12:35:52Z</time>
      </trkpt>
      <trkpt lat="44.49896" lon="6.2891">
        <ele>943.67</ele>
        <time>2016-01-28T12:36:09Z</time>
      </trkpt>
      <trkpt lat="44.49911" lon="6.28923">
        <ele>941.27</ele>
        <time>2016-01-28T12:36:26Z</time>
      </trkpt>
      <trkpt lat="44.49915" lon="6.28939">
        <ele>940.31</ele>
        <time>2016-01-28T12:36:37Z</time>
      </trkpt>
      <trkpt lat="44.49911" lon="6.28942">
        <ele>939.83</ele>
        <time>2016-01-28T12:36:51Z</time>
      </trkpt>
      <trkpt lat="44.49909" lon="6.28942">
        <ele>939.83</ele>
        <time>2016-01-28T12:37:12Z</time>
      </trkpt>
      <trkpt lat="44.4991" lon="6.2894">
        <ele>939.83</ele>
        <time>2016-01-28T12:37:31Z</time>
      </trkpt>
      <trkpt lat="44.49905" lon="6.28943">
        <ele>938.86</ele>
        <time>2016-01-28T12:37:43Z</time>
      </trkpt>
      <trkpt lat="44.49894" lon="6.28945">
        <ele>937.9</ele>
        <time>2016-01-28T12:37:55Z</time>
      </trkpt>
      <trkpt lat="44.4989" lon="6.28947">
        <ele>936.94</ele>
        <time>2016-01-28T12:37:59Z</time>
      </trkpt>
      <trkpt lat="44.49879" lon="6.28949">
        <ele>936.46</ele>
        <time>2016-01-28T12:38:09Z</time>
      </trkpt>
      <trkpt lat="44.4987" lon="6.28946">
        <ele>935.5</ele>
        <time>2016-01-28T12:38:18Z</time>
      </trkpt>
      <trkpt lat="44.49867" lon="6.28946">
        <ele>935.02</ele>
        <time>2016-01-28T12:38:20Z</time>
      </trkpt>
      <trkpt lat="44.49853" lon="6.28939">
        <ele>933.1</ele>
        <time>2016-01-28T12:38:35Z</time>
      </trkpt>
      <trkpt lat="44.4985" lon="6.28937">
        <ele>933.1</ele>
        <time>2016-01-28T12:38:38Z</time>
      </trkpt>
      <trkpt lat="44.49836" lon="6.28927">
        <ele>931.65</ele>
        <time>2016-01-28T12:38:54Z</time>
      </trkpt>
      <trkpt lat="44.49827" lon="6.28917">
        <ele>931.17</ele>
        <time>2016-01-28T12:39:05Z</time>
      </trkpt>
      <trkpt lat="44.49826" lon="6.28917">
        <ele>930.69</ele>
        <time>2016-01-28T12:39:06Z</time>
      </trkpt>
      <trkpt lat="44.49823" lon="6.28917">
        <ele>930.21</ele>
        <time>2016-01-28T12:39:09Z</time>
      </trkpt>
      <trkpt lat="44.49812" lon="6.28911">
        <ele>929.73</ele>
        <time>2016-01-28T12:39:24Z</time>
      </trkpt>
      <trkpt lat="44.49795" lon="6.28904">
        <ele>928.29</ele>
        <time>2016-01-28T12:39:40Z</time>
      </trkpt>
      <trkpt lat="44.49781" lon="6.28897">
        <ele>927.33</ele>
        <time>2016-01-28T12:39:54Z</time>
      </trkpt>
      <trkpt lat="44.49779" lon="6.28896">
        <ele>927.33</ele>
        <time>2016-01-28T12:39:56Z</time>
      </trkpt>
      <trkpt lat="44.49773" lon="6.28896">
        <ele>926.85</ele>
        <time>2016-01-28T12:40:02Z</time>
      </trkpt>
      <trkpt lat="44.49754" lon="6.28894">
        <ele>924.93</ele>
        <time>2016-01-28T12:40:20Z</time>
      </trkpt>
      <trkpt lat="44.49751" lon="6.28904">
        <ele>923.48</ele>
        <time>2016-01-28T12:40:35Z</time>
      </trkpt>
      <trkpt lat="44.49759" lon="6.28909">
        <ele>922.04</ele>
        <time>2016-01-28T12:40:46Z</time>
      </trkpt>
      <trkpt lat="44.49765" lon="6.28913">
        <ele>921.56</ele>
        <time>2016-01-28T12:40:53Z</time>
      </trkpt>
      <trkpt lat="44.49769" lon="6.28916">
        <ele>921.08</ele>
        <time>2016-01-28T12:40:58Z</time>
      </trkpt>
      <trkpt lat="44.49779" lon="6.28928">
        <ele>920.6</ele>
        <time>2016-01-28T12:41:13Z</time>
      </trkpt>
      <trkpt lat="44.49779" lon="6.28935">
        <ele>921.08</ele>
        <time>2016-01-28T12:41:26Z</time>
      </trkpt>
      <trkpt lat="44.4979" lon="6.28936">
        <ele>921.08</ele>
        <time>2016-01-28T12:41:38Z</time>
      </trkpt>
      <trkpt lat="44.49799" lon="6.28947">
        <ele>920.6</ele>
        <time>2016-01-28T12:41:53Z</time>
      </trkpt>
      <trkpt lat="44.49804" lon="6.28956">
        <ele>920.12</ele>
        <time>2016-01-28T12:42:08Z</time>
      </trkpt>
      <trkpt lat="44.49808" lon="6.28972">
        <ele>918.68</ele>
        <time>2016-01-28T12:42:24Z</time>
      </trkpt>
      <trkpt lat="44.49815" lon="6.28987">
        <ele>917.24</ele>
        <time>2016-01-28T12:42:38Z</time>
      </trkpt>
      <trkpt lat="44.49817" lon="6.29">
        <ele>915.79</ele>
        <time>2016-01-28T12:42:52Z</time>
      </trkpt>
      <trkpt lat="44.49816" lon="6.29013">
        <ele>913.87</ele>
        <time>2016-01-28T12:43:05Z</time>
      </trkpt>
      <trkpt lat="44.49812" lon="6.29017">
        <ele>913.39</ele>
        <time>2016-01-28T12:43:20Z</time>
      </trkpt>
      <trkpt lat="44.49811" lon="6.29023">
        <ele>912.43</ele>
        <time>2016-01-28T12:43:37Z</time>
      </trkpt>
      <trkpt lat="44.49813" lon="6.29036">
        <ele>909.06</ele>
        <time>2016-01-28T12:43:51Z</time>
      </trkpt>
      <trkpt lat="44.49812" lon="6.29052">
        <ele>905.7</ele>
        <time>2016-01-28T12:44:07Z</time>
      </trkpt>
      <trkpt lat="44.49808" lon="6.2906">
        <ele>904.26</ele>
        <time>2016-01-28T12:44:22Z</time>
      </trkpt>
      <trkpt lat="44.49807" lon="6.29072">
        <ele>902.33</ele>
        <time>2016-01-28T12:44:35Z</time>
      </trkpt>
      <trkpt lat="44.49805" lon="6.29085">
        <ele>899.93</ele>
        <time>2016-01-28T12:44:48Z</time>
      </trkpt>
      <trkpt lat="44.49804" lon="6.29101">
        <ele>898.01</ele>
        <time>2016-01-28T12:45:02Z</time>
      </trkpt>
      <trkpt lat="44.49806" lon="6.29118">
        <ele>896.09</ele>
        <time>2016-01-28T12:45:17Z</time>
      </trkpt>
      <trkpt lat="44.49806" lon="6.29126">
        <ele>895.12</ele>
        <time>2016-01-28T12:45:24Z</time>
      </trkpt>
      <trkpt lat="44.49803" lon="6.29149">
        <ele>891.76</ele>
        <time>2016-01-28T12:45:43Z</time>
      </trkpt>
      <trkpt lat="44.49802" lon="6.29167">
        <ele>889.36</ele>
        <time>2016-01-28T12:45:57Z</time>
      </trkpt>
      <trkpt lat="44.49801" lon="6.29177">
        <ele>887.91</ele>
        <time>2016-01-28T12:46:11Z</time>
      </trkpt>
      <trkpt lat="44.498" lon="6.29181">
        <ele>887.91</ele>
        <time>2016-01-28T12:46:16Z</time>
      </trkpt>
      <trkpt lat="44.49801" lon="6.29189">
        <ele>886.95</ele>
        <time>2016-01-28T12:46:21Z</time>
      </trkpt>
      <trkpt lat="44.49802" lon="6.29195">
        <ele>886.47</ele>
        <time>2016-01-28T12:46:25Z</time>
      </trkpt>
      <trkpt lat="44.49789" lon="6.29208">
        <ele>884.07</ele>
        <time>2016-01-28T12:46:40Z</time>
      </trkpt>
      <trkpt lat="44.49784" lon="6.29209">
        <ele>883.11</ele>
        <time>2016-01-28T12:46:54Z</time>
      </trkpt>
      <trkpt lat="44.49784" lon="6.29209">
        <ele>883.59</ele>
        <time>2016-01-28T12:46:55Z</time>
      </trkpt>
      <trkpt lat="44.49786" lon="6.2921">
        <ele>883.11</ele>
        <time>2016-01-28T12:47:09Z</time>
      </trkpt>
      <trkpt lat="44.49784" lon="6.29209">
        <ele>882.15</ele>
        <time>2016-01-28T12:47:27Z</time>
      </trkpt>
      <trkpt lat="44.49783" lon="6.29209">
        <ele>881.67</ele>
        <time>2016-01-28T12:47:29Z</time>
      </trkpt>
      <trkpt lat="44.49777" lon="6.2921">
        <ele>879.74</ele>
        <time>2016-01-28T12:47:42Z</time>
      </trkpt>
      <trkpt lat="44.49777" lon="6.29211">
        <ele>879.26</ele>
        <time>2016-01-28T12:47:44Z</time>
      </trkpt>
      <trkpt lat="44.49774" lon="6.2922">
        <ele>876.38</ele>
        <time>2016-01-28T12:47:57Z</time>
      </trkpt>
      <trkpt lat="44.49773" lon="6.29223">
        <ele>875.42</ele>
        <time>2016-01-28T12:48:10Z</time>
      </trkpt>
      <trkpt lat="44.49767" lon="6.29226">
        <ele>873.01</ele>
        <time>2016-01-28T12:48:21Z</time>
      </trkpt>
      <trkpt lat="44.49766" lon="6.29223">
        <ele>872.53</ele>
        <time>2016-01-28T12:48:33Z</time>
      </trkpt>
      <trkpt lat="44.49767" lon="6.29224">
        <ele>872.53</ele>
        <time>2016-01-28T12:48:44Z</time>
      </trkpt>
      <trkpt lat="44.49769" lon="6.29234">
        <ele>870.61</ele>
        <time>2016-01-28T12:48:57Z</time>
      </trkpt>
      <trkpt lat="44.49769" lon="6.2925">
        <ele>867.73</ele>
        <time>2016-01-28T12:49:11Z</time>
      </trkpt>
      <trkpt lat="44.49772" lon="6.29267">
        <ele>864.36</ele>
        <time>2016-01-28T12:49:25Z</time>
      </trkpt>
      <trkpt lat="44.49773" lon="6.29269">
        <ele>863.88</ele>
        <time>2016-01-28T12:49:27Z</time>
      </trkpt>
      <trkpt lat="44.49777" lon="6.29284">
        <ele>861.96</ele>
        <time>2016-01-28T12:49:39Z</time>
      </trkpt>
      <trkpt lat="44.49784" lon="6.29296">
        <ele>860.04</ele>
        <time>2016-01-28T12:49:55Z</time>
      </trkpt>
      <trkpt lat="44.4979" lon="6.29303">
        <ele>857.63</ele>
        <time>2016-01-28T12:50:07Z</time>
      </trkpt>
      <trkpt lat="44.49797" lon="6.29313">
        <ele>855.23</ele>
        <time>2016-01-28T12:50:22Z</time>
      </trkpt>
      <trkpt lat="44.49802" lon="6.2932">
        <ele>853.79</ele>
        <time>2016-01-28T12:50:35Z</time>
      </trkpt>
      <trkpt lat="44.49808" lon="6.2932">
        <ele>852.83</ele>
        <time>2016-01-28T12:50:47Z</time>
      </trkpt>
      <trkpt lat="44.49814" lon="6.29323">
        <ele>851.87</ele>
        <time>2016-01-28T12:51:02Z</time>
      </trkpt>
      <trkpt lat="44.49819" lon="6.29323">
        <ele>850.42</ele>
        <time>2016-01-28T12:51:17Z</time>
      </trkpt>
      <trkpt lat="44.49823" lon="6.29324">
        <ele>848.5</ele>
        <time>2016-01-28T12:51:34Z</time>
      </trkpt>
      <trkpt lat="44.49834" lon="6.29323">
        <ele>848.5</ele>
        <time>2016-01-28T12:51:46Z</time>
      </trkpt>
      <trkpt lat="44.4984" lon="6.2933">
        <ele>848.98</ele>
        <time>2016-01-28T12:52:00Z</time>
      </trkpt>
      <trkpt lat="44.49842" lon="6.2933">
        <ele>849.46</ele>
        <time>2016-01-28T12:52:15Z</time>
      </trkpt>
      <trkpt lat="44.49842" lon="6.29329">
        <ele>849.46</ele>
        <time>2016-01-28T12:52:36Z</time>
      </trkpt>
      <trkpt lat="44.49842" lon="6.29328">
        <ele>849.94</ele>
        <time>2016-01-28T12:52:55Z</time>
      </trkpt>
      <trkpt lat="44.49844" lon="6.29336">
        <ele>851.38</ele>
        <time>2016-01-28T12:53:11Z</time>
      </trkpt>
      <trkpt lat="44.49844" lon="6.29338">
        <ele>852.83</ele>
        <time>2016-01-28T12:53:21Z</time>
      </trkpt>
      <trkpt lat="44.4984" lon="6.2934">
        <ele>853.79</ele>
        <time>2016-01-28T12:53:36Z</time>
      </trkpt>
      <trkpt lat="44.4984" lon="6.29343">
        <ele>855.23</ele>
        <time>2016-01-28T12:53:49Z</time>
      </trkpt>
      <trkpt lat="44.49837" lon="6.29349">
        <ele>857.63</ele>
        <time>2016-01-28T12:54:01Z</time>
      </trkpt>
      <trkpt lat="44.4983" lon="6.29356">
        <ele>860.04</ele>
        <time>2016-01-28T12:54:14Z</time>
      </trkpt>
      <trkpt lat="44.49823" lon="6.29361">
        <ele>861.96</ele>
        <time>2016-01-28T12:54:27Z</time>
      </trkpt>
      <trkpt lat="44.49819" lon="6.29363">
        <ele>862.44</ele>
        <time>2016-01-28T12:54:32Z</time>
      </trkpt>
      <trkpt lat="44.4981" lon="6.29365">
        <ele>864.36</ele>
        <time>2016-01-28T12:54:46Z</time>
      </trkpt>
      <trkpt lat="44.49806" lon="6.29368">
        <ele>865.32</ele>
        <time>2016-01-28T12:55:00Z</time>
      </trkpt>
      <trkpt lat="44.49805" lon="6.29369">
        <ele>865.32</ele>
        <time>2016-01-28T12:55:01Z</time>
      </trkpt>
      <trkpt lat="44.49802" lon="6.29375">
        <ele>866.77</ele>
        <time>2016-01-28T12:55:12Z</time>
      </trkpt>
      <trkpt lat="44.49806" lon="6.29378">
        <ele>868.21</ele>
        <time>2016-01-28T12:55:23Z</time>
      </trkpt>
      <trkpt lat="44.4981" lon="6.29384">
        <ele>870.13</ele>
        <time>2016-01-28T12:55:34Z</time>
      </trkpt>
      <trkpt lat="44.49815" lon="6.29394">
        <ele>872.05</ele>
        <time>2016-01-28T12:55:47Z</time>
      </trkpt>
      <trkpt lat="44.49815" lon="6.29407">
        <ele>874.46</ele>
        <time>2016-01-28T12:56:01Z</time>
      </trkpt>
      <trkpt lat="44.4982" lon="6.29415">
        <ele>876.38</ele>
        <time>2016-01-28T12:56:13Z</time>
      </trkpt>
      <trkpt lat="44.49823" lon="6.29423">
        <ele>877.82</ele>
        <time>2016-01-28T12:56:22Z</time>
      </trkpt>
      <trkpt lat="44.49823" lon="6.2943">
        <ele>878.78</ele>
        <time>2016-01-28T12:56:34Z</time>
      </trkpt>
      <trkpt lat="44.49824" lon="6.29433">
        <ele>878.78</ele>
        <time>2016-01-28T12:56:47Z</time>
      </trkpt>
      <trkpt lat="44.4982" lon="6.29429">
        <ele>878.3</ele>
        <time>2016-01-28T12:57:01Z</time>
      </trkpt>
      <trkpt lat="44.49819" lon="6.29433">
        <ele>878.3</ele>
        <time>2016-01-28T12:57:30Z</time>
      </trkpt>
      <trkpt lat="44.49819" lon="6.29431">
        <ele>878.3</ele>
        <time>2016-01-28T12:57:48Z</time>
      </trkpt>
      <trkpt lat="44.49821" lon="6.29426">
        <ele>878.78</ele>
        <time>2016-01-28T12:58:11Z</time>
      </trkpt>
      <trkpt lat="44.49823" lon="6.29428">
        <ele>878.3</ele>
        <time>2016-01-28T12:58:29Z</time>
      </trkpt>
      <trkpt lat="44.4982" lon="6.29432">
        <ele>878.3</ele>
        <time>2016-01-28T12:58:56Z</time>
      </trkpt>
      <trkpt lat="44.49819" lon="6.29433">
        <ele>878.3</ele>
        <time>2016-01-28T12:59:25Z</time>
      </trkpt>
      <trkpt lat="44.49818" lon="6.29431">
        <ele>878.78</ele>
        <time>2016-01-28T12:59:59Z</time>
      </trkpt>
      <trkpt lat="44.49818" lon="6.29442">
        <ele>880.71</ele>
        <time>2016-01-28T13:00:15Z</time>
      </trkpt>
      <trkpt lat="44.49819" lon="6.29455">
        <ele>882.63</ele>
        <time>2016-01-28T13:00:28Z</time>
      </trkpt>
      <trkpt lat="44.49816" lon="6.29467">
        <ele>883.11</ele>
        <time>2016-01-28T13:00:40Z</time>
      </trkpt>
      <trkpt lat="44.49802" lon="6.29467">
        <ele>884.55</ele>
        <time>2016-01-28T13:00:55Z</time>
      </trkpt>
      <trkpt lat="44.49794" lon="6.29467">
        <ele>885.99</ele>
        <time>2016-01-28T13:01:06Z</time>
      </trkpt>
      <trkpt lat="44.49789" lon="6.29475">
        <ele>886.47</ele>
        <time>2016-01-28T13:01:17Z</time>
      </trkpt>
      <trkpt lat="44.49788" lon="6.29491">
        <ele>888.4</ele>
        <time>2016-01-28T13:01:32Z</time>
      </trkpt>
      <trkpt lat="44.4979" lon="6.29507">
        <ele>888.88</ele>
        <time>2016-01-28T13:01:47Z</time>
      </trkpt>
      <trkpt lat="44.49789" lon="6.29514">
        <ele>887.91</ele>
        <time>2016-01-28T13:01:53Z</time>
      </trkpt>
      <trkpt lat="44.49784" lon="6.29516">
        <ele>887.91</ele>
        <time>2016-01-28T13:01:59Z</time>
      </trkpt>
      <trkpt lat="44.49771" lon="6.2951">
        <ele>889.36</ele>
        <time>2016-01-28T13:02:12Z</time>
      </trkpt>
      <trkpt lat="44.4977" lon="6.2951">
        <ele>889.84</ele>
        <time>2016-01-28T13:02:14Z</time>
      </trkpt>
      <trkpt lat="44.49757" lon="6.29511">
        <ele>892.24</ele>
        <time>2016-01-28T13:02:29Z</time>
      </trkpt>
      <trkpt lat="44.4975" lon="6.29519">
        <ele>893.68</ele>
        <time>2016-01-28T13:02:42Z</time>
      </trkpt>
      <trkpt lat="44.4975" lon="6.2952">
        <ele>894.16</ele>
        <time>2016-01-28T13:02:43Z</time>
      </trkpt>
      <trkpt lat="44.49751" lon="6.29533">
        <ele>895.61</ele>
        <time>2016-01-28T13:02:56Z</time>
      </trkpt>
      <trkpt lat="44.49751" lon="6.29551">
        <ele>898.01</ele>
        <time>2016-01-28T13:03:11Z</time>
      </trkpt>
      <trkpt lat="44.49749" lon="6.29565">
        <ele>898.01</ele>
        <time>2016-01-28T13:03:24Z</time>
      </trkpt>
      <trkpt lat="44.49747" lon="6.2958">
        <ele>898.01</ele>
        <time>2016-01-28T13:03:37Z</time>
      </trkpt>
      <trkpt lat="44.49747" lon="6.29581">
        <ele>898.01</ele>
        <time>2016-01-28T13:03:38Z</time>
      </trkpt>
      <trkpt lat="44.4974" lon="6.29586">
        <ele>898.49</ele>
        <time>2016-01-28T13:03:47Z</time>
      </trkpt>
      <trkpt lat="44.49737" lon="6.29585">
        <ele>898.49</ele>
        <time>2016-01-28T13:03:50Z</time>
      </trkpt>
      <trkpt lat="44.49725" lon="6.29589">
        <ele>899.93</ele>
        <time>2016-01-28T13:04:04Z</time>
      </trkpt>
      <trkpt lat="44.49712" lon="6.29599">
        <ele>898.49</ele>
        <time>2016-01-28T13:04:21Z</time>
      </trkpt>
      <trkpt lat="44.49711" lon="6.29601">
        <ele>898.49</ele>
        <time>2016-01-28T13:04:23Z</time>
      </trkpt>
      <trkpt lat="44.49706" lon="6.29619">
        <ele>897.05</ele>
        <time>2016-01-28T13:04:38Z</time>
      </trkpt>
      <trkpt lat="44.49703" lon="6.29622">
        <ele>896.09</ele>
        <time>2016-01-28T13:04:42Z</time>
      </trkpt>
      <trkpt lat="44.49697" lon="6.29627">
        <ele>895.12</ele>
        <time>2016-01-28T13:04:50Z</time>
      </trkpt>
      <trkpt lat="44.49687" lon="6.29623">
        <ele>895.12</ele>
        <time>2016-01-28T13:05:03Z</time>
      </trkpt>
      <trkpt lat="44.49683" lon="6.29622">
        <ele>894.64</ele>
        <time>2016-01-28T13:05:08Z</time>
      </trkpt>
      <trkpt lat="44.49671" lon="6.29613">
        <ele>893.2</ele>
        <time>2016-01-28T13:05:24Z</time>
      </trkpt>
      <trkpt lat="44.49669" lon="6.29611">
        <ele>893.2</ele>
        <time>2016-01-28T13:05:43Z</time>
      </trkpt>
      <trkpt lat="44.49669" lon="6.2961">
        <ele>893.2</ele>
        <time>2016-01-28T13:05:55Z</time>
      </trkpt>
      <trkpt lat="44.49665" lon="6.29609">
        <ele>892.72</ele>
        <time>2016-01-28T13:06:09Z</time>
      </trkpt>
      <trkpt lat="44.49657" lon="6.29603">
        <ele>892.72</ele>
        <time>2016-01-28T13:06:22Z</time>
      </trkpt>
      <trkpt lat="44.49646" lon="6.29597">
        <ele>891.76</ele>
        <time>2016-01-28T13:06:34Z</time>
      </trkpt>
      <trkpt lat="44.49642" lon="6.29595">
        <ele>890.8</ele>
        <time>2016-01-28T13:06:39Z</time>
      </trkpt>
      <trkpt lat="44.49636" lon="6.29594">
        <ele>889.84</ele>
        <time>2016-01-28T13:06:46Z</time>
      </trkpt>
      <trkpt lat="44.49625" lon="6.29588">
        <ele>887.91</ele>
        <time>2016-01-28T13:07:00Z</time>
      </trkpt>
      <trkpt lat="44.49613" lon="6.29589">
        <ele>886.47</ele>
        <time>2016-01-28T13:07:11Z</time>
      </trkpt>
      <trkpt lat="44.49609" lon="6.29589">
        <ele>885.99</ele>
        <time>2016-01-28T13:07:15Z</time>
      </trkpt>
      <trkpt lat="44.49604" lon="6.29591">
        <ele>885.03</ele>
        <time>2016-01-28T13:07:20Z</time>
      </trkpt>
      <trkpt lat="44.49593" lon="6.296">
        <ele>882.63</ele>
        <time>2016-01-28T13:07:36Z</time>
      </trkpt>
      <trkpt lat="44.49581" lon="6.29608">
        <ele>881.19</ele>
        <time>2016-01-28T13:07:50Z</time>
      </trkpt>
      <trkpt lat="44.49571" lon="6.29612">
        <ele>878.3</ele>
        <time>2016-01-28T13:08:05Z</time>
      </trkpt>
      <trkpt lat="44.49562" lon="6.29617">
        <ele>875.42</ele>
        <time>2016-01-28T13:08:18Z</time>
      </trkpt>
      <trkpt lat="44.49555" lon="6.2962">
        <ele>873.01</ele>
        <time>2016-01-28T13:08:32Z</time>
      </trkpt>
      <trkpt lat="44.49555" lon="6.29624">
        <ele>871.57</ele>
        <time>2016-01-28T13:08:43Z</time>
      </trkpt>
      <trkpt lat="44.49555" lon="6.29625">
        <ele>871.09</ele>
        <time>2016-01-28T13:08:44Z</time>
      </trkpt>
      <trkpt lat="44.49554" lon="6.29629">
        <ele>870.13</ele>
        <time>2016-01-28T13:08:57Z</time>
      </trkpt>
      <trkpt lat="44.49545" lon="6.29629">
        <ele>868.21</ele>
        <time>2016-01-28T13:09:11Z</time>
      </trkpt>
      <trkpt lat="44.49539" lon="6.29631">
        <ele>866.29</ele>
        <time>2016-01-28T13:09:25Z</time>
      </trkpt>
      <trkpt lat="44.49532" lon="6.29633">
        <ele>864.36</ele>
        <time>2016-01-28T13:09:38Z</time>
      </trkpt>
      <trkpt lat="44.49523" lon="6.29635">
        <ele>861.96</ele>
        <time>2016-01-28T13:09:51Z</time>
      </trkpt>
      <trkpt lat="44.49515" lon="6.29638">
        <ele>859.56</ele>
        <time>2016-01-28T13:10:04Z</time>
      </trkpt>
      <trkpt lat="44.49505" lon="6.29639">
        <ele>857.15</ele>
        <time>2016-01-28T13:10:18Z</time>
      </trkpt>
      <trkpt lat="44.49497" lon="6.29646">
        <ele>853.79</ele>
        <time>2016-01-28T13:10:31Z</time>
      </trkpt>
      <trkpt lat="44.49498" lon="6.29648">
        <ele>853.79</ele>
        <time>2016-01-28T13:10:45Z</time>
      </trkpt>
      <trkpt lat="44.49502" lon="6.2965">
        <ele>852.83</ele>
        <time>2016-01-28T13:10:55Z</time>
      </trkpt>
      <trkpt lat="44.49508" lon="6.29659">
        <ele>851.38</ele>
        <time>2016-01-28T13:11:08Z</time>
      </trkpt>
      <trkpt lat="44.49508" lon="6.29663">
        <ele>850.9</ele>
        <time>2016-01-28T13:11:12Z</time>
      </trkpt>
      <trkpt lat="44.49509" lon="6.29674">
        <ele>849.94</ele>
        <time>2016-01-28T13:11:18Z</time>
      </trkpt>
      <trkpt lat="44.49509" lon="6.29685">
        <ele>848.98</ele>
        <time>2016-01-28T13:11:33Z</time>
      </trkpt>
      <trkpt lat="44.49509" lon="6.29684">
        <ele>848.98</ele>
        <time>2016-01-28T13:11:34Z</time>
      </trkpt>
      <trkpt lat="44.49514" lon="6.29669">
        <ele>849.46</ele>
        <time>2016-01-28T13:11:44Z</time>
      </trkpt>
      <trkpt lat="44.49526" lon="6.29677">
        <ele>848.98</ele>
        <time>2016-01-28T13:11:58Z</time>
      </trkpt>
      <trkpt lat="44.4953" lon="6.29682">
        <ele>848.98</ele>
        <time>2016-01-28T13:12:10Z</time>
      </trkpt>
      <trkpt lat="44.49529" lon="6.29691">
        <ele>848.5</ele>
        <time>2016-01-28T13:12:21Z</time>
      </trkpt>
      <trkpt lat="44.49529" lon="6.29694">
        <ele>848.5</ele>
        <time>2016-01-28T13:12:24Z</time>
      </trkpt>
      <trkpt lat="44.49527" lon="6.29704">
        <ele>848.02</ele>
        <time>2016-01-28T13:12:35Z</time>
      </trkpt>
      <trkpt lat="44.49527" lon="6.29709">
        <ele>847.06</ele>
        <time>2016-01-28T13:12:39Z</time>
      </trkpt>
      <trkpt lat="44.49527" lon="6.29715">
        <ele>847.06</ele>
        <time>2016-01-28T13:12:45Z</time>
      </trkpt>
      <trkpt lat="44.49526" lon="6.29727">
        <ele>845.62</ele>
        <time>2016-01-28T13:12:57Z</time>
      </trkpt>
      <trkpt lat="44.49522" lon="6.29732">
        <ele>845.14</ele>
        <time>2016-01-28T13:13:13Z</time>
      </trkpt>
      <trkpt lat="44.49519" lon="6.29727">
        <ele>843.69</ele>
        <time>2016-01-28T13:13:27Z</time>
      </trkpt>
      <trkpt lat="44.49514" lon="6.29728">
        <ele>843.21</ele>
        <time>2016-01-28T13:13:38Z</time>
      </trkpt>
      <trkpt lat="44.49508" lon="6.29731">
        <ele>843.69</ele>
        <time>2016-01-28T13:13:51Z</time>
      </trkpt>
      <trkpt lat="44.49511" lon="6.29736">
        <ele>842.25</ele>
        <time>2016-01-28T13:14:05Z</time>
      </trkpt>
      <trkpt lat="44.49512" lon="6.2974">
        <ele>841.29</ele>
        <time>2016-01-28T13:14:09Z</time>
      </trkpt>
      <trkpt lat="44.49512" lon="6.2975">
        <ele>840.33</ele>
        <time>2016-01-28T13:14:22Z</time>
      </trkpt>
      <trkpt lat="44.49513" lon="6.29752">
        <ele>840.33</ele>
        <time>2016-01-28T13:14:42Z</time>
      </trkpt>
      <trkpt lat="44.49515" lon="6.29761">
        <ele>838.41</ele>
        <time>2016-01-28T13:14:54Z</time>
      </trkpt>
      <trkpt lat="44.49516" lon="6.29768">
        <ele>837.45</ele>
        <time>2016-01-28T13:15:00Z</time>
      </trkpt>
      <trkpt lat="44.49516" lon="6.29773">
        <ele>836.96</ele>
        <time>2016-01-28T13:15:04Z</time>
      </trkpt>
      <trkpt lat="44.49512" lon="6.29786">
        <ele>835.52</ele>
        <time>2016-01-28T13:15:16Z</time>
      </trkpt>
      <trkpt lat="44.49511" lon="6.29787">
        <ele>835.04</ele>
        <time>2016-01-28T13:15:17Z</time>
      </trkpt>
      <trkpt lat="44.49506" lon="6.29791">
        <ele>835.04</ele>
        <time>2016-01-28T13:15:33Z</time>
      </trkpt>
      <trkpt lat="44.49501" lon="6.29796">
        <ele>835.04</ele>
        <time>2016-01-28T13:15:44Z</time>
      </trkpt>
      <trkpt lat="44.49498" lon="6.29803">
        <ele>834.08</ele>
        <time>2016-01-28T13:15:57Z</time>
      </trkpt>
      <trkpt lat="44.49501" lon="6.29809">
        <ele>833.12</ele>
        <time>2016-01-28T13:16:12Z</time>
      </trkpt>
      <trkpt lat="44.49502" lon="6.29817">
        <ele>832.16</ele>
        <time>2016-01-28T13:16:20Z</time>
      </trkpt>
      <trkpt lat="44.49494" lon="6.2983">
        <ele>832.64</ele>
        <time>2016-01-28T13:16:34Z</time>
      </trkpt>
      <trkpt lat="44.4949" lon="6.29835">
        <ele>831.68</ele>
        <time>2016-01-28T13:16:44Z</time>
      </trkpt>
      <trkpt lat="44.4949" lon="6.29835">
        <ele>831.2</ele>
        <time>2016-01-28T13:16:56Z</time>
      </trkpt>
      <trkpt lat="44.4949" lon="6.29835">
        <ele>830.72</ele>
        <time>2016-01-28T13:16:57Z</time>
      </trkpt>
      <trkpt lat="44.49488" lon="6.29837">
        <ele>831.2</ele>
        <time>2016-01-28T13:16:59Z</time>
      </trkpt>
      <trkpt lat="44.49485" lon="6.29839">
        <ele>830.24</ele>
        <time>2016-01-28T13:17:06Z</time>
      </trkpt>
      <trkpt lat="44.49482" lon="6.29852">
        <ele>829.27</ele>
        <time>2016-01-28T13:17:17Z</time>
      </trkpt>
      <trkpt lat="44.49482" lon="6.29856">
        <ele>829.27</ele>
        <time>2016-01-28T13:17:20Z</time>
      </trkpt>
      <trkpt lat="44.49477" lon="6.29872">
        <ele>830.72</ele>
        <time>2016-01-28T13:17:33Z</time>
      </trkpt>
      <trkpt lat="44.49475" lon="6.29875">
        <ele>831.2</ele>
        <time>2016-01-28T13:17:50Z</time>
      </trkpt>
      <trkpt lat="44.49476" lon="6.29878">
        <ele>831.2</ele>
        <time>2016-01-28T13:17:55Z</time>
      </trkpt>
      <trkpt lat="44.49471" lon="6.29892">
        <ele>829.27</ele>
        <time>2016-01-28T13:18:09Z</time>
      </trkpt>
      <trkpt lat="44.49471" lon="6.29904">
        <ele>829.76</ele>
        <time>2016-01-28T13:18:21Z</time>
      </trkpt>
      <trkpt lat="44.49477" lon="6.29914">
        <ele>827.83</ele>
        <time>2016-01-28T13:18:36Z</time>
      </trkpt>
      <trkpt lat="44.49474" lon="6.29921">
        <ele>825.91</ele>
        <time>2016-01-28T13:18:47Z</time>
      </trkpt>
      <trkpt lat="44.49476" lon="6.29932">
        <ele>823.51</ele>
        <time>2016-01-28T13:18:59Z</time>
      </trkpt>
      <trkpt lat="44.4947" lon="6.29942">
        <ele>821.1</ele>
        <time>2016-01-28T13:19:12Z</time>
      </trkpt>
      <trkpt lat="44.49469" lon="6.29948">
        <ele>819.66</ele>
        <time>2016-01-28T13:19:19Z</time>
      </trkpt>
      <trkpt lat="44.49466" lon="6.29956">
        <ele>817.74</ele>
        <time>2016-01-28T13:19:32Z</time>
      </trkpt>
      <trkpt lat="44.49466" lon="6.29965">
        <ele>815.82</ele>
        <time>2016-01-28T13:19:46Z</time>
      </trkpt>
      <trkpt lat="44.49462" lon="6.29975">
        <ele>813.41</ele>
        <time>2016-01-28T13:19:58Z</time>
      </trkpt>
      <trkpt lat="44.49454" lon="6.2998">
        <ele>811.49</ele>
        <time>2016-01-28T13:20:10Z</time>
      </trkpt>
      <trkpt lat="44.49452" lon="6.29983">
        <ele>811.49</ele>
        <time>2016-01-28T13:20:14Z</time>
      </trkpt>
      <trkpt lat="44.49449" lon="6.29985">
        <ele>811.01</ele>
        <time>2016-01-28T13:20:17Z</time>
      </trkpt>
      <trkpt lat="44.49442" lon="6.29985">
        <ele>810.53</ele>
        <time>2016-01-28T13:20:24Z</time>
      </trkpt>
      <trkpt lat="44.49434" lon="6.29985">
        <ele>809.09</ele>
        <time>2016-01-28T13:20:40Z</time>
      </trkpt>
      <trkpt lat="44.49436" lon="6.29994">
        <ele>808.61</ele>
        <time>2016-01-28T13:20:58Z</time>
      </trkpt>
      <trkpt lat="44.49435" lon="6.29996">
        <ele>808.13</ele>
        <time>2016-01-28T13:21:10Z</time>
      </trkpt>
      <trkpt lat="44.4943" lon="6.29996">
        <ele>807.64</ele>
        <time>2016-01-28T13:21:25Z</time>
      </trkpt>
      <trkpt lat="44.49432" lon="6.29999">
        <ele>807.16</ele>
        <time>2016-01-28T13:21:37Z</time>
      </trkpt>
      <trkpt lat="44.49433" lon="6.30005">
        <ele>806.68</ele>
        <time>2016-01-28T13:21:45Z</time>
      </trkpt>
      <trkpt lat="44.4943" lon="6.30015">
        <ele>803.8</ele>
        <time>2016-01-28T13:21:56Z</time>
      </trkpt>
      <trkpt lat="44.49424" lon="6.30013">
        <ele>803.8</ele>
        <time>2016-01-28T13:22:08Z</time>
      </trkpt>
      <trkpt lat="44.49421" lon="6.30016">
        <ele>802.84</ele>
        <time>2016-01-28T13:22:17Z</time>
      </trkpt>
      <trkpt lat="44.49412" lon="6.30019">
        <ele>801.4</ele>
        <time>2016-01-28T13:22:30Z</time>
      </trkpt>
      <trkpt lat="44.49402" lon="6.30021">
        <ele>799.95</ele>
        <time>2016-01-28T13:22:42Z</time>
      </trkpt>
      <trkpt lat="44.49398" lon="6.30018">
        <ele>799.95</ele>
        <time>2016-01-28T13:22:58Z</time>
      </trkpt>
      <trkpt lat="44.49394" lon="6.30023">
        <ele>798.03</ele>
        <time>2016-01-28T13:23:14Z</time>
      </trkpt>
      <trkpt lat="44.49385" lon="6.30026">
        <ele>798.03</ele>
        <time>2016-01-28T13:23:26Z</time>
      </trkpt>
      <trkpt lat="44.49382" lon="6.3003">
        <ele>796.59</ele>
        <time>2016-01-28T13:23:32Z</time>
      </trkpt>
      <trkpt lat="44.49371" lon="6.30038">
        <ele>795.15</ele>
        <time>2016-01-28T13:23:46Z</time>
      </trkpt>
      <trkpt lat="44.49372" lon="6.3004">
        <ele>796.11</ele>
        <time>2016-01-28T13:23:49Z</time>
      </trkpt>
      <trkpt lat="44.4937" lon="6.30049">
        <ele>794.67</ele>
        <time>2016-01-28T13:23:55Z</time>
      </trkpt>
      <trkpt lat="44.49356" lon="6.30052">
        <ele>792.26</ele>
        <time>2016-01-28T13:24:11Z</time>
      </trkpt>
      <trkpt lat="44.49354" lon="6.3005">
        <ele>792.26</ele>
        <time>2016-01-28T13:24:14Z</time>
      </trkpt>
      <trkpt lat="44.49347" lon="6.30053">
        <ele>790.34</ele>
        <time>2016-01-28T13:24:21Z</time>
      </trkpt>
      <trkpt lat="44.49345" lon="6.30054">
        <ele>789.86</ele>
        <time>2016-01-28T13:24:23Z</time>
      </trkpt>
      <trkpt lat="44.49339" lon="6.30068">
        <ele>789.38</ele>
        <time>2016-01-28T13:24:32Z</time>
      </trkpt>
      <trkpt lat="44.49337" lon="6.30074">
        <ele>788.9</ele>
        <time>2016-01-28T13:24:36Z</time>
      </trkpt>
      <trkpt lat="44.49339" lon="6.30103">
        <ele>788.42</ele>
        <time>2016-01-28T13:24:53Z</time>
      </trkpt>
      <trkpt lat="44.49335" lon="6.30113">
        <ele>787.46</ele>
        <time>2016-01-28T13:25:04Z</time>
      </trkpt>
      <trkpt lat="44.49331" lon="6.30122">
        <ele>786.5</ele>
        <time>2016-01-28T13:25:10Z</time>
      </trkpt>
      <trkpt lat="44.49318" lon="6.3014">
        <ele>785.53</ele>
        <time>2016-01-28T13:25:25Z</time>
      </trkpt>
      <trkpt lat="44.49305" lon="6.30161">
        <ele>785.53</ele>
        <time>2016-01-28T13:25:41Z</time>
      </trkpt>
      <trkpt lat="44.49296" lon="6.30175">
        <ele>785.05</ele>
        <time>2016-01-28T13:25:52Z</time>
      </trkpt>
      <trkpt lat="44.49283" lon="6.30191">
        <ele>785.53</ele>
        <time>2016-01-28T13:26:07Z</time>
      </trkpt>
      <trkpt lat="44.49283" lon="6.30198">
        <ele>786.98</ele>
        <time>2016-01-28T13:26:18Z</time>
      </trkpt>
      <trkpt lat="44.49282" lon="6.30196">
        <ele>786.5</ele>
        <time>2016-01-28T13:26:35Z</time>
      </trkpt>
      <trkpt lat="44.49279" lon="6.30198">
        <ele>786.5</ele>
        <time>2016-01-28T13:26:39Z</time>
      </trkpt>
      <trkpt lat="44.49272" lon="6.302">
        <ele>786.02</ele>
        <time>2016-01-28T13:26:45Z</time>
      </trkpt>
      <trkpt lat="44.49263" lon="6.30213">
        <ele>784.09</ele>
        <time>2016-01-28T13:26:58Z</time>
      </trkpt>
      <trkpt lat="44.4926" lon="6.30218">
        <ele>783.13</ele>
        <time>2016-01-28T13:27:12Z</time>
      </trkpt>
      <trkpt lat="44.49262" lon="6.30218">
        <ele>783.13</ele>
        <time>2016-01-28T13:27:40Z</time>
      </trkpt>
      <trkpt lat="44.49262" lon="6.30215">
        <ele>783.13</ele>
        <time>2016-01-28T13:27:57Z</time>
      </trkpt>
      <trkpt lat="44.4926" lon="6.30218">
        <ele>782.65</ele>
        <time>2016-01-28T13:28:11Z</time>
      </trkpt>
      <trkpt lat="44.4926" lon="6.30216">
        <ele>782.65</ele>
        <time>2016-01-28T13:28:22Z</time>
      </trkpt>
      <trkpt lat="44.49262" lon="6.30216">
        <ele>783.13</ele>
        <time>2016-01-28T13:28:35Z</time>
      </trkpt>
      <trkpt lat="44.49266" lon="6.30212">
        <ele>783.61</ele>
        <time>2016-01-28T13:28:46Z</time>
      </trkpt>
      <trkpt lat="44.49268" lon="6.3021">
        <ele>783.61</ele>
        <time>2016-01-28T13:29:02Z</time>
      </trkpt>
      <trkpt lat="44.49267" lon="6.3021">
        <ele>784.09</ele>
        <time>2016-01-28T13:29:17Z</time>
      </trkpt>
      <trkpt lat="44.49269" lon="6.30202">
        <ele>785.05</ele>
        <time>2016-01-28T13:29:28Z</time>
      </trkpt>
      <trkpt lat="44.49271" lon="6.302">
        <ele>785.53</ele>
        <time>2016-01-28T13:29:32Z</time>
      </trkpt>
      <trkpt lat="44.49274" lon="6.30195">
        <ele>785.53</ele>
        <time>2016-01-28T13:29:44Z</time>
      </trkpt>
      <trkpt lat="44.49276" lon="6.30197">
        <ele>785.53</ele>
        <time>2016-01-28T13:29:54Z</time>
      </trkpt>
      <trkpt lat="44.49276" lon="6.30195">
        <ele>785.53</ele>
        <time>2016-01-28T13:30:06Z</time>
      </trkpt>
      <trkpt lat="44.49281" lon="6.30189">
        <ele>785.53</ele>
        <time>2016-01-28T13:30:20Z</time>
      </trkpt>
      <trkpt lat="44.49283" lon="6.3019">
        <ele>785.05</ele>
        <time>2016-01-28T13:30:33Z</time>
      </trkpt>
      <trkpt lat="44.49284" lon="6.30189">
        <ele>785.53</ele>
        <time>2016-01-28T13:30:35Z</time>
      </trkpt>
      <trkpt lat="44.49289" lon="6.30186">
        <ele>785.53</ele>
        <time>2016-01-28T13:30:40Z</time>
      </trkpt>
      <trkpt lat="44.49299" lon="6.30179">
        <ele>785.53</ele>
        <time>2016-01-28T13:30:53Z</time>
      </trkpt>
      <trkpt lat="44.49301" lon="6.30176">
        <ele>785.53</ele>
        <time>2016-01-28T13:30:56Z</time>
      </trkpt>
      <trkpt lat="44.49304" lon="6.30172">
        <ele>785.05</ele>
        <time>2016-01-28T13:31:00Z</time>
      </trkpt>
      <trkpt lat="44.49306" lon="6.30168">
        <ele>785.05</ele>
        <time>2016-01-28T13:31:04Z</time>
      </trkpt>
      <trkpt lat="44.49316" lon="6.30162">
        <ele>784.57</ele>
        <time>2016-01-28T13:31:16Z</time>
      </trkpt>
      <trkpt lat="44.49322" lon="6.30156">
        <ele>784.57</ele>
        <time>2016-01-28T13:31:24Z</time>
      </trkpt>
      <trkpt lat="44.49325" lon="6.30154">
        <ele>784.57</ele>
        <time>2016-01-28T13:31:27Z</time>
      </trkpt>
      <trkpt lat="44.49329" lon="6.30151">
        <ele>784.57</ele>
        <time>2016-01-28T13:31:32Z</time>
      </trkpt>
      <trkpt lat="44.49339" lon="6.30143">
        <ele>785.05</ele>
        <time>2016-01-28T13:31:45Z</time>
      </trkpt>
      <trkpt lat="44.49341" lon="6.3014">
        <ele>785.05</ele>
        <time>2016-01-28T13:31:48Z</time>
      </trkpt>
      <trkpt lat="44.49356" lon="6.30133">
        <ele>785.05</ele>
        <time>2016-01-28T13:32:03Z</time>
      </trkpt>
      <trkpt lat="44.49361" lon="6.30129">
        <ele>785.53</ele>
        <time>2016-01-28T13:32:10Z</time>
      </trkpt>
      <trkpt lat="44.4937" lon="6.30119">
        <ele>786.02</ele>
        <time>2016-01-28T13:32:23Z</time>
      </trkpt>
      <trkpt lat="44.4937" lon="6.30112">
        <ele>787.46</ele>
        <time>2016-01-28T13:32:30Z</time>
      </trkpt>
      <trkpt lat="44.4937" lon="6.30108">
        <ele>787.94</ele>
        <time>2016-01-28T13:32:33Z</time>
      </trkpt>
      <trkpt lat="44.49369" lon="6.30093">
        <ele>789.86</ele>
        <time>2016-01-28T13:32:45Z</time>
      </trkpt>
      <trkpt lat="44.49373" lon="6.30091">
        <ele>790.82</ele>
        <time>2016-01-28T13:32:51Z</time>
      </trkpt>
      <trkpt lat="44.49388" lon="6.3009">
        <ele>791.3</ele>
        <time>2016-01-28T13:33:06Z</time>
      </trkpt>
      <trkpt lat="44.49402" lon="6.30086">
        <ele>791.3</ele>
        <time>2016-01-28T13:33:20Z</time>
      </trkpt>
      <trkpt lat="44.49412" lon="6.30088">
        <ele>790.82</ele>
        <time>2016-01-28T13:33:34Z</time>
      </trkpt>
      <trkpt lat="44.49414" lon="6.3009">
        <ele>790.82</ele>
        <time>2016-01-28T13:33:44Z</time>
      </trkpt>
      <trkpt lat="44.49425" lon="6.30084">
        <ele>791.3</ele>
        <time>2016-01-28T13:33:57Z</time>
      </trkpt>
      <trkpt lat="44.49433" lon="6.30074">
        <ele>792.74</ele>
        <time>2016-01-28T13:34:10Z</time>
      </trkpt>
      <trkpt lat="44.49441" lon="6.30061">
        <ele>794.19</ele>
        <time>2016-01-28T13:34:25Z</time>
      </trkpt>
      <trkpt lat="44.49452" lon="6.30062">
        <ele>794.67</ele>
        <time>2016-01-28T13:34:37Z</time>
      </trkpt>
      <trkpt lat="44.49453" lon="6.30062">
        <ele>794.67</ele>
        <time>2016-01-28T13:34:38Z</time>
      </trkpt>
      <trkpt lat="44.49455" lon="6.30064">
        <ele>795.15</ele>
        <time>2016-01-28T13:34:40Z</time>
      </trkpt>
      <trkpt lat="44.49461" lon="6.30073">
        <ele>796.11</ele>
        <time>2016-01-28T13:34:48Z</time>
      </trkpt>
      <trkpt lat="44.49467" lon="6.30085">
        <ele>798.03</ele>
        <time>2016-01-28T13:34:59Z</time>
      </trkpt>
      <trkpt lat="44.49472" lon="6.30096">
        <ele>798.99</ele>
        <time>2016-01-28T13:35:10Z</time>
      </trkpt>
      <trkpt lat="44.49474" lon="6.30102">
        <ele>798.99</ele>
        <time>2016-01-28T13:35:15Z</time>
      </trkpt>
      <trkpt lat="44.49478" lon="6.30108">
        <ele>799.47</ele>
        <time>2016-01-28T13:35:29Z</time>
      </trkpt>
      <trkpt lat="44.4949" lon="6.30116">
        <ele>799.47</ele>
        <time>2016-01-28T13:35:43Z</time>
      </trkpt>
      <trkpt lat="44.49508" lon="6.30124">
        <ele>799.95</ele>
        <time>2016-01-28T13:35:59Z</time>
      </trkpt>
      <trkpt lat="44.49509" lon="6.30125">
        <ele>799.95</ele>
        <time>2016-01-28T13:36:02Z</time>
      </trkpt>
      <trkpt lat="44.49519" lon="6.30134">
        <ele>799.95</ele>
        <time>2016-01-28T13:36:12Z</time>
      </trkpt>
      <trkpt lat="44.4952" lon="6.30137">
        <ele>799.95</ele>
        <time>2016-01-28T13:36:14Z</time>
      </trkpt>
      <trkpt lat="44.49526" lon="6.3015">
        <ele>800.44</ele>
        <time>2016-01-28T13:36:26Z</time>
      </trkpt>
      <trkpt lat="44.49525" lon="6.30157">
        <ele>800.92</ele>
        <time>2016-01-28T13:36:32Z</time>
      </trkpt>
      <trkpt lat="44.49524" lon="6.30162">
        <ele>801.4</ele>
        <time>2016-01-28T13:36:35Z</time>
      </trkpt>
      <trkpt lat="44.49524" lon="6.30175">
        <ele>801.4</ele>
        <time>2016-01-28T13:36:43Z</time>
      </trkpt>
      <trkpt lat="44.49524" lon="6.30182">
        <ele>801.88</ele>
        <time>2016-01-28T13:36:48Z</time>
      </trkpt>
      <trkpt lat="44.49522" lon="6.30194">
        <ele>802.36</ele>
        <time>2016-01-28T13:36:55Z</time>
      </trkpt>
      <trkpt lat="44.49522" lon="6.30196">
        <ele>802.36</ele>
        <time>2016-01-28T13:36:57Z</time>
      </trkpt>
      <trkpt lat="44.49522" lon="6.30199">
        <ele>802.36</ele>
        <time>2016-01-28T13:36:59Z</time>
      </trkpt>
      <trkpt lat="44.49523" lon="6.30206">
        <ele>802.84</ele>
        <time>2016-01-28T13:37:03Z</time>
      </trkpt>
      <trkpt lat="44.49526" lon="6.30221">
        <ele>802.84</ele>
        <time>2016-01-28T13:37:14Z</time>
      </trkpt>
      <trkpt lat="44.49528" lon="6.30225">
        <ele>802.84</ele>
        <time>2016-01-28T13:37:18Z</time>
      </trkpt>
      <trkpt lat="44.49532" lon="6.30238">
        <ele>802.36</ele>
        <time>2016-01-28T13:37:33Z</time>
      </trkpt>
      <trkpt lat="44.49532" lon="6.30241">
        <ele>801.88</ele>
        <time>2016-01-28T13:37:36Z</time>
      </trkpt>
      <trkpt lat="44.49537" lon="6.30246">
        <ele>800.92</ele>
        <time>2016-01-28T13:37:49Z</time>
      </trkpt>
      <trkpt lat="44.4954" lon="6.30259">
        <ele>800.44</ele>
        <time>2016-01-28T13:38:03Z</time>
      </trkpt>
      <trkpt lat="44.49537" lon="6.30264">
        <ele>800.44</ele>
        <time>2016-01-28T13:38:16Z</time>
      </trkpt>
      <trkpt lat="44.49531" lon="6.30266">
        <ele>799.47</ele>
        <time>2016-01-28T13:38:30Z</time>
      </trkpt>
      <trkpt lat="44.49523" lon="6.30269">
        <ele>798.03</ele>
        <time>2016-01-28T13:38:40Z</time>
      </trkpt>
      <trkpt lat="44.49513" lon="6.30281">
        <ele>795.63</ele>
        <time>2016-01-28T13:38:56Z</time>
      </trkpt>
      <trkpt lat="44.4951" lon="6.30278">
        <ele>795.15</ele>
        <time>2016-01-28T13:39:01Z</time>
      </trkpt>
      <trkpt lat="44.49501" lon="6.30281">
        <ele>792.74</ele>
        <time>2016-01-28T13:39:17Z</time>
      </trkpt>
      <trkpt lat="44.49495" lon="6.30285">
        <ele>791.78</ele>
        <time>2016-01-28T13:39:33Z</time>
      </trkpt>
      <trkpt lat="44.49498" lon="6.30287">
        <ele>791.78</ele>
        <time>2016-01-28T13:40:00Z</time>
      </trkpt>
      <trkpt lat="44.49496" lon="6.30287">
        <ele>791.78</ele>
        <time>2016-01-28T13:40:16Z</time>
      </trkpt>
      <trkpt lat="44.49495" lon="6.30286">
        <ele>791.78</ele>
        <time>2016-01-28T13:40:45Z</time>
      </trkpt>
      <trkpt lat="44.49495" lon="6.30296">
        <ele>791.78</ele>
        <time>2016-01-28T13:41:14Z</time>
      </trkpt>
      <trkpt lat="44.49493" lon="6.30301">
        <ele>791.78</ele>
        <time>2016-01-28T13:41:27Z</time>
      </trkpt>
      <trkpt lat="44.49489" lon="6.3031">
        <ele>791.3</ele>
        <time>2016-01-28T13:41:40Z</time>
      </trkpt>
      <trkpt lat="44.4949" lon="6.3032">
        <ele>791.3</ele>
        <time>2016-01-28T13:41:50Z</time>
      </trkpt>
      <trkpt lat="44.49491" lon="6.30324">
        <ele>790.82</ele>
        <time>2016-01-28T13:41:54Z</time>
      </trkpt>
      <trkpt lat="44.49489" lon="6.30333">
        <ele>790.82</ele>
        <time>2016-01-28T13:42:08Z</time>
      </trkpt>
      <trkpt lat="44.49495" lon="6.30333">
        <ele>793.22</ele>
        <time>2016-01-28T13:42:20Z</time>
      </trkpt>
      <trkpt lat="44.49503" lon="6.30328">
        <ele>793.71</ele>
        <time>2016-01-28T13:42:32Z</time>
      </trkpt>
      <trkpt lat="44.49514" lon="6.30328">
        <ele>793.71</ele>
        <time>2016-01-28T13:42:46Z</time>
      </trkpt>
      <trkpt lat="44.49523" lon="6.30338">
        <ele>792.74</ele>
        <time>2016-01-28T13:42:59Z</time>
      </trkpt>
      <trkpt lat="44.49529" lon="6.3034">
        <ele>792.26</ele>
        <time>2016-01-28T13:43:08Z</time>
      </trkpt>
      <trkpt lat="44.49528" lon="6.30352">
        <ele>790.82</ele>
        <time>2016-01-28T13:43:23Z</time>
      </trkpt>
      <trkpt lat="44.49524" lon="6.30353">
        <ele>789.38</ele>
        <time>2016-01-28T13:43:33Z</time>
      </trkpt>
      <trkpt lat="44.49524" lon="6.30353">
        <ele>789.38</ele>
        <time>2016-01-28T13:43:34Z</time>
      </trkpt>
      <trkpt lat="44.49526" lon="6.30357">
        <ele>788.42</ele>
        <time>2016-01-28T13:43:45Z</time>
      </trkpt>
      <trkpt lat="44.49528" lon="6.30359">
        <ele>787.94</ele>
        <time>2016-01-28T13:43:47Z</time>
      </trkpt>
      <trkpt lat="44.49535" lon="6.30365">
        <ele>786.98</ele>
        <time>2016-01-28T13:44:01Z</time>
      </trkpt>
      <trkpt lat="44.49541" lon="6.30369">
        <ele>787.46</ele>
        <time>2016-01-28T13:44:15Z</time>
      </trkpt>
      <trkpt lat="44.49545" lon="6.30377">
        <ele>786.5</ele>
        <time>2016-01-28T13:44:27Z</time>
      </trkpt>
      <trkpt lat="44.49546" lon="6.30382">
        <ele>785.05</ele>
        <time>2016-01-28T13:44:40Z</time>
      </trkpt>
      <trkpt lat="44.49552" lon="6.30386">
        <ele>785.05</ele>
        <time>2016-01-28T13:44:51Z</time>
      </trkpt>
      <trkpt lat="44.49554" lon="6.30388">
        <ele>786.02</ele>
        <time>2016-01-28T13:45:06Z</time>
      </trkpt>
      <trkpt lat="44.49556" lon="6.30386">
        <ele>786.5</ele>
        <time>2016-01-28T13:45:19Z</time>
      </trkpt>
      <trkpt lat="44.4956" lon="6.30386">
        <ele>787.94</ele>
        <time>2016-01-28T13:45:33Z</time>
      </trkpt>
      <trkpt lat="44.49562" lon="6.30384">
        <ele>787.94</ele>
        <time>2016-01-28T13:45:44Z</time>
      </trkpt>
      <trkpt lat="44.49564" lon="6.30383">
        <ele>787.94</ele>
        <time>2016-01-28T13:45:56Z</time>
      </trkpt>
      <trkpt lat="44.49564" lon="6.3038">
        <ele>788.9</ele>
        <time>2016-01-28T13:46:08Z</time>
      </trkpt>
      <trkpt lat="44.49567" lon="6.30375">
        <ele>790.34</ele>
        <time>2016-01-28T13:46:22Z</time>
      </trkpt>
      <trkpt lat="44.49575" lon="6.30369">
        <ele>790.82</ele>
        <time>2016-01-28T13:46:38Z</time>
      </trkpt>
      <trkpt lat="44.49577" lon="6.30371">
        <ele>790.82</ele>
        <time>2016-01-28T13:46:49Z</time>
      </trkpt>
      <trkpt lat="44.49578" lon="6.30374">
        <ele>790.82</ele>
        <time>2016-01-28T13:47:12Z</time>
      </trkpt>
      <trkpt lat="44.49578" lon="6.30364">
        <ele>791.3</ele>
        <time>2016-01-28T13:47:28Z</time>
      </trkpt>
      <trkpt lat="44.49581" lon="6.30365">
        <ele>791.3</ele>
        <time>2016-01-28T13:47:40Z</time>
      </trkpt>
      <trkpt lat="44.49581" lon="6.30366">
        <ele>791.3</ele>
        <time>2016-01-28T13:47:41Z</time>
      </trkpt>
      <trkpt lat="44.49577" lon="6.30374">
        <ele>790.82</ele>
        <time>2016-01-28T13:47:54Z</time>
      </trkpt>
      <trkpt lat="44.49578" lon="6.30373">
        <ele>790.82</ele>
        <time>2016-01-28T13:48:22Z</time>
      </trkpt>
      <trkpt lat="44.49572" lon="6.30371">
        <ele>790.82</ele>
        <time>2016-01-28T13:48:50Z</time>
      </trkpt>
      <trkpt lat="44.49575" lon="6.30368">
        <ele>790.82</ele>
        <time>2016-01-28T13:49:15Z</time>
      </trkpt>
      <trkpt lat="44.49574" lon="6.30362">
        <ele>791.3</ele>
        <time>2016-01-28T13:49:29Z</time>
      </trkpt>
      <trkpt lat="44.49577" lon="6.30362">
        <ele>791.78</ele>
        <time>2016-01-28T13:49:44Z</time>
      </trkpt>
      <trkpt lat="44.49579" lon="6.30359">
        <ele>791.78</ele>
        <time>2016-01-28T13:50:00Z</time>
      </trkpt>
      <trkpt lat="44.49587" lon="6.30352">
        <ele>791.3</ele>
        <time>2016-01-28T13:50:13Z</time>
      </trkpt>
      <trkpt lat="44.496" lon="6.30358">
        <ele>791.78</ele>
        <time>2016-01-28T13:50:26Z</time>
      </trkpt>
      <trkpt lat="44.49609" lon="6.30362">
        <ele>792.26</ele>
        <time>2016-01-28T13:50:37Z</time>
      </trkpt>
      <trkpt lat="44.49623" lon="6.30365">
        <ele>793.22</ele>
        <time>2016-01-28T13:50:51Z</time>
      </trkpt>
      <trkpt lat="44.49635" lon="6.30371">
        <ele>792.26</ele>
        <time>2016-01-28T13:51:04Z</time>
      </trkpt>
      <trkpt lat="44.49636" lon="6.30371">
        <ele>792.26</ele>
        <time>2016-01-28T13:51:05Z</time>
      </trkpt>
      <trkpt lat="44.49642" lon="6.30376">
        <ele>793.71</ele>
        <time>2016-01-28T13:51:15Z</time>
      </trkpt>
      <trkpt lat="44.49648" lon="6.30373">
        <ele>796.11</ele>
        <time>2016-01-28T13:51:28Z</time>
      </trkpt>
      <trkpt lat="44.49657" lon="6.30374">
        <ele>797.07</ele>
        <time>2016-01-28T13:51:44Z</time>
      </trkpt>
      <trkpt lat="44.49659" lon="6.30373">
        <ele>797.07</ele>
        <time>2016-01-28T13:51:48Z</time>
      </trkpt>
      <trkpt lat="44.4967" lon="6.3037">
        <ele>798.03</ele>
        <time>2016-01-28T13:52:01Z</time>
      </trkpt>
      <trkpt lat="44.49678" lon="6.30372">
        <ele>798.99</ele>
        <time>2016-01-28T13:52:11Z</time>
      </trkpt>
      <trkpt lat="44.49682" lon="6.30375">
        <ele>798.99</ele>
        <time>2016-01-28T13:52:14Z</time>
      </trkpt>
      <trkpt lat="44.49695" lon="6.30389">
        <ele>796.59</ele>
        <time>2016-01-28T13:52:29Z</time>
      </trkpt>
      <trkpt lat="44.49696" lon="6.30393">
        <ele>796.11</ele>
        <time>2016-01-28T13:52:32Z</time>
      </trkpt>
      <trkpt lat="44.49704" lon="6.30411">
        <ele>795.15</ele>
        <time>2016-01-28T13:52:46Z</time>
      </trkpt>
      <trkpt lat="44.49705" lon="6.30412">
        <ele>795.15</ele>
        <time>2016-01-28T13:52:47Z</time>
      </trkpt>
      <trkpt lat="44.49714" lon="6.30412">
        <ele>794.67</ele>
        <time>2016-01-28T13:53:01Z</time>
      </trkpt>
      <trkpt lat="44.49716" lon="6.30411">
        <ele>794.67</ele>
        <time>2016-01-28T13:53:06Z</time>
      </trkpt>
      <trkpt lat="44.49721" lon="6.30407">
        <ele>793.71</ele>
        <time>2016-01-28T13:53:13Z</time>
      </trkpt>
      <trkpt lat="44.49728" lon="6.30405">
        <ele>793.22</ele>
        <time>2016-01-28T13:53:22Z</time>
      </trkpt>
      <trkpt lat="44.49734" lon="6.30403">
        <ele>793.22</ele>
        <time>2016-01-28T13:53:28Z</time>
      </trkpt>
      <trkpt lat="44.49737" lon="6.30403">
        <ele>793.22</ele>
        <time>2016-01-28T13:53:31Z</time>
      </trkpt>
      <trkpt lat="44.49748" lon="6.30405">
        <ele>793.71</ele>
        <time>2016-01-28T13:53:42Z</time>
      </trkpt>
      <trkpt lat="44.49754" lon="6.30407">
        <ele>793.71</ele>
        <time>2016-01-28T13:53:48Z</time>
      </trkpt>
      <trkpt lat="44.49756" lon="6.30409">
        <ele>793.71</ele>
        <time>2016-01-28T13:53:50Z</time>
      </trkpt>
      <trkpt lat="44.49765" lon="6.30426">
        <ele>794.67</ele>
        <time>2016-01-28T13:54:04Z</time>
      </trkpt>
      <trkpt lat="44.4977" lon="6.30433">
        <ele>795.15</ele>
        <time>2016-01-28T13:54:12Z</time>
      </trkpt>
      <trkpt lat="44.49782" lon="6.30446">
        <ele>795.15</ele>
        <time>2016-01-28T13:54:27Z</time>
      </trkpt>
      <trkpt lat="44.49794" lon="6.30449">
        <ele>795.15</ele>
        <time>2016-01-28T13:54:41Z</time>
      </trkpt>
      <trkpt lat="44.49799" lon="6.30454">
        <ele>794.67</ele>
        <time>2016-01-28T13:54:48Z</time>
      </trkpt>
      <trkpt lat="44.49794" lon="6.30463">
        <ele>793.22</ele>
        <time>2016-01-28T13:55:01Z</time>
      </trkpt>
      <trkpt lat="44.49792" lon="6.30464">
        <ele>792.74</ele>
        <time>2016-01-28T13:55:03Z</time>
      </trkpt>
      <trkpt lat="44.49791" lon="6.30468">
        <ele>791.78</ele>
        <time>2016-01-28T13:55:07Z</time>
      </trkpt>
      <trkpt lat="44.49803" lon="6.30477">
        <ele>790.82</ele>
        <time>2016-01-28T13:55:22Z</time>
      </trkpt>
      <trkpt lat="44.49815" lon="6.30489">
        <ele>789.86</ele>
        <time>2016-01-28T13:55:37Z</time>
      </trkpt>
      <trkpt lat="44.49816" lon="6.30494">
        <ele>789.38</ele>
        <time>2016-01-28T13:55:48Z</time>
      </trkpt>
      <trkpt lat="44.49817" lon="6.30495">
        <ele>789.38</ele>
        <time>2016-01-28T13:55:50Z</time>
      </trkpt>
      <trkpt lat="44.49817" lon="6.30497">
        <ele>787.94</ele>
        <time>2016-01-28T13:56:02Z</time>
      </trkpt>
      <trkpt lat="44.49816" lon="6.30494">
        <ele>788.42</ele>
        <time>2016-01-28T13:56:15Z</time>
      </trkpt>
      <trkpt lat="44.49817" lon="6.30495">
        <ele>788.42</ele>
        <time>2016-01-28T13:56:22Z</time>
      </trkpt>
      <trkpt lat="44.49822" lon="6.30502">
        <ele>787.94</ele>
        <time>2016-01-28T13:56:27Z</time>
      </trkpt>
      <trkpt lat="44.4983" lon="6.30511">
        <ele>787.46</ele>
        <time>2016-01-28T13:56:35Z</time>
      </trkpt>
      <trkpt lat="44.49842" lon="6.30521">
        <ele>787.46</ele>
        <time>2016-01-28T13:56:48Z</time>
      </trkpt>
      <trkpt lat="44.49851" lon="6.30531">
        <ele>786.98</ele>
        <time>2016-01-28T13:57:01Z</time>
      </trkpt>
      <trkpt lat="44.49855" lon="6.30529">
        <ele>787.46</ele>
        <time>2016-01-28T13:57:14Z</time>
      </trkpt>
      <trkpt lat="44.49858" lon="6.30528">
        <ele>787.46</ele>
        <time>2016-01-28T13:57:19Z</time>
      </trkpt>
      <trkpt lat="44.49861" lon="6.30528">
        <ele>787.46</ele>
        <time>2016-01-28T13:57:22Z</time>
      </trkpt>
      <trkpt lat="44.49867" lon="6.30531">
        <ele>786.98</ele>
        <time>2016-01-28T13:57:33Z</time>
      </trkpt>
      <trkpt lat="44.49881" lon="6.30531">
        <ele>786.98</ele>
        <time>2016-01-28T13:57:47Z</time>
      </trkpt>
      <trkpt lat="44.49891" lon="6.30532">
        <ele>786.5</ele>
        <time>2016-01-28T13:57:59Z</time>
      </trkpt>
      <trkpt lat="44.49897" lon="6.30535">
        <ele>786.5</ele>
        <time>2016-01-28T13:58:06Z</time>
      </trkpt>
      <trkpt lat="44.49903" lon="6.30538">
        <ele>786.02</ele>
        <time>2016-01-28T13:58:20Z</time>
      </trkpt>
      <trkpt lat="44.49911" lon="6.30538">
        <ele>785.05</ele>
        <time>2016-01-28T13:58:29Z</time>
      </trkpt>
      <trkpt lat="44.49913" lon="6.30538">
        <ele>785.05</ele>
        <time>2016-01-28T13:58:32Z</time>
      </trkpt>
      <trkpt lat="44.49915" lon="6.30538">
        <ele>785.05</ele>
        <time>2016-01-28T13:58:34Z</time>
      </trkpt>
      <trkpt lat="44.49925" lon="6.30539">
        <ele>784.57</ele>
        <time>2016-01-28T13:58:44Z</time>
      </trkpt>
      <trkpt lat="44.4994" lon="6.30538">
        <ele>784.09</ele>
        <time>2016-01-28T13:58:59Z</time>
      </trkpt>
      <trkpt lat="44.49947" lon="6.30538">
        <ele>784.09</ele>
        <time>2016-01-28T13:59:06Z</time>
      </trkpt>
      <trkpt lat="44.49949" lon="6.30538">
        <ele>784.09</ele>
        <time>2016-01-28T13:59:08Z</time>
      </trkpt>
      <trkpt lat="44.49955" lon="6.3054">
        <ele>784.09</ele>
        <time>2016-01-28T13:59:13Z</time>
      </trkpt>
      <trkpt lat="44.49958" lon="6.3054">
        <ele>784.09</ele>
        <time>2016-01-28T13:59:16Z</time>
      </trkpt>
      <trkpt lat="44.49969" lon="6.30536">
        <ele>784.57</ele>
        <time>2016-01-28T13:59:30Z</time>
      </trkpt>
      <trkpt lat="44.49981" lon="6.30533">
        <ele>783.61</ele>
        <time>2016-01-28T13:59:45Z</time>
      </trkpt>
      <trkpt lat="44.49985" lon="6.30526">
        <ele>782.65</ele>
        <time>2016-01-28T13:59:57Z</time>
      </trkpt>
      <trkpt lat="44.4999" lon="6.30515">
        <ele>783.61</ele>
        <time>2016-01-28T14:00:10Z</time>
      </trkpt>
      <trkpt lat="44.49999" lon="6.30511">
        <ele>783.13</ele>
        <time>2016-01-28T14:00:23Z</time>
      </trkpt>
      <trkpt lat="44.50004" lon="6.30522">
        <ele>785.05</ele>
        <time>2016-01-28T14:00:35Z</time>
      </trkpt>
      <trkpt lat="44.50002" lon="6.30528">
        <ele>785.05</ele>
        <time>2016-01-28T14:00:47Z</time>
      </trkpt>
      <trkpt lat="44.50002" lon="6.30528">
        <ele>785.05</ele>
        <time>2016-01-28T14:00:57Z</time>
      </trkpt>
      <trkpt lat="44.50004" lon="6.30532">
        <ele>785.05</ele>
        <time>2016-01-28T14:01:08Z</time>
      </trkpt>
      <trkpt lat="44.50005" lon="6.30531">
        <ele>785.05</ele>
        <time>2016-01-28T14:01:25Z</time>
      </trkpt>
      <trkpt lat="44.50006" lon="6.30532">
        <ele>785.05</ele>
        <time>2016-01-28T14:01:26Z</time>
      </trkpt>
      <trkpt lat="44.50011" lon="6.30541">
        <ele>785.05</ele>
        <time>2016-01-28T14:01:37Z</time>
      </trkpt>
      <trkpt lat="44.50018" lon="6.30548">
        <ele>786.5</ele>
        <time>2016-01-28T14:01:48Z</time>
      </trkpt>
      <trkpt lat="44.5002" lon="6.30551">
        <ele>786.5</ele>
        <time>2016-01-28T14:01:51Z</time>
      </trkpt>
      <trkpt lat="44.50021" lon="6.30553">
        <ele>786.5</ele>
        <time>2016-01-28T14:01:53Z</time>
      </trkpt>
      <trkpt lat="44.50023" lon="6.30557">
        <ele>786.98</ele>
        <time>2016-01-28T14:01:56Z</time>
      </trkpt>
      <trkpt lat="44.50028" lon="6.30561">
        <ele>787.46</ele>
        <time>2016-01-28T14:02:02Z</time>
      </trkpt>
      <trkpt lat="44.50031" lon="6.30561">
        <ele>787.94</ele>
        <time>2016-01-28T14:02:14Z</time>
      </trkpt>
      <trkpt lat="44.50034" lon="6.30559">
        <ele>787.94</ele>
        <time>2016-01-28T14:02:32Z</time>
      </trkpt>
      <trkpt lat="44.50045" lon="6.30562">
        <ele>787.94</ele>
        <time>2016-01-28T14:02:45Z</time>
      </trkpt>
      <trkpt lat="44.50047" lon="6.30567">
        <ele>787.46</ele>
        <time>2016-01-28T14:02:57Z</time>
      </trkpt>
      <trkpt lat="44.50046" lon="6.3057">
        <ele>786.98</ele>
        <time>2016-01-28T14:03:10Z</time>
      </trkpt>
      <trkpt lat="44.50047" lon="6.30574">
        <ele>786.98</ele>
        <time>2016-01-28T14:03:33Z</time>
      </trkpt>
      <trkpt lat="44.50059" lon="6.30579">
        <ele>785.05</ele>
        <time>2016-01-28T14:03:47Z</time>
      </trkpt>
      <trkpt lat="44.50071" lon="6.3058">
        <ele>783.61</ele>
        <time>2016-01-28T14:04:00Z</time>
      </trkpt>
      <trkpt lat="44.50079" lon="6.30579">
        <ele>782.65</ele>
        <time>2016-01-28T14:04:11Z</time>
      </trkpt>
      <trkpt lat="44.50089" lon="6.30583">
        <ele>781.21</ele>
        <time>2016-01-28T14:04:24Z</time>
      </trkpt>
      <trkpt lat="44.50089" lon="6.30582">
        <ele>781.21</ele>
        <time>2016-01-28T14:04:33Z</time>
      </trkpt>
      <trkpt lat="44.50104" lon="6.3058">
        <ele>779.77</ele>
        <time>2016-01-28T14:04:48Z</time>
      </trkpt>
      <trkpt lat="44.50115" lon="6.30577">
        <ele>779.29</ele>
        <time>2016-01-28T14:05:00Z</time>
      </trkpt>
      <trkpt lat="44.50119" lon="6.30577">
        <ele>779.29</ele>
        <time>2016-01-28T14:05:04Z</time>
      </trkpt>
      <trkpt lat="44.5012" lon="6.30578">
        <ele>778.81</ele>
        <time>2016-01-28T14:05:06Z</time>
      </trkpt>
      <trkpt lat="44.50122" lon="6.3058">
        <ele>778.81</ele>
        <time>2016-01-28T14:05:08Z</time>
      </trkpt>
      <trkpt lat="44.50133" lon="6.30587">
        <ele>778.32</ele>
        <time>2016-01-28T14:05:20Z</time>
      </trkpt>
      <trkpt lat="44.50141" lon="6.30592">
        <ele>780.25</ele>
        <time>2016-01-28T14:05:32Z</time>
      </trkpt>
      <trkpt lat="44.50141" lon="6.30593">
        <ele>780.25</ele>
        <time>2016-01-28T14:05:33Z</time>
      </trkpt>
      <trkpt lat="44.50142" lon="6.30596">
        <ele>779.77</ele>
        <time>2016-01-28T14:05:35Z</time>
      </trkpt>
      <trkpt lat="44.50148" lon="6.30606">
        <ele>781.21</ele>
        <time>2016-01-28T14:05:47Z</time>
      </trkpt>
      <trkpt lat="44.50151" lon="6.30615">
        <ele>782.65</ele>
        <time>2016-01-28T14:05:58Z</time>
      </trkpt>
      <trkpt lat="44.50155" lon="6.30619">
        <ele>784.09</ele>
        <time>2016-01-28T14:06:09Z</time>
      </trkpt>
      <trkpt lat="44.50161" lon="6.30623">
        <ele>786.5</ele>
        <time>2016-01-28T14:06:21Z</time>
      </trkpt>
      <trkpt lat="44.50169" lon="6.30626">
        <ele>787.94</ele>
        <time>2016-01-28T14:06:34Z</time>
      </trkpt>
      <trkpt lat="44.50173" lon="6.30628">
        <ele>787.94</ele>
        <time>2016-01-28T14:06:49Z</time>
      </trkpt>
      <trkpt lat="44.50176" lon="6.30623">
        <ele>788.9</ele>
        <time>2016-01-28T14:07:03Z</time>
      </trkpt>
      <trkpt lat="44.50178" lon="6.30618">
        <ele>789.38</ele>
        <time>2016-01-28T14:07:18Z</time>
      </trkpt>
      <trkpt lat="44.50182" lon="6.30613">
        <ele>791.3</ele>
        <time>2016-01-28T14:07:30Z</time>
      </trkpt>
      <trkpt lat="44.50185" lon="6.30614">
        <ele>791.3</ele>
        <time>2016-01-28T14:07:47Z</time>
      </trkpt>
      <trkpt lat="44.50192" lon="6.30604">
        <ele>790.82</ele>
        <time>2016-01-28T14:07:59Z</time>
      </trkpt>
      <trkpt lat="44.50195" lon="6.30601">
        <ele>790.34</ele>
        <time>2016-01-28T14:08:09Z</time>
      </trkpt>
      <trkpt lat="44.50201" lon="6.30582">
        <ele>790.34</ele>
        <time>2016-01-28T14:08:23Z</time>
      </trkpt>
      <trkpt lat="44.50202" lon="6.30581">
        <ele>790.34</ele>
        <time>2016-01-28T14:08:24Z</time>
      </trkpt>
      <trkpt lat="44.50205" lon="6.30579">
        <ele>790.34</ele>
        <time>2016-01-28T14:08:28Z</time>
      </trkpt>
      <trkpt lat="44.50211" lon="6.30577">
        <ele>790.34</ele>
        <time>2016-01-28T14:08:41Z</time>
      </trkpt>
      <trkpt lat="44.50212" lon="6.30577">
        <ele>790.34</ele>
        <time>2016-01-28T14:08:55Z</time>
      </trkpt>
      <trkpt lat="44.50209" lon="6.30578">
        <ele>790.34</ele>
        <time>2016-01-28T14:09:14Z</time>
      </trkpt>
      <trkpt lat="44.50213" lon="6.30574">
        <ele>790.34</ele>
        <time>2016-01-28T14:09:35Z</time>
      </trkpt>
      <trkpt lat="44.50218" lon="6.30572">
        <ele>790.34</ele>
        <time>2016-01-28T14:09:41Z</time>
      </trkpt>
      <trkpt lat="44.50219" lon="6.3057">
        <ele>790.34</ele>
        <time>2016-01-28T14:09:43Z</time>
      </trkpt>
      <trkpt lat="44.50231" lon="6.30564">
        <ele>790.34</ele>
        <time>2016-01-28T14:09:56Z</time>
      </trkpt>
      <trkpt lat="44.50247" lon="6.30564">
        <ele>790.34</ele>
        <time>2016-01-28T14:10:10Z</time>
      </trkpt>
      <trkpt lat="44.5025" lon="6.30564">
        <ele>791.78</ele>
        <time>2016-01-28T14:10:12Z</time>
      </trkpt>
      <trkpt lat="44.50253" lon="6.30564">
        <ele>790.34</ele>
        <time>2016-01-28T14:10:15Z</time>
      </trkpt>
      <trkpt lat="44.50253" lon="6.30566">
        <ele>790.34</ele>
        <time>2016-01-28T14:10:28Z</time>
      </trkpt>
      <trkpt lat="44.50252" lon="6.30566">
        <ele>790.34</ele>
        <time>2016-01-28T14:10:32Z</time>
      </trkpt>
      <trkpt lat="44.50244" lon="6.30565">
        <ele>790.34</ele>
        <time>2016-01-28T14:10:41Z</time>
      </trkpt>
      <trkpt lat="44.50246" lon="6.3057">
        <ele>790.34</ele>
        <time>2016-01-28T14:10:56Z</time>
      </trkpt>
      <trkpt lat="44.50245" lon="6.3057">
        <ele>790.34</ele>
        <time>2016-01-28T14:10:57Z</time>
      </trkpt>
      <trkpt lat="44.50242" lon="6.30568">
        <ele>790.34</ele>
        <time>2016-01-28T14:11:00Z</time>
      </trkpt>
      <trkpt lat="44.50235" lon="6.30567">
        <ele>790.34</ele>
        <time>2016-01-28T14:11:06Z</time>
      </trkpt>
      <trkpt lat="44.5023" lon="6.30568">
        <ele>790.34</ele>
        <time>2016-01-28T14:11:10Z</time>
      </trkpt>
      <trkpt lat="44.50224" lon="6.30569">
        <ele>790.34</ele>
        <time>2016-01-28T14:11:23Z</time>
      </trkpt>
      <trkpt lat="44.50226" lon="6.3057">
        <ele>790.34</ele>
        <time>2016-01-28T14:11:36Z</time>
      </trkpt>
      <trkpt lat="44.50228" lon="6.30571">
        <ele>790.34</ele>
        <time>2016-01-28T14:11:53Z</time>
      </trkpt>
      <trkpt lat="44.50229" lon="6.30566">
        <ele>789.86</ele>
        <time>2016-01-28T14:12:10Z</time>
      </trkpt>
      <trkpt lat="44.50245" lon="6.30564">
        <ele>790.34</ele>
        <time>2016-01-28T14:12:26Z</time>
      </trkpt>
      <trkpt lat="44.50248" lon="6.30563">
        <ele>790.34</ele>
        <time>2016-01-28T14:12:28Z</time>
      </trkpt>
      <trkpt lat="44.50254" lon="6.30563">
        <ele>790.34</ele>
        <time>2016-01-28T14:12:42Z</time>
      </trkpt>
      <trkpt lat="44.50254" lon="6.30561">
        <ele>790.82</ele>
        <time>2016-01-28T14:12:59Z</time>
      </trkpt>
      <trkpt lat="44.50252" lon="6.30559">
        <ele>790.82</ele>
        <time>2016-01-28T14:13:15Z</time>
      </trkpt>
      <trkpt lat="44.50252" lon="6.30562">
        <ele>790.82</ele>
        <time>2016-01-28T14:13:26Z</time>
      </trkpt>
      <trkpt lat="44.50255" lon="6.30564">
        <ele>790.34</ele>
        <time>2016-01-28T14:13:43Z</time>
      </trkpt>
      <trkpt lat="44.50254" lon="6.30563">
        <ele>791.3</ele>
        <time>2016-01-28T14:13:56Z</time>
      </trkpt>
      <trkpt lat="44.50255" lon="6.30557">
        <ele>791.3</ele>
        <time>2016-01-28T14:14:12Z</time>
      </trkpt>
      <trkpt lat="44.50265" lon="6.30549">
        <ele>792.26</ele>
        <time>2016-01-28T14:14:25Z</time>
      </trkpt>
      <trkpt lat="44.50266" lon="6.30549">
        <ele>792.74</ele>
        <time>2016-01-28T14:14:26Z</time>
      </trkpt>
      <trkpt lat="44.5027" lon="6.30547">
        <ele>793.22</ele>
        <time>2016-01-28T14:14:38Z</time>
      </trkpt>
      <trkpt lat="44.50271" lon="6.30539">
        <ele>794.19</ele>
        <time>2016-01-28T14:14:44Z</time>
      </trkpt>
      <trkpt lat="44.50271" lon="6.30536">
        <ele>794.19</ele>
        <time>2016-01-28T14:14:46Z</time>
      </trkpt>
      <trkpt lat="44.50271" lon="6.3052">
        <ele>796.59</ele>
        <time>2016-01-28T14:14:59Z</time>
      </trkpt>
      <trkpt lat="44.50273" lon="6.30507">
        <ele>798.51</ele>
        <time>2016-01-28T14:15:11Z</time>
      </trkpt>
      <trkpt lat="44.50276" lon="6.30501">
        <ele>798.99</ele>
        <time>2016-01-28T14:15:23Z</time>
      </trkpt>
      <trkpt lat="44.50277" lon="6.30495">
        <ele>800.92</ele>
        <time>2016-01-28T14:15:38Z</time>
      </trkpt>
      <trkpt lat="44.50277" lon="6.3049">
        <ele>802.36</ele>
        <time>2016-01-28T14:15:47Z</time>
      </trkpt>
      <trkpt lat="44.50278" lon="6.3048">
        <ele>803.32</ele>
        <time>2016-01-28T14:15:55Z</time>
      </trkpt>
      <trkpt lat="44.50281" lon="6.30477">
        <ele>803.32</ele>
        <time>2016-01-28T14:15:58Z</time>
      </trkpt>
      <trkpt lat="44.50286" lon="6.30473">
        <ele>803.8</ele>
        <time>2016-01-28T14:16:05Z</time>
      </trkpt>
      <trkpt lat="44.50291" lon="6.30471">
        <ele>803.32</ele>
        <time>2016-01-28T14:16:10Z</time>
      </trkpt>
      <trkpt lat="44.50301" lon="6.30471">
        <ele>802.36</ele>
        <time>2016-01-28T14:16:20Z</time>
      </trkpt>
      <trkpt lat="44.50318" lon="6.30473">
        <ele>801.4</ele>
        <time>2016-01-28T14:16:35Z</time>
      </trkpt>
      <trkpt lat="44.50322" lon="6.30474">
        <ele>801.4</ele>
        <time>2016-01-28T14:16:39Z</time>
      </trkpt>
      <trkpt lat="44.5033" lon="6.30477">
        <ele>800.92</ele>
        <time>2016-01-28T14:16:46Z</time>
      </trkpt>
      <trkpt lat="44.50338" lon="6.30488">
        <ele>800.44</ele>
        <time>2016-01-28T14:16:56Z</time>
      </trkpt>
      <trkpt lat="44.5034" lon="6.30498">
        <ele>799.95</ele>
        <time>2016-01-28T14:17:02Z</time>
      </trkpt>
      <trkpt lat="44.50341" lon="6.30504">
        <ele>800.44</ele>
        <time>2016-01-28T14:17:07Z</time>
      </trkpt>
      <trkpt lat="44.50339" lon="6.30531">
        <ele>799.95</ele>
        <time>2016-01-28T14:17:23Z</time>
      </trkpt>
      <trkpt lat="44.50339" lon="6.30548">
        <ele>799.47</ele>
        <time>2016-01-28T14:17:34Z</time>
      </trkpt>
      <trkpt lat="44.50343" lon="6.30562">
        <ele>799.95</ele>
        <time>2016-01-28T14:17:43Z</time>
      </trkpt>
      <trkpt lat="44.50344" lon="6.30568">
        <ele>799.95</ele>
        <time>2016-01-28T14:17:47Z</time>
      </trkpt>
      <trkpt lat="44.50349" lon="6.30578">
        <ele>799.47</ele>
        <time>2016-01-28T14:17:55Z</time>
      </trkpt>
      <trkpt lat="44.50353" lon="6.30583">
        <ele>799.47</ele>
        <time>2016-01-28T14:17:59Z</time>
      </trkpt>
      <trkpt lat="44.50359" lon="6.30592">
        <ele>799.47</ele>
        <time>2016-01-28T14:18:07Z</time>
      </trkpt>
      <trkpt lat="44.50366" lon="6.30594">
        <ele>798.99</ele>
        <time>2016-01-28T14:18:13Z</time>
      </trkpt>
      <trkpt lat="44.50378" lon="6.306">
        <ele>798.51</ele>
        <time>2016-01-28T14:18:26Z</time>
      </trkpt>
      <trkpt lat="44.50387" lon="6.30602">
        <ele>798.03</ele>
        <time>2016-01-28T14:18:35Z</time>
      </trkpt>
      <trkpt lat="44.50391" lon="6.30605">
        <ele>798.03</ele>
        <time>2016-01-28T14:18:40Z</time>
      </trkpt>
      <trkpt lat="44.50393" lon="6.3061">
        <ele>797.55</ele>
        <time>2016-01-28T14:18:54Z</time>
      </trkpt>
      <trkpt lat="44.50393" lon="6.30611">
        <ele>797.55</ele>
        <time>2016-01-28T14:19:26Z</time>
      </trkpt>
      <trkpt lat="44.50392" lon="6.30611">
        <ele>797.55</ele>
        <time>2016-01-28T14:19:51Z</time>
      </trkpt>
      <trkpt lat="44.50392" lon="6.30611">
        <ele>797.55</ele>
        <time>2016-01-28T14:19:52Z</time>
      </trkpt>
      <trkpt lat="44.50385" lon="6.30599">
        <ele>798.03</ele>
        <time>2016-01-28T14:20:05Z</time>
      </trkpt>
      <trkpt lat="44.50384" lon="6.30597">
        <ele>798.51</ele>
        <time>2016-01-28T14:20:16Z</time>
      </trkpt>
      <trkpt lat="44.50384" lon="6.30592">
        <ele>798.99</ele>
        <time>2016-01-28T14:20:26Z</time>
      </trkpt>
      <trkpt lat="44.50389" lon="6.3059">
        <ele>799.47</ele>
        <time>2016-01-28T14:20:32Z</time>
      </trkpt>
      <trkpt lat="44.50401" lon="6.30585">
        <ele>800.92</ele>
        <time>2016-01-28T14:20:47Z</time>
      </trkpt>
      <trkpt lat="44.50404" lon="6.30578">
        <ele>802.36</ele>
        <time>2016-01-28T14:20:57Z</time>
      </trkpt>
      <trkpt lat="44.50411" lon="6.30575">
        <ele>803.32</ele>
        <time>2016-01-28T14:21:04Z</time>
      </trkpt>
      <trkpt lat="44.50428" lon="6.30576">
        <ele>803.8</ele>
        <time>2016-01-28T14:21:19Z</time>
      </trkpt>
      <trkpt lat="44.50436" lon="6.30578">
        <ele>804.28</ele>
        <time>2016-01-28T14:21:29Z</time>
      </trkpt>
      <trkpt lat="44.50452" lon="6.30577">
        <ele>805.24</ele>
        <time>2016-01-28T14:21:43Z</time>
      </trkpt>
      <trkpt lat="44.50455" lon="6.30576">
        <ele>805.72</ele>
        <time>2016-01-28T14:21:46Z</time>
      </trkpt>
      <trkpt lat="44.50457" lon="6.30576">
        <ele>805.72</ele>
        <time>2016-01-28T14:21:48Z</time>
      </trkpt>
      <trkpt lat="44.50471" lon="6.30577">
        <ele>806.68</ele>
        <time>2016-01-28T14:22:00Z</time>
      </trkpt>
      <trkpt lat="44.50476" lon="6.30576">
        <ele>807.16</ele>
        <time>2016-01-28T14:22:05Z</time>
      </trkpt>
      <trkpt lat="44.50491" lon="6.30575">
        <ele>808.13</ele>
        <time>2016-01-28T14:22:19Z</time>
      </trkpt>
      <trkpt lat="44.505" lon="6.30574">
        <ele>808.61</ele>
        <time>2016-01-28T14:22:28Z</time>
      </trkpt>
      <trkpt lat="44.50512" lon="6.30569">
        <ele>809.57</ele>
        <time>2016-01-28T14:22:40Z</time>
      </trkpt>
      <trkpt lat="44.50514" lon="6.30566">
        <ele>809.57</ele>
        <time>2016-01-28T14:22:42Z</time>
      </trkpt>
      <trkpt lat="44.50525" lon="6.30555">
        <ele>811.01</ele>
        <time>2016-01-28T14:22:57Z</time>
      </trkpt>
      <trkpt lat="44.50529" lon="6.30558">
        <ele>811.49</ele>
        <time>2016-01-28T14:23:09Z</time>
      </trkpt>
      <trkpt lat="44.50532" lon="6.3056">
        <ele>811.01</ele>
        <time>2016-01-28T14:23:17Z</time>
      </trkpt>
      <trkpt lat="44.50536" lon="6.30558">
        <ele>812.45</ele>
        <time>2016-01-28T14:23:28Z</time>
      </trkpt>
      <trkpt lat="44.50538" lon="6.30561">
        <ele>812.45</ele>
        <time>2016-01-28T14:23:40Z</time>
      </trkpt>
      <trkpt lat="44.50537" lon="6.30559">
        <ele>811.97</ele>
        <time>2016-01-28T14:24:05Z</time>
      </trkpt>
      <trkpt lat="44.50543" lon="6.30561">
        <ele>811.49</ele>
        <time>2016-01-28T14:24:17Z</time>
      </trkpt>
      <trkpt lat="44.50551" lon="6.30561">
        <ele>811.01</ele>
        <time>2016-01-28T14:24:26Z</time>
      </trkpt>
      <trkpt lat="44.50565" lon="6.30564">
        <ele>810.05</ele>
        <time>2016-01-28T14:24:39Z</time>
      </trkpt>
      <trkpt lat="44.50578" lon="6.30568">
        <ele>809.09</ele>
        <time>2016-01-28T14:24:52Z</time>
      </trkpt>
      <trkpt lat="44.50584" lon="6.30571">
        <ele>808.13</ele>
        <time>2016-01-28T14:24:58Z</time>
      </trkpt>
      <trkpt lat="44.50592" lon="6.30578">
        <ele>806.2</ele>
        <time>2016-01-28T14:25:13Z</time>
      </trkpt>
      <trkpt lat="44.50594" lon="6.30584">
        <ele>805.72</ele>
        <time>2016-01-28T14:25:24Z</time>
      </trkpt>
      <trkpt lat="44.50602" lon="6.30601">
        <ele>803.8</ele>
        <time>2016-01-28T14:25:39Z</time>
      </trkpt>
      <trkpt lat="44.50605" lon="6.3061">
        <ele>803.32</ele>
        <time>2016-01-28T14:25:46Z</time>
      </trkpt>
      <trkpt lat="44.50609" lon="6.30622">
        <ele>801.88</ele>
        <time>2016-01-28T14:25:56Z</time>
      </trkpt>
      <trkpt lat="44.50618" lon="6.30643">
        <ele>798.99</ele>
        <time>2016-01-28T14:26:12Z</time>
      </trkpt>
      <trkpt lat="44.50621" lon="6.30643">
        <ele>798.51</ele>
        <time>2016-01-28T14:26:19Z</time>
      </trkpt>
      <trkpt lat="44.50629" lon="6.3063">
        <ele>796.11</ele>
        <time>2016-01-28T14:26:33Z</time>
      </trkpt>
      <trkpt lat="44.50631" lon="6.30627">
        <ele>796.11</ele>
        <time>2016-01-28T14:26:35Z</time>
      </trkpt>
      <trkpt lat="44.50636" lon="6.30616">
        <ele>795.63</ele>
        <time>2016-01-28T14:26:44Z</time>
      </trkpt>
      <trkpt lat="44.50638" lon="6.30611">
        <ele>795.63</ele>
        <time>2016-01-28T14:26:47Z</time>
      </trkpt>
      <trkpt lat="44.50641" lon="6.30591">
        <ele>795.63</ele>
        <time>2016-01-28T14:27:00Z</time>
      </trkpt>
      <trkpt lat="44.50642" lon="6.30577">
        <ele>794.19</ele>
        <time>2016-01-28T14:27:13Z</time>
      </trkpt>
      <trkpt lat="44.50639" lon="6.30567">
        <ele>793.71</ele>
        <time>2016-01-28T14:27:26Z</time>
      </trkpt>
      <trkpt lat="44.50645" lon="6.30569">
        <ele>790.82</ele>
        <time>2016-01-28T14:27:40Z</time>
      </trkpt>
      <trkpt lat="44.50648" lon="6.30575">
        <ele>790.82</ele>
        <time>2016-01-28T14:27:53Z</time>
      </trkpt>
      <trkpt lat="44.50649" lon="6.30575">
        <ele>789.86</ele>
        <time>2016-01-28T14:28:04Z</time>
      </trkpt>
      <trkpt lat="44.50651" lon="6.30577">
        <ele>789.38</ele>
        <time>2016-01-28T14:28:17Z</time>
      </trkpt>
      <trkpt lat="44.50652" lon="6.30578">
        <ele>788.9</ele>
        <time>2016-01-28T14:28:30Z</time>
      </trkpt>
      <trkpt lat="44.50649" lon="6.30578">
        <ele>788.9</ele>
        <time>2016-01-28T14:28:56Z</time>
      </trkpt>
      <trkpt lat="44.50652" lon="6.30575">
        <ele>789.38</ele>
        <time>2016-01-28T14:29:15Z</time>
      </trkpt>
      <trkpt lat="44.50651" lon="6.3058">
        <ele>789.38</ele>
        <time>2016-01-28T14:29:33Z</time>
      </trkpt>
      <trkpt lat="44.50648" lon="6.30572">
        <ele>789.86</ele>
        <time>2016-01-28T14:29:46Z</time>
      </trkpt>
      <trkpt lat="44.50649" lon="6.30576">
        <ele>789.86</ele>
        <time>2016-01-28T14:30:10Z</time>
      </trkpt>
      <trkpt lat="44.50653" lon="6.30576">
        <ele>789.38</ele>
        <time>2016-01-28T14:30:30Z</time>
      </trkpt>
      <trkpt lat="44.5065" lon="6.30578">
        <ele>788.9</ele>
        <time>2016-01-28T14:30:44Z</time>
      </trkpt>
      <trkpt lat="44.5065" lon="6.3058">
        <ele>788.9</ele>
        <time>2016-01-28T14:31:12Z</time>
      </trkpt>
      <trkpt lat="44.50651" lon="6.30578">
        <ele>789.38</ele>
        <time>2016-01-28T14:31:33Z</time>
      </trkpt>
      <trkpt lat="44.50653" lon="6.30576">
        <ele>789.38</ele>
        <time>2016-01-28T14:32:01Z</time>
      </trkpt>
      <trkpt lat="44.50657" lon="6.30581">
        <ele>788.9</ele>
        <time>2016-01-28T14:32:15Z</time>
      </trkpt>
      <trkpt lat="44.50665" lon="6.3058">
        <ele>788.9</ele>
        <time>2016-01-28T14:32:28Z</time>
      </trkpt>
      <trkpt lat="44.50676" lon="6.30582">
        <ele>788.9</ele>
        <time>2016-01-28T14:32:42Z</time>
      </trkpt>
      <trkpt lat="44.50678" lon="6.30582">
        <ele>788.9</ele>
        <time>2016-01-28T14:32:45Z</time>
      </trkpt>
      <trkpt lat="44.5069" lon="6.30587">
        <ele>787.94</ele>
        <time>2016-01-28T14:32:58Z</time>
      </trkpt>
      <trkpt lat="44.50699" lon="6.30591">
        <ele>786.5</ele>
        <time>2016-01-28T14:33:10Z</time>
      </trkpt>
      <trkpt lat="44.507" lon="6.30591">
        <ele>786.5</ele>
        <time>2016-01-28T14:33:12Z</time>
      </trkpt>
      <trkpt lat="44.50713" lon="6.30584">
        <ele>786.5</ele>
        <time>2016-01-28T14:33:27Z</time>
      </trkpt>
      <trkpt lat="44.50722" lon="6.30577">
        <ele>786.5</ele>
        <time>2016-01-28T14:33:37Z</time>
      </trkpt>
      <trkpt lat="44.50723" lon="6.30576">
        <ele>786.5</ele>
        <time>2016-01-28T14:33:38Z</time>
      </trkpt>
      <trkpt lat="44.50725" lon="6.30576">
        <ele>786.5</ele>
        <time>2016-01-28T14:33:40Z</time>
      </trkpt>
      <trkpt lat="44.50729" lon="6.30574">
        <ele>786.5</ele>
        <time>2016-01-28T14:33:44Z</time>
      </trkpt>
      <trkpt lat="44.50742" lon="6.30572">
        <ele>786.02</ele>
        <time>2016-01-28T14:33:57Z</time>
      </trkpt>
      <trkpt lat="44.50756" lon="6.30576">
        <ele>785.05</ele>
        <time>2016-01-28T14:34:09Z</time>
      </trkpt>
      <trkpt lat="44.50762" lon="6.30582">
        <ele>784.57</ele>
        <time>2016-01-28T14:34:15Z</time>
      </trkpt>
      <trkpt lat="44.50773" lon="6.30583">
        <ele>784.09</ele>
        <time>2016-01-28T14:34:26Z</time>
      </trkpt>
      <trkpt lat="44.50776" lon="6.30583">
        <ele>784.09</ele>
        <time>2016-01-28T14:34:28Z</time>
      </trkpt>
      <trkpt lat="44.50782" lon="6.3058">
        <ele>784.09</ele>
        <time>2016-01-28T14:34:34Z</time>
      </trkpt>
      <trkpt lat="44.50797" lon="6.30585">
        <ele>784.09</ele>
        <time>2016-01-28T14:34:47Z</time>
      </trkpt>
      <trkpt lat="44.50807" lon="6.30593">
        <ele>784.57</ele>
        <time>2016-01-28T14:35:02Z</time>
      </trkpt>
      <trkpt lat="44.50813" lon="6.30592">
        <ele>784.57</ele>
        <time>2016-01-28T14:35:15Z</time>
      </trkpt>
      <trkpt lat="44.50817" lon="6.30593">
        <ele>784.57</ele>
        <time>2016-01-28T14:35:37Z</time>
      </trkpt>
      <trkpt lat="44.50819" lon="6.30592">
        <ele>785.05</ele>
        <time>2016-01-28T14:35:56Z</time>
      </trkpt>
      <trkpt lat="44.50819" lon="6.30592">
        <ele>785.05</ele>
        <time>2016-01-28T14:36:12Z</time>
      </trkpt>
      <trkpt lat="44.50831" lon="6.30593">
        <ele>786.02</ele>
        <time>2016-01-28T14:36:25Z</time>
      </trkpt>
      <trkpt lat="44.50833" lon="6.30594">
        <ele>785.05</ele>
        <time>2016-01-28T14:36:27Z</time>
      </trkpt>
      <trkpt lat="44.50848" lon="6.30597">
        <ele>785.53</ele>
        <time>2016-01-28T14:36:42Z</time>
      </trkpt>
      <trkpt lat="44.50862" lon="6.30602">
        <ele>786.02</ele>
        <time>2016-01-28T14:36:56Z</time>
      </trkpt>
      <trkpt lat="44.50868" lon="6.30604">
        <ele>786.02</ele>
        <time>2016-01-28T14:37:02Z</time>
      </trkpt>
      <trkpt lat="44.5087" lon="6.30605">
        <ele>786.02</ele>
        <time>2016-01-28T14:37:04Z</time>
      </trkpt>
      <trkpt lat="44.50874" lon="6.30607">
        <ele>786.5</ele>
        <time>2016-01-28T14:37:08Z</time>
      </trkpt>
      <trkpt lat="44.50884" lon="6.30611">
        <ele>786.5</ele>
        <time>2016-01-28T14:37:18Z</time>
      </trkpt>
      <trkpt lat="44.50886" lon="6.30612">
        <ele>786.5</ele>
        <time>2016-01-28T14:37:20Z</time>
      </trkpt>
      <trkpt lat="44.50898" lon="6.30618">
        <ele>786.98</ele>
        <time>2016-01-28T14:37:31Z</time>
      </trkpt>
      <trkpt lat="44.50902" lon="6.3062">
        <ele>786.98</ele>
        <time>2016-01-28T14:37:36Z</time>
      </trkpt>
      <trkpt lat="44.50917" lon="6.3063">
        <ele>787.46</ele>
        <time>2016-01-28T14:37:51Z</time>
      </trkpt>
      <trkpt lat="44.50918" lon="6.30632">
        <ele>787.46</ele>
        <time>2016-01-28T14:37:53Z</time>
      </trkpt>
      <trkpt lat="44.50925" lon="6.30636">
        <ele>787.46</ele>
        <time>2016-01-28T14:38:00Z</time>
      </trkpt>
      <trkpt lat="44.50927" lon="6.30637">
        <ele>787.46</ele>
        <time>2016-01-28T14:38:02Z</time>
      </trkpt>
      <trkpt lat="44.50928" lon="6.30638">
        <ele>787.46</ele>
        <time>2016-01-28T14:38:04Z</time>
      </trkpt>
      <trkpt lat="44.50935" lon="6.30643">
        <ele>787.94</ele>
        <time>2016-01-28T14:38:11Z</time>
      </trkpt>
      <trkpt lat="44.5094" lon="6.30647">
        <ele>787.94</ele>
        <time>2016-01-28T14:38:17Z</time>
      </trkpt>
      <trkpt lat="44.50944" lon="6.30649">
        <ele>787.94</ele>
        <time>2016-01-28T14:38:21Z</time>
      </trkpt>
      <trkpt lat="44.50946" lon="6.30651">
        <ele>787.94</ele>
        <time>2016-01-28T14:38:23Z</time>
      </trkpt>
      <trkpt lat="44.50951" lon="6.30656">
        <ele>787.94</ele>
        <time>2016-01-28T14:38:30Z</time>
      </trkpt>
      <trkpt lat="44.50956" lon="6.30658">
        <ele>788.42</ele>
        <time>2016-01-28T14:38:35Z</time>
      </trkpt>
      <trkpt lat="44.5097" lon="6.30667">
        <ele>788.42</ele>
        <time>2016-01-28T14:38:49Z</time>
      </trkpt>
      <trkpt lat="44.50986" lon="6.30679">
        <ele>789.38</ele>
        <time>2016-01-28T14:39:05Z</time>
      </trkpt>
      <trkpt lat="44.50993" lon="6.30684">
        <ele>789.38</ele>
        <time>2016-01-28T14:39:12Z</time>
      </trkpt>
      <trkpt lat="44.51006" lon="6.30694">
        <ele>789.38</ele>
        <time>2016-01-28T14:39:25Z</time>
      </trkpt>
      <trkpt lat="44.5102" lon="6.30703">
        <ele>789.38</ele>
        <time>2016-01-28T14:39:38Z</time>
      </trkpt>
      <trkpt lat="44.51035" lon="6.30712">
        <ele>789.86</ele>
        <time>2016-01-28T14:39:52Z</time>
      </trkpt>
      <trkpt lat="44.51038" lon="6.30714">
        <ele>790.34</ele>
        <time>2016-01-28T14:39:55Z</time>
      </trkpt>
      <trkpt lat="44.51048" lon="6.30718">
        <ele>790.34</ele>
        <time>2016-01-28T14:40:04Z</time>
      </trkpt>
      <trkpt lat="44.51054" lon="6.30722">
        <ele>790.34</ele>
        <time>2016-01-28T14:40:09Z</time>
      </trkpt>
      <trkpt lat="44.51064" lon="6.30727">
        <ele>790.82</ele>
        <time>2016-01-28T14:40:19Z</time>
      </trkpt>
      <trkpt lat="44.51068" lon="6.30728">
        <ele>790.82</ele>
        <time>2016-01-28T14:40:23Z</time>
      </trkpt>
      <trkpt lat="44.51071" lon="6.30729">
        <ele>790.34</ele>
        <time>2016-01-28T14:40:26Z</time>
      </trkpt>
      <trkpt lat="44.51081" lon="6.30733">
        <ele>790.34</ele>
        <time>2016-01-28T14:40:41Z</time>
      </trkpt>
      <trkpt lat="44.51084" lon="6.30733">
        <ele>790.82</ele>
        <time>2016-01-28T14:40:52Z</time>
      </trkpt>
      <trkpt lat="44.51089" lon="6.30733">
        <ele>790.82</ele>
        <time>2016-01-28T14:40:59Z</time>
      </trkpt>
      <trkpt lat="44.51094" lon="6.30734">
        <ele>790.82</ele>
        <time>2016-01-28T14:41:03Z</time>
      </trkpt>
      <trkpt lat="44.51109" lon="6.30736">
        <ele>790.82</ele>
        <time>2016-01-28T14:41:16Z</time>
      </trkpt>
      <trkpt lat="44.51118" lon="6.30737">
        <ele>791.3</ele>
        <time>2016-01-28T14:41:24Z</time>
      </trkpt>
      <trkpt lat="44.51132" lon="6.30736">
        <ele>791.78</ele>
        <time>2016-01-28T14:41:36Z</time>
      </trkpt>
      <trkpt lat="44.51149" lon="6.30736">
        <ele>792.26</ele>
        <time>2016-01-28T14:41:51Z</time>
      </trkpt>
      <trkpt lat="44.51164" lon="6.30737">
        <ele>792.74</ele>
        <time>2016-01-28T14:42:04Z</time>
      </trkpt>
      <trkpt lat="44.51169" lon="6.30735">
        <ele>792.74</ele>
        <time>2016-01-28T14:42:09Z</time>
      </trkpt>
      <trkpt lat="44.51176" lon="6.30732">
        <ele>793.22</ele>
        <time>2016-01-28T14:42:16Z</time>
      </trkpt>
      <trkpt lat="44.51186" lon="6.30731">
        <ele>793.71</ele>
        <time>2016-01-28T14:42:28Z</time>
      </trkpt>
      <trkpt lat="44.51196" lon="6.30728">
        <ele>793.22</ele>
        <time>2016-01-28T14:42:37Z</time>
      </trkpt>
      <trkpt lat="44.512" lon="6.30726">
        <ele>793.22</ele>
        <time>2016-01-28T14:42:41Z</time>
      </trkpt>
      <trkpt lat="44.51201" lon="6.30725">
        <ele>793.71</ele>
        <time>2016-01-28T14:42:43Z</time>
      </trkpt>
      <trkpt lat="44.51203" lon="6.30725">
        <ele>793.22</ele>
        <time>2016-01-28T14:42:45Z</time>
      </trkpt>
      <trkpt lat="44.51217" lon="6.30716">
        <ele>793.71</ele>
        <time>2016-01-28T14:42:59Z</time>
      </trkpt>
      <trkpt lat="44.51217" lon="6.30715">
        <ele>793.71</ele>
        <time>2016-01-28T14:43:00Z</time>
      </trkpt>
      <trkpt lat="44.51223" lon="6.30717">
        <ele>793.71</ele>
        <time>2016-01-28T14:43:06Z</time>
      </trkpt>
      <trkpt lat="44.51229" lon="6.30724">
        <ele>794.67</ele>
        <time>2016-01-28T14:43:19Z</time>
      </trkpt>
      <trkpt lat="44.51228" lon="6.30725">
        <ele>794.19</ele>
        <time>2016-01-28T14:43:20Z</time>
      </trkpt>
      <trkpt lat="44.51222" lon="6.30735">
        <ele>794.67</ele>
        <time>2016-01-28T14:43:29Z</time>
      </trkpt>
      <trkpt lat="44.5121" lon="6.3075">
        <ele>795.15</ele>
        <time>2016-01-28T14:43:43Z</time>
      </trkpt>
      <trkpt lat="44.51197" lon="6.30766">
        <ele>797.55</ele>
        <time>2016-01-28T14:44:00Z</time>
      </trkpt>
      <trkpt lat="44.51196" lon="6.3077">
        <ele>797.55</ele>
        <time>2016-01-28T14:44:05Z</time>
      </trkpt>
      <trkpt lat="44.5119" lon="6.30773">
        <ele>796.11</ele>
        <time>2016-01-28T14:44:19Z</time>
      </trkpt>
      <trkpt lat="44.51191" lon="6.30771">
        <ele>796.59</ele>
        <time>2016-01-28T14:44:34Z</time>
      </trkpt>
      <trkpt lat="44.51183" lon="6.30774">
        <ele>794.67</ele>
        <time>2016-01-28T14:44:47Z</time>
      </trkpt>
      <trkpt lat="44.51168" lon="6.3078">
        <ele>793.22</ele>
        <time>2016-01-28T14:45:01Z</time>
      </trkpt>
      <trkpt lat="44.51163" lon="6.30797">
        <ele>791.3</ele>
        <time>2016-01-28T14:45:14Z</time>
      </trkpt>
      <trkpt lat="44.51154" lon="6.30822">
        <ele>790.82</ele>
        <time>2016-01-28T14:45:31Z</time>
      </trkpt>
      <trkpt lat="44.5115" lon="6.30826">
        <ele>791.3</ele>
        <time>2016-01-28T14:45:35Z</time>
      </trkpt>
      <trkpt lat="44.51149" lon="6.30835">
        <ele>791.3</ele>
        <time>2016-01-28T14:45:40Z</time>
      </trkpt>
      <trkpt lat="44.51152" lon="6.30844">
        <ele>792.26</ele>
        <time>2016-01-28T14:45:49Z</time>
      </trkpt>
      <trkpt lat="44.51152" lon="6.30849">
        <ele>792.74</ele>
        <time>2016-01-28T14:45:53Z</time>
      </trkpt>
      <trkpt lat="44.5114" lon="6.3087">
        <ele>792.74</ele>
        <time>2016-01-28T14:46:09Z</time>
      </trkpt>
      <trkpt lat="44.5113" lon="6.30891">
        <ele>792.74</ele>
        <time>2016-01-28T14:46:24Z</time>
      </trkpt>
      <trkpt lat="44.51123" lon="6.30914">
        <ele>792.26</ele>
        <time>2016-01-28T14:46:39Z</time>
      </trkpt>
      <trkpt lat="44.51115" lon="6.30931">
        <ele>791.78</ele>
        <time>2016-01-28T14:46:52Z</time>
      </trkpt>
      <trkpt lat="44.51114" lon="6.30934">
        <ele>791.78</ele>
        <time>2016-01-28T14:47:02Z</time>
      </trkpt>
      <trkpt lat="44.51116" lon="6.30936">
        <ele>791.3</ele>
        <time>2016-01-28T14:47:16Z</time>
      </trkpt>
      <trkpt lat="44.51113" lon="6.30936">
        <ele>791.3</ele>
        <time>2016-01-28T14:47:26Z</time>
      </trkpt>
      <trkpt lat="44.5111" lon="6.30933">
        <ele>791.3</ele>
        <time>2016-01-28T14:47:42Z</time>
      </trkpt>
      <trkpt lat="44.51111" lon="6.30932">
        <ele>791.78</ele>
        <time>2016-01-28T14:47:44Z</time>
      </trkpt>
      <trkpt lat="44.51124" lon="6.30921">
        <ele>791.3</ele>
        <time>2016-01-28T14:47:58Z</time>
      </trkpt>
      <trkpt lat="44.51125" lon="6.30922">
        <ele>791.78</ele>
        <time>2016-01-28T14:47:59Z</time>
      </trkpt>
      <trkpt lat="44.51128" lon="6.30922">
        <ele>791.3</ele>
        <time>2016-01-28T14:48:11Z</time>
      </trkpt>
      <trkpt lat="44.51128" lon="6.30922">
        <ele>791.3</ele>
        <time>2016-01-28T14:48:25Z</time>
      </trkpt>
      <trkpt lat="44.51129" lon="6.3092">
        <ele>791.3</ele>
        <time>2016-01-28T14:48:37Z</time>
      </trkpt>
      <trkpt lat="44.51129" lon="6.30922">
        <ele>791.3</ele>
        <time>2016-01-28T14:48:53Z</time>
      </trkpt>
      <trkpt lat="44.51131" lon="6.30924">
        <ele>790.82</ele>
        <time>2016-01-28T14:49:08Z</time>
      </trkpt>
      <trkpt lat="44.51127" lon="6.30918">
        <ele>790.82</ele>
        <time>2016-01-28T14:49:28Z</time>
      </trkpt>
      <trkpt lat="44.51129" lon="6.3092">
        <ele>791.3</ele>
        <time>2016-01-28T14:49:46Z</time>
      </trkpt>
    </trkseg>
  </trk>
</gpx>